GFSGL_sfc_thetae_000.txt.gz
Theta_e
317 318 324 324 323 322 321 318 319 319 320 321 321 322 322 322 322 322 322 323 325 326 327 326 324 325 325 324 325 324 323 323 319 323 326 328 325 326 326 325 325 323 321
316 316 321 324 322 322 320 320 320 320 321 321 323 323 323 322 323 324 323 324 324 324 325 326 325 327 324 325 325 324 323 324 322 319 323 325 325 325 325 324 323 322 319
316 314 322 321 321 322 320 321 321 321 321 324 324 324 324 324 323 323 323 322 323 324 325 326 326 326 325 324 324 323 324 325 324 322 321 323 322 323 320 319 318 314 316
314 314 319 320 320 321 321 321 321 322 321 323 324 326 326 325 325 325 323 321 320 323 325 326 327 326 325 324 325 324 324 323 323 322 321 319 317 316 316 316 314 315 314
313 316 319 319 320 322 322 320 321 321 322 323 324 325 325 325 327 325 324 325 323 321 322 325 325 325 323 323 326 324 324 322 322 317 316 314 314 312 309 311 312 312 313
313 313 319 319 324 322 322 319 322 321 321 321 322 323 322 325 309 313 322 325 325 324 322 325 324 322 320 317 318 318 320 319 317 316 313 312 311 312 312 311 311 310 310
313 314 315 315 322 319 320 318 319 316 315 316 316 316 315 318 307 310 315 325 325 324 323 324 327 327 322 325 313 312 313 312 315 316 313 312 312 314 313 311 311 311 310
313 315 313 315 322 317 316 317 317 314 314 312 312 311 312 314 305 307 311 326 325 323 323 322 324 324 323 318 316 315 315 315 316 319 315 315 314 315 315 315 313 312 314
314 314 313 314 320 318 315 316 315 314 312 312 311 309 309 307 303 304 317 322 322 319 319 318 318 317 306 303 314 312 307 304 302 303 309 307 305 306 311 318 314 312 307
314 315 314 313 318 319 315 316 316 314 313 313 311 309 307 303 301 305 314 319 315 313 312 314 307 311 299 301 312 312 308 307 303 301 299 297 296 298 302 307 311 304 301
314 316 314 313 316 320 318 318 318 317 315 311 310 308 308 304 299 301 305 314 313 309 311 311 306 297 300 300 304 309 307 309 304 307 309 309 310 307 306 306 305 305 303
312 313 314 313 318 322 320 318 319 317 315 313 310 307 307 305 299 297 301 304 305 310 309 309 302 296 297 298 303 295 296 301 303 308 310 309 310 309 308 305 305 307 308
311 310 310 314 317 323 321 319 317 318 316 314 313 309 310 306 299 295 296 298 301 307 308 304 295 294 293 294 293 294 298 302 306 308 306 305 305 306 303 302 303 304 306
310 309 308 314 320 323 323 322 320 317 316 315 314 311 311 308 300 294 298 300 300 304 301 297 295 295 295 295 293 294 299 302 308 306 304 303 301 300 299 300 298 299 299
311 310 310 315 321 321 322 321 320 319 318 315 315 315 312 310 306 296 296 300 300 301 296 293 292 292 293 294 296 293 296 301 307 302 300 299 298 298 298 299 300 298 297
313 312 311 316 320 321 318 308 295 301 302 303 303 310 313 308 299 295 293 296 295 294 296 294 292 291 292 294 299 301 303 304 301 300 298 297 297 299 301 298 299 296 294
315 314 311 315 319 318 318 316 311 302 296 298 298 300 302 305 297 295 293 294 293 296 299 297 296 295 294 295 298 303 304 301 299 299 298 298 299 298 295 295 296 296 293
317 306 312 316 318 318 319 318 316 311 308 303 295 296 296 297 297 295 292 295 298 299 302 303 302 302 302 302 303 300 301 299 298 299 299 297 296 298 297 296 295 294 292
318 314 313 314 317 316 318 317 316 312 311 305 299 295 292 291 292 292 293 301 303 307 305 304 305 306 306 304 302 301 301 300 300 298 297 297 299 298 294 295 293 289 288
318 309 311 313 314 316 316 315 314 313 310 308 304 303 294 296 298 297 298 302 302 305 307 307 303 305 304 303 301 301 299 298 298 298 299 299 298 295 294 293 291 289 288
320 314 309 315 313 315 315 314 314 313 312 309 309 304 293 301 301 302 301 302 302 302 304 305 304 303 303 302 301 301 300 298 298 298 298 295 296 294 293 292 292 290 289
321 316 315 316 316 314 313 314 313 312 312 311 310 303 290 303 303 303 304 306 306 304 305 305 303 303 304 302 301 300 298 297 297 297 296 296 295 293 292 292 290 287 287
322 318 316 316 316 309 311 314 313 312 310 312 311 306 298 301 304 304 305 306 304 305 305 305 305 304 303 303 302 300 298 298 299 298 296 296 294 294 292 289 288 285 283
322 320 317 317 316 314 314 313 313 305 311 310 310 310 305 304 305 304 304 305 307 306 306 305 303 302 299 298 298 299 299 299 299 298 297 295 294 290 289 288 287 284 284
318 318 317 317 315 313 313 314 314 312 310 308 307 307 310 308 307 306 304 306 306 305 302 302 301 298 297 297 296 295 289 289 296 292 297 294 291 289 288 287 285 285 283
318 319 317 315 314 313 312 313 316 316 315 310 308 305 305 305 304 305 305 306 303 300 300 299 298 297 297 296 295 290 289 289 290 289 293 291 289 287 286 285 285 283 282

GFSGL_sfc_thetae_003.txt.gz
Theta_e
316 316 322 320 320 318 317 316 316 315 317 317 319 320 320 320 321 320 322 325 325 326 326 324 325 325 324 324 325 325 323 323 319 323 326 326 327 327 326 325 325 323 322
315 316 320 321 320 318 317 316 316 316 317 319 320 321 321 320 320 322 321 322 325 325 325 325 324 325 324 324 324 323 323 324 322 320 324 324 323 324 324 322 322 321 319
314 315 319 319 319 317 316 317 317 317 318 320 321 321 321 321 321 320 321 320 321 325 325 326 325 324 324 324 324 324 324 324 324 322 321 322 322 322 320 319 316 314 316
312 317 318 317 318 318 318 318 318 319 319 319 320 323 322 322 322 321 320 322 323 324 325 326 324 325 324 324 324 324 324 323 323 322 321 319 318 317 316 315 315 313 312
311 317 318 316 318 319 319 319 319 319 320 321 322 322 322 322 323 320 320 320 322 323 325 326 325 324 322 322 325 324 324 323 322 319 316 315 313 311 312 311 311 310 312
311 317 317 316 318 319 316 317 318 318 319 321 320 321 321 324 306 312 320 323 324 323 324 324 323 321 318 315 316 316 321 322 318 316 313 314 311 312 309 308 309 309 308
310 315 317 316 318 318 317 317 317 315 314 316 316 317 318 317 304 307 313 324 323 322 324 324 325 324 323 324 313 313 314 313 314 317 314 312 312 312 310 308 308 309 310
310 313 313 314 317 316 315 316 313 311 312 312 312 313 317 315 303 306 312 324 323 323 324 325 324 323 322 322 322 321 318 317 316 318 316 315 314 314 314 313 312 311 312
311 312 311 314 315 314 313 314 311 310 309 310 310 312 314 312 302 302 316 323 322 321 322 323 324 323 307 306 318 313 307 307 302 303 306 301 302 305 311 317 314 313 309
312 312 311 313 316 314 314 313 311 310 309 310 309 309 307 309 299 302 315 319 316 317 317 316 309 317 300 299 313 308 306 304 303 303 301 298 301 301 306 314 314 307 301
314 312 310 311 317 315 314 314 311 310 309 308 308 306 305 308 306 301 305 318 316 312 313 311 310 300 297 297 303 309 307 304 301 305 305 306 305 306 306 304 303 304 303
313 313 310 308 317 317 315 314 313 311 308 307 306 305 305 302 301 299 301 306 306 311 311 310 305 296 296 296 302 299 297 301 304 308 308 308 308 306 303 304 305 305 306
312 312 310 308 312 318 315 314 314 312 310 308 307 305 306 303 299 297 298 298 300 308 310 306 296 294 294 295 294 293 296 303 308 308 307 304 303 302 301 302 303 302 301
310 309 310 309 310 317 318 317 316 314 312 312 309 306 306 304 300 295 299 302 301 304 300 298 296 296 296 295 295 297 301 306 308 307 303 301 300 299 299 298 298 297 298
309 308 307 311 313 316 317 316 318 318 316 315 314 313 308 306 303 298 297 300 304 302 296 295 294 295 295 293 291 293 298 306 306 302 299 298 297 298 297 298 297 298 294
308 307 307 310 314 317 316 308 296 298 302 300 302 310 312 306 299 295 293 294 294 293 296 294 293 294 297 296 295 295 298 303 302 299 297 297 297 297 298 297 296 294 294
310 309 308 311 316 317 316 314 312 303 297 297 296 299 302 306 296 295 293 292 291 294 300 296 295 294 295 296 297 300 302 301 299 299 298 296 297 297 297 297 297 296 293
312 303 309 313 316 317 317 315 316 311 310 306 294 298 295 295 295 295 291 294 293 295 298 298 296 296 293 294 296 300 301 297 298 297 297 297 296 297 297 296 296 295 291
313 311 311 313 316 315 317 316 314 312 310 306 297 293 292 292 293 291 292 302 299 299 300 301 301 300 298 296 296 299 301 300 299 298 296 296 296 297 295 295 294 290 289
315 306 307 313 314 315 315 315 313 311 309 308 303 304 294 296 298 295 295 299 301 302 303 304 303 304 303 302 300 300 299 297 298 298 297 297 297 297 295 293 292 291 290
316 311 306 312 314 315 315 314 314 313 311 308 309 304 293 301 301 300 299 300 302 301 303 307 305 304 305 302 301 301 300 300 299 298 298 297 296 294 294 294 291 290 290
317 314 311 312 313 314 314 314 314 314 313 311 310 303 290 301 302 302 302 303 305 303 303 303 302 304 305 304 303 302 301 299 299 298 297 296 295 294 294 292 290 290 287
317 314 314 313 312 306 309 313 313 313 313 312 311 304 296 300 302 303 303 304 305 305 301 302 304 303 304 303 304 304 302 300 299 298 296 295 295 294 292 290 289 286 284
318 315 314 314 313 312 311 311 312 305 311 311 311 309 303 302 303 304 304 303 304 303 304 304 304 303 303 303 304 302 301 300 299 298 298 296 293 291 291 289 286 284 284
319 316 315 314 312 312 312 312 311 311 311 308 309 309 309 306 303 303 304 302 305 302 301 302 303 302 301 300 299 300 294 291 298 295 297 295 292 291 290 287 286 284 283
318 317 316 315 313 312 312 311 312 312 310 309 308 308 308 308 308 307 304 303 303 302 302 302 300 299 299 297 296 290 289 290 292 291 296 294 291 289 288 286 285 284 283

GFSGL_sfc_thetae_006.txt.gz
Theta_e
317 317 321 320 319 318 319 318 318 318 319 320 322 322 323 323 323 325 325 326 326 326 326 326 325 326 325 326 326 327 324 326 320 323 326 328 327 327 327 326 327 326 324
317 318 321 321 320 318 318 318 318 318 320 321 323 323 323 323 324 325 325 326 326 325 325 325 324 325 325 325 326 324 325 326 323 319 323 324 325 325 324 323 325 324 322
316 316 320 320 318 318 317 318 318 319 320 322 323 323 322 323 322 322 323 324 326 326 326 325 325 325 324 324 325 324 325 325 325 322 321 323 323 324 321 321 319 318 319
314 318 319 319 319 318 319 319 319 320 321 322 323 323 323 324 323 322 323 325 326 326 326 326 326 326 325 324 324 324 324 323 323 322 321 319 320 320 321 320 319 320 318
313 318 318 318 319 319 319 320 320 321 322 323 324 323 324 323 323 322 322 323 325 326 326 326 326 324 321 323 325 324 324 323 322 321 319 318 317 318 320 319 319 317 318
312 318 318 319 320 319 319 319 320 321 321 323 323 324 323 324 305 311 319 322 325 326 323 323 323 320 316 313 315 316 321 323 321 322 320 319 318 320 316 318 316 317 315
312 318 318 319 319 318 319 319 319 319 320 321 320 322 323 320 302 305 311 325 324 325 324 324 325 323 323 321 312 312 313 312 316 322 322 321 319 319 317 315 316 316 317
312 316 317 319 319 318 318 318 316 316 317 317 317 320 320 317 302 303 310 325 324 325 326 326 326 324 322 324 325 324 324 323 323 323 324 323 324 321 322 320 319 318 318
311 314 315 317 318 317 317 316 314 314 314 315 316 320 320 316 300 302 317 325 325 325 326 325 325 324 305 308 324 321 316 314 304 306 306 304 303 305 313 320 319 320 318
312 313 313 317 318 316 316 315 314 314 314 314 314 318 313 318 300 302 316 323 321 321 322 321 311 318 301 304 321 316 314 312 312 308 308 307 308 307 305 323 321 318 310
314 313 312 316 317 317 315 315 314 313 313 312 311 311 315 315 312 300 306 322 320 319 320 318 320 304 299 298 304 315 313 310 304 307 308 309 312 312 312 315 318 314 311
313 313 311 313 318 316 316 315 313 312 311 310 309 309 308 311 304 300 301 308 310 319 318 318 314 298 297 296 304 301 297 303 312 313 312 312 312 311 310 310 311 311 312
313 312 311 311 318 317 316 314 312 312 311 309 310 309 309 307 306 300 299 299 302 316 318 310 297 295 295 298 297 296 297 312 314 314 314 313 311 308 307 307 308 306 305
312 312 310 309 314 317 318 317 314 312 311 310 310 310 310 308 306 305 308 307 301 306 302 302 299 298 297 300 301 300 308 314 315 314 312 308 306 305 304 306 304 303 301
312 312 310 310 312 317 317 316 317 317 313 313 312 312 310 309 308 301 305 309 311 305 301 302 303 303 302 301 301 303 307 312 313 309 307 305 305 304 303 305 304 303 300
310 309 310 311 310 316 316 311 295 300 303 299 300 309 313 305 298 295 294 295 294 294 304 304 304 304 304 302 301 301 305 309 312 308 307 306 305 304 303 302 303 301 296
310 309 308 310 312 314 316 316 314 306 299 299 299 299 301 305 296 295 293 291 292 296 309 305 305 305 306 305 303 302 304 310 308 307 306 305 304 304 301 301 300 298 296
312 302 309 311 313 315 316 317 317 316 315 314 298 301 296 296 295 293 291 293 298 299 305 306 306 305 304 305 305 304 306 306 307 305 304 304 304 302 301 300 297 296 295
311 309 311 312 315 314 317 317 317 317 317 314 304 297 294 293 293 291 292 307 303 302 303 304 306 306 303 302 304 305 307 306 305 304 303 303 303 302 301 299 297 292 291
313 305 307 312 315 316 316 316 316 315 315 314 310 312 299 300 304 302 299 303 306 306 304 304 306 306 304 302 300 302 305 303 302 303 302 302 302 302 300 299 297 296 295
315 310 306 313 315 316 316 316 316 315 315 314 314 309 295 307 309 307 304 303 306 307 307 306 306 306 306 304 303 302 304 304 304 303 301 301 301 299 299 297 296 294 293
316 313 312 313 315 315 316 317 316 316 315 314 314 308 290 306 309 308 308 307 307 309 310 309 308 307 308 307 305 304 303 303 303 302 301 300 298 296 296 294 293 291 290
316 314 312 314 315 309 312 316 316 316 316 315 315 310 301 305 309 309 308 309 309 309 309 307 308 308 310 310 309 308 305 304 303 302 299 298 297 294 293 292 291 289 289
317 315 313 313 313 313 314 314 315 307 315 316 315 313 310 308 308 309 310 310 309 309 310 307 307 308 308 309 309 309 309 307 305 303 300 298 295 292 292 291 289 288 287
317 316 315 314 312 312 313 314 314 315 314 314 313 314 314 311 309 309 310 309 308 308 308 307 307 307 308 308 307 306 294 291 301 297 299 297 294 293 292 290 288 287 285
318 316 316 315 314 314 313 312 313 314 313 313 312 313 315 313 312 309 309 308 307 308 307 307 307 306 305 305 303 292 289 290 293 294 297 296 294 292 291 289 287 286 285

GFSGL_sfc_thetae_009.txt.gz
Theta_e
328 330 331 330 329 329 329 328 328 329 329 328 329 330 332 332 332 330 330 329 329 330 330 328 328 332 332 332 334 331 327 325 320 322 326 328 327 327 327 328 329 328 326
329 329 331 331 330 329 328 328 328 328 329 328 330 329 330 331 329 328 326 327 327 327 326 326 326 327 328 333 330 331 329 327 323 320 323 324 325 326 326 326 327 327 327
328 329 331 331 330 330 328 328 328 328 329 329 330 330 330 330 331 331 328 328 328 328 328 326 327 326 329 331 330 329 327 326 325 323 322 324 324 324 324 324 324 323 325
326 328 330 330 330 329 328 329 328 329 329 330 331 330 331 330 329 330 328 329 330 329 328 329 328 328 331 330 328 330 330 327 324 322 322 321 321 322 322 319 317 322 320
325 328 329 330 330 329 329 329 329 330 330 331 331 331 332 331 329 329 327 329 330 329 329 329 331 327 322 324 329 326 326 325 323 321 320 319 318 319 319 323 322 322 323
325 328 328 329 328 329 329 329 329 329 331 331 330 330 331 329 305 313 323 327 330 330 330 327 326 321 317 314 315 316 323 325 322 321 320 319 321 325 325 323 321 320 317
324 327 327 328 327 327 328 328 328 329 331 331 330 331 331 329 302 305 313 328 329 328 331 328 327 328 327 329 313 312 312 311 317 330 328 325 326 328 327 326 324 324 323
323 326 326 327 326 327 328 328 329 329 330 330 330 331 330 326 301 303 309 328 328 328 331 330 329 331 328 330 330 329 329 328 329 332 335 334 334 333 331 328 327 328 328
321 326 326 327 326 327 327 328 327 328 328 327 328 329 330 323 301 303 318 326 327 328 332 331 328 330 305 309 330 328 328 325 308 304 306 307 306 309 318 325 322 324 323
321 324 326 328 327 328 329 328 327 328 327 325 327 331 319 322 299 303 320 327 325 326 329 329 311 321 301 306 332 330 327 325 326 326 326 317 316 313 308 332 328 325 325
323 323 325 327 329 330 331 328 326 326 325 326 325 326 329 326 317 300 308 325 326 327 326 328 328 300 300 303 308 327 324 324 316 328 326 325 326 325 325 329 332 329 324
324 322 324 327 328 327 330 328 326 327 324 323 323 324 325 328 310 300 300 310 314 327 327 328 325 300 299 299 309 296 297 310 322 321 321 322 323 321 321 323 324 324 325
323 323 323 325 326 328 328 327 323 325 323 322 321 321 322 324 327 302 300 301 305 326 328 313 298 296 296 302 298 295 298 320 323 323 321 319 320 319 319 318 318 316 314
323 324 323 322 325 327 327 327 325 322 322 320 320 321 321 321 325 327 324 318 303 316 306 311 305 305 300 309 310 309 322 322 322 322 322 321 318 317 315 314 311 309 306
324 323 322 322 323 326 327 326 325 327 321 322 321 321 322 321 321 316 319 325 326 316 314 316 317 319 319 319 319 319 319 320 322 323 321 317 315 314 313 314 312 311 309
323 322 321 320 320 324 325 322 296 302 302 299 302 314 321 307 298 297 298 299 296 296 317 318 318 318 318 318 317 317 317 314 322 321 320 317 315 313 312 313 313 312 308
324 324 321 317 319 320 324 324 323 311 301 299 300 300 302 306 295 294 293 293 293 297 321 320 320 319 318 317 317 317 317 320 323 321 319 318 316 315 309 311 311 309 306
326 307 322 320 320 319 321 322 323 323 323 323 301 306 297 297 295 293 291 297 307 306 320 321 320 321 321 320 319 317 317 318 320 320 319 317 316 313 311 310 309 306 303
323 319 322 321 321 318 321 321 321 322 323 324 325 303 301 294 292 291 292 316 316 315 316 317 318 319 319 319 319 319 318 317 317 318 317 316 315 314 312 311 308 296 296
322 310 314 321 320 320 320 321 321 321 321 322 322 323 317 308 316 315 310 315 320 319 317 316 316 316 316 317 317 316 317 315 314 316 316 315 314 313 312 309 305 298 295
321 318 311 320 320 320 320 320 321 321 321 321 322 320 303 320 323 323 320 319 320 321 321 320 319 317 316 315 314 314 314 315 315 315 315 314 313 311 310 306 300 297 295
322 321 317 319 321 321 323 322 322 321 321 321 322 319 293 317 324 323 322 321 321 322 323 322 321 320 319 317 315 313 312 313 313 314 313 312 310 309 304 300 299 297 294
322 321 318 320 321 314 320 322 322 322 321 322 322 321 312 317 321 322 322 322 322 322 323 323 322 321 321 320 319 317 314 313 314 314 311 309 308 306 303 301 298 294 292
323 322 320 319 320 321 321 322 323 312 321 322 323 322 321 318 320 322 322 323 322 321 321 321 320 320 320 320 320 319 318 316 315 312 311 309 306 301 303 300 296 293 290
322 322 321 321 320 320 321 321 322 324 322 323 323 323 323 322 321 321 322 322 322 321 321 321 320 319 319 319 319 318 308 292 310 302 310 309 303 303 301 299 294 290 288
323 323 323 321 320 320 321 321 322 323 322 322 323 323 324 324 323 322 322 321 320 320 320 320 319 319 318 317 317 304 290 291 299 295 309 306 301 298 299 295 291 289 288

GFSGL_sfc_thetae_012.txt.gz
Theta_e
334 335 335 335 335 334 333 332 333 333 333 331 332 334 333 334 335 333 332 331 331 332 331 333 332 334 333 333 337 335 331 329 321 322 323 324 324 326 327 326 328 328 325
332 333 334 335 335 334 332 332 332 332 332 330 331 332 332 332 335 330 329 328 329 330 331 329 328 332 334 335 334 331 330 327 322 319 322 324 324 326 326 326 327 328 327
332 332 334 334 334 334 332 333 332 331 330 329 330 329 332 331 332 332 330 328 328 330 329 326 327 329 332 335 334 329 326 326 324 321 320 324 324 326 324 324 324 326 327
330 331 332 332 334 333 333 332 331 331 330 331 332 332 332 331 333 331 330 331 331 331 330 328 327 329 334 332 332 330 328 326 325 322 321 321 322 323 323 320 318 322 323
328 330 332 335 334 333 332 332 332 332 332 332 332 333 333 332 332 332 330 333 333 330 330 330 332 328 324 329 333 332 332 327 325 320 319 319 319 321 319 321 318 320 322
328 329 331 332 331 332 332 332 333 332 333 333 332 332 333 329 311 315 325 332 334 333 328 330 329 323 320 315 316 315 326 328 323 321 319 318 318 318 319 320 322 319 317
327 329 330 330 329 330 331 331 332 333 334 333 333 333 332 331 306 308 315 332 335 333 329 328 327 326 328 329 312 312 312 312 318 325 320 320 320 325 324 326 325 324 322
326 328 329 329 329 330 330 331 333 334 334 334 334 334 333 326 303 303 309 333 334 333 335 334 332 331 331 331 330 328 327 327 329 327 325 328 334 335 334 331 332 333 330
324 328 329 329 330 331 331 333 334 334 334 332 334 334 333 329 302 303 317 329 333 332 333 334 334 333 308 309 330 328 327 322 307 308 311 308 308 313 322 327 328 325 323
324 328 330 330 330 330 332 332 335 334 332 331 332 334 322 331 301 302 318 329 330 330 333 331 309 324 304 307 334 332 329 328 327 326 325 318 322 319 310 336 330 325 329
324 328 330 331 332 333 334 333 333 332 332 332 333 333 332 325 324 301 309 330 330 330 329 328 326 299 302 305 312 334 328 330 324 330 330 331 332 330 330 335 335 332 329
324 326 328 332 331 332 335 333 332 331 332 331 332 332 332 332 314 302 303 313 317 331 330 330 323 298 300 301 310 299 305 317 331 329 329 328 327 328 330 333 336 335 333
324 324 327 329 331 333 333 332 329 330 326 329 329 328 330 332 328 301 302 304 308 332 333 310 299 297 299 305 297 297 299 330 330 329 328 329 330 331 332 330 329 326 324
325 325 326 326 330 332 331 331 328 326 324 323 326 328 329 330 330 330 326 323 307 323 309 321 313 310 301 313 314 311 324 326 328 328 324 324 325 324 323 323 320 318 314
325 325 325 325 327 331 330 330 328 330 323 322 324 326 328 328 329 321 323 330 331 322 324 326 327 328 328 327 327 326 326 325 324 326 325 324 323 323 321 322 319 317 313
325 325 324 322 324 326 329 329 297 304 303 303 305 313 324 308 303 303 304 303 298 301 325 327 325 325 325 325 324 324 324 319 324 326 325 323 321 320 320 320 319 319 317
327 327 324 318 322 322 323 327 326 316 303 300 301 302 303 306 298 298 296 295 295 300 323 324 323 322 322 323 323 323 322 323 326 325 324 324 322 321 317 319 319 319 317
328 309 326 323 322 321 323 323 324 324 324 325 303 307 299 296 294 293 293 299 315 311 322 321 320 321 321 320 320 320 321 322 324 324 324 324 324 321 318 318 318 316 314
326 324 325 324 323 319 322 323 323 322 322 322 324 306 302 294 292 291 293 323 323 322 323 322 323 322 323 323 322 321 320 320 321 324 324 324 323 321 319 318 317 304 304
327 313 316 324 323 322 322 322 321 322 323 323 323 324 325 313 320 318 314 319 322 321 322 322 323 323 323 323 323 322 321 321 321 322 323 323 323 322 319 318 317 310 306
328 326 316 324 323 323 321 321 321 321 321 322 323 322 305 325 325 325 324 323 325 324 324 323 322 321 320 320 321 321 321 321 321 321 321 322 322 320 320 319 316 308 306
328 328 324 324 324 323 323 321 322 322 322 322 323 320 296 325 324 324 326 325 324 325 326 326 324 323 322 321 319 319 318 319 320 321 320 320 320 320 319 318 314 308 303
328 328 326 325 325 316 323 323 322 322 322 322 323 322 321 324 324 324 326 327 327 326 325 325 325 324 324 324 323 321 319 317 318 320 320 320 319 318 317 315 310 306 299
328 328 327 325 325 325 325 325 325 313 322 322 322 322 324 325 325 325 325 328 328 328 327 325 325 325 325 325 325 325 325 324 323 320 320 319 318 312 315 311 308 305 299
328 328 328 327 325 325 326 326 326 326 325 325 324 324 325 325 326 326 326 327 328 328 328 327 326 326 327 327 326 326 315 294 316 310 321 320 318 316 313 309 305 300 298
327 328 328 328 327 326 325 326 326 327 327 327 327 327 327 327 327 327 327 327 327 327 328 328 327 327 326 326 326 312 292 292 306 292 318 319 316 314 311 307 302 296 295

GFSGL_sfc_thetae_015.txt.gz
Theta_e
334 334 336 335 335 335 334 333 335 334 335 331 331 333 333 334 335 336 334 332 332 333 332 330 331 333 336 339 334 334 331 330 318 319 323 324 322 322 323 323 325 323 323
332 333 334 334 335 335 334 332 334 333 333 330 331 330 331 333 335 332 330 330 331 330 332 330 328 332 334 335 334 331 331 327 320 316 320 321 322 323 322 324 325 326 325
332 332 334 333 335 335 333 334 332 331 330 330 330 329 331 332 332 332 331 329 332 330 327 327 329 329 332 332 330 328 327 324 321 318 318 322 323 322 322 324 324 324 327
330 331 333 334 335 335 335 333 331 330 329 330 331 331 331 332 332 332 333 332 331 329 328 328 328 329 331 330 329 327 325 321 321 321 320 320 321 323 321 319 319 322 322
329 330 333 334 334 332 332 331 331 330 330 332 332 331 332 333 330 332 333 334 333 333 332 329 330 327 324 329 328 327 325 322 322 320 319 319 318 319 317 319 317 319 322
328 330 332 332 331 332 332 331 331 331 332 333 331 332 332 328 310 313 323 333 333 332 329 328 331 325 318 314 317 319 325 325 322 320 319 318 318 317 316 316 317 315 314
328 330 330 330 330 330 331 331 331 335 337 334 334 333 332 330 308 308 310 334 335 333 332 330 330 331 328 327 313 312 313 313 317 323 319 319 317 317 315 318 322 322 321
328 329 330 329 329 330 331 331 333 338 335 334 334 334 333 326 305 305 306 335 335 333 333 333 333 333 330 328 329 326 325 324 324 324 323 322 320 318 326 329 327 332 329
328 329 329 330 330 331 331 332 334 337 337 336 336 334 332 329 304 303 314 334 333 331 332 335 334 332 308 310 327 324 321 319 312 312 314 312 309 310 321 329 324 326 322
328 329 330 331 331 331 333 334 335 335 333 334 334 334 323 330 303 302 314 333 333 333 334 329 309 324 306 309 330 324 321 322 323 325 326 317 316 321 311 334 331 326 327
329 330 331 332 332 334 334 335 335 334 333 335 333 334 333 330 323 303 306 331 333 331 329 330 326 301 303 307 316 331 326 327 321 328 329 329 331 333 329 333 335 326 326
327 330 332 333 332 333 334 332 332 333 334 334 333 331 331 332 314 304 303 311 317 329 328 330 320 299 303 308 319 303 303 317 331 330 330 330 329 324 327 334 340 340 336
326 330 332 333 333 334 334 331 328 331 330 332 330 332 329 330 328 304 306 306 310 334 333 313 300 298 298 305 301 304 305 330 328 327 326 326 328 330 337 337 336 332 331
325 328 330 331 331 333 331 330 326 326 327 328 327 328 330 329 329 330 330 325 309 321 310 317 315 311 305 311 313 313 329 329 328 328 330 330 332 332 331 332 327 323 320
326 326 328 329 331 331 331 328 328 330 322 325 328 329 329 329 329 321 322 330 332 325 328 329 328 329 328 323 323 325 327 329 328 331 326 325 326 327 326 326 323 320 316
327 325 325 326 328 330 328 329 298 304 303 305 302 314 326 310 305 303 304 304 301 305 326 326 326 326 326 326 325 324 325 321 326 326 326 325 322 322 322 322 322 319 317
330 330 325 321 325 327 329 328 326 317 303 304 303 300 303 309 302 300 297 297 298 304 328 327 326 326 326 325 325 325 323 325 329 325 326 325 322 322 318 320 319 319 319
331 309 326 323 323 323 326 328 329 327 325 325 305 307 299 298 298 297 296 303 320 314 326 326 326 325 326 326 326 325 324 326 325 325 326 325 325 322 320 319 319 319 319
327 325 326 324 323 320 323 324 327 327 327 326 325 306 300 294 293 293 296 323 321 320 320 321 323 323 323 323 324 323 325 325 325 326 326 326 326 324 323 320 319 306 310
328 313 317 325 323 322 322 323 322 322 323 323 323 323 321 311 316 316 318 323 322 322 321 320 321 323 323 322 323 323 322 322 322 324 325 326 326 326 323 322 320 318 317
326 327 316 323 323 322 321 321 322 322 322 322 322 321 308 322 323 322 320 320 320 322 324 324 323 323 323 325 325 324 324 324 324 323 323 324 326 323 325 324 322 321 319
328 328 326 324 323 323 322 322 322 322 322 322 323 320 298 325 323 323 325 325 323 325 325 326 324 324 324 323 324 324 324 324 325 325 324 322 323 324 324 323 321 320 316
329 329 328 327 326 316 324 323 321 322 322 322 322 322 322 326 325 324 326 328 329 327 326 326 327 326 326 327 327 325 322 322 324 326 325 324 323 323 323 322 320 319 313
330 329 330 328 327 325 326 327 324 312 321 322 324 323 325 326 326 326 326 328 330 331 331 329 328 326 328 329 327 326 325 325 324 323 323 323 323 319 322 321 319 318 311
329 331 332 332 328 328 327 327 327 328 325 325 325 325 324 327 327 327 328 328 329 331 331 332 331 328 327 327 327 326 317 294 317 309 323 323 322 323 320 319 318 315 307
328 329 332 331 331 329 329 330 329 330 328 328 328 328 328 327 326 329 330 330 329 329 332 332 332 331 329 327 327 314 295 292 308 294 323 325 322 321 320 318 316 310 300

GFSGL_sfc_thetae_018.txt.gz
Theta_e
336 337 335 335 333 332 335 332 335 336 331 333 334 333 333 334 333 333 331 332 331 331 329 327 328 329 329 330 331 329 328 323 316 318 321 322 322 323 324 325 325 324 321
334 335 333 334 334 335 334 331 335 331 335 331 330 330 333 333 334 332 330 331 328 326 328 327 326 328 327 328 329 327 323 322 319 315 318 319 319 322 323 322 323 325 322
332 332 333 333 336 336 334 332 332 332 333 331 328 331 332 332 333 331 331 331 327 327 324 325 325 326 328 329 327 325 323 322 321 318 317 320 320 322 322 322 321 321 324
331 330 332 334 335 335 332 333 334 333 332 329 331 332 332 333 332 331 332 331 328 326 326 327 326 327 328 326 325 323 322 320 320 318 318 317 318 321 321 319 319 321 321
330 332 333 334 335 333 331 334 332 333 330 330 330 331 332 332 326 329 331 331 329 326 328 328 324 325 324 323 324 321 320 319 318 319 318 318 317 317 316 318 317 319 318
331 331 331 332 332 331 332 334 333 331 331 330 329 331 331 325 308 312 322 330 331 329 326 327 322 320 318 315 315 316 320 320 320 319 318 316 316 316 316 315 316 315 314
330 330 331 331 330 331 331 330 331 331 332 331 331 331 329 324 304 304 308 333 331 331 328 329 327 324 323 322 311 312 312 312 316 321 318 317 315 315 317 315 312 313 314
329 327 328 328 328 330 330 331 333 333 333 333 332 333 329 320 307 303 305 332 332 330 331 330 329 327 324 325 324 322 322 322 322 323 321 319 318 317 318 316 317 321 321
328 329 328 328 329 328 329 330 333 334 333 333 334 332 328 325 306 302 317 331 331 331 331 331 329 326 308 309 324 321 321 320 311 310 309 307 304 306 314 322 320 319 316
328 328 329 330 330 330 333 334 335 335 335 333 331 333 320 326 304 302 317 331 329 329 328 322 311 320 307 309 323 321 319 320 322 321 317 311 308 311 307 321 324 319 318
329 330 331 332 335 336 336 336 336 330 332 333 331 332 331 327 318 304 307 332 330 328 327 325 316 304 302 307 312 323 320 322 316 322 322 324 321 319 319 323 327 324 319
330 330 332 334 331 333 336 337 335 332 331 331 330 329 330 329 313 305 303 309 315 328 326 324 311 302 304 306 315 303 304 315 324 324 323 323 323 325 327 327 328 326 328
330 332 332 333 334 334 333 334 331 334 331 330 329 327 327 327 325 304 305 311 311 327 328 309 297 298 301 306 302 303 305 325 325 324 323 324 326 324 323 328 328 327 325
330 333 333 332 333 334 331 330 328 330 328 330 328 328 327 326 326 328 323 321 311 316 309 313 311 310 310 312 311 310 326 328 326 325 326 327 326 322 327 330 323 322 316
330 332 333 332 334 333 333 328 329 329 324 328 329 329 328 326 326 320 322 329 327 320 322 323 324 320 321 323 325 326 327 328 324 326 323 323 324 327 327 328 323 318 312
328 329 329 330 330 331 329 325 298 303 301 299 299 322 327 314 304 306 306 305 304 305 324 324 324 324 320 320 320 321 324 322 326 324 325 324 324 325 324 323 320 316 313
327 328 327 324 328 329 328 328 325 312 300 299 301 306 309 310 303 303 300 299 301 306 326 325 325 325 324 322 322 322 322 322 324 325 324 322 321 321 313 319 319 317 314
329 312 327 325 327 327 329 328 328 325 323 322 305 309 303 300 299 298 297 305 317 314 326 326 325 326 326 325 324 324 323 324 323 323 325 324 321 320 318 318 317 315 314
328 326 326 326 325 322 326 329 328 327 326 325 317 308 298 295 295 296 298 326 324 324 324 325 327 326 326 326 326 325 324 323 322 321 322 323 323 320 318 318 317 306 308
329 314 317 326 323 324 322 324 325 327 327 325 323 320 313 309 317 319 319 325 322 321 321 321 322 323 324 324 323 323 323 319 321 323 321 322 323 322 320 319 318 315 313
327 326 314 324 325 322 322 321 322 323 325 326 325 321 304 317 318 319 320 321 321 321 320 320 319 319 320 323 322 321 319 319 319 319 321 322 322 321 321 320 319 317 315
326 326 324 323 323 323 322 322 323 323 322 322 323 318 297 319 321 320 320 320 321 323 323 324 323 322 321 321 322 323 322 321 321 320 318 318 320 320 320 319 318 317 314
327 327 326 324 324 316 321 322 321 322 322 322 323 319 315 320 322 322 322 323 322 321 322 322 322 323 324 324 323 323 322 322 322 323 321 320 319 318 318 318 317 316 311
328 328 328 325 324 324 324 322 322 312 321 321 322 322 320 322 324 323 323 324 326 325 324 323 323 323 324 325 325 324 323 322 321 322 323 321 320 314 318 317 317 316 310
330 329 329 329 326 324 324 325 323 323 321 321 322 322 324 324 325 325 326 324 325 325 327 325 325 324 324 325 325 325 314 295 316 309 320 319 319 319 318 317 316 312 300
330 330 330 329 331 327 325 325 326 324 324 322 322 324 323 324 325 325 325 325 324 324 327 327 328 327 327 325 325 312 296 293 300 294 318 319 318 315 314 315 312 303 299

GFSGL_sfc_thetae_021.txt.gz
Theta_e
328 326 327 328 328 325 325 327 324 323 327 325 326 327 328 326 326 324 323 325 326 326 323 322 322 323 322 323 323 323 320 319 316 318 321 323 323 323 324 324 324 323 322
328 327 328 328 325 325 324 325 324 321 322 324 326 330 328 328 325 324 325 327 326 323 324 324 321 325 324 325 325 320 320 320 318 315 319 320 321 323 323 322 322 323 320
329 328 328 328 325 324 324 327 323 322 325 326 326 326 327 327 326 325 325 327 326 323 323 322 321 324 324 326 323 321 321 321 320 317 316 320 321 322 321 321 319 318 319
328 327 328 325 325 325 325 324 327 324 324 326 328 328 329 327 327 329 329 327 325 323 322 324 324 326 324 323 323 322 321 319 319 317 317 318 319 320 320 318 317 319 318
328 328 328 326 326 325 325 323 325 325 323 327 327 326 324 322 321 325 328 326 324 323 324 324 324 325 323 322 323 321 320 319 318 317 316 317 317 317 316 318 316 318 319
327 328 329 329 328 327 326 327 321 324 326 326 327 324 320 320 305 309 319 326 325 325 323 321 322 319 316 314 315 316 319 320 317 317 316 316 316 316 318 317 316 314 312
327 329 330 328 326 327 327 322 323 324 327 325 324 320 317 313 302 303 309 325 326 324 325 325 324 321 319 318 311 312 311 311 316 319 317 316 316 317 317 315 316 313 314
327 327 326 326 324 325 326 324 324 322 322 322 324 320 317 313 303 302 312 325 324 324 324 325 324 321 320 322 321 321 321 321 321 322 320 319 318 318 318 316 313 313 316
325 323 324 325 323 326 326 323 323 323 323 322 324 320 317 313 304 301 319 324 324 324 326 326 324 322 307 308 322 321 320 318 310 308 308 306 303 307 313 315 315 313 311
325 324 325 325 326 326 327 323 323 324 325 328 325 322 315 315 305 301 318 326 323 322 321 320 311 317 303 306 322 320 318 318 318 316 314 309 309 309 309 314 316 312 313
326 326 325 325 327 326 325 324 325 325 325 324 323 321 320 317 311 302 309 325 324 322 320 319 316 303 302 304 311 321 318 319 314 317 315 312 311 311 312 314 318 317 313
324 326 327 327 330 328 324 324 325 324 322 321 321 320 321 318 309 302 302 314 316 322 320 317 310 300 300 302 312 300 303 312 319 318 318 314 312 312 315 318 320 321 320
323 326 326 326 326 325 324 323 324 323 323 322 321 320 318 318 313 304 304 310 310 320 319 309 300 300 300 301 299 301 306 320 318 317 315 316 318 319 319 320 320 321 318
325 325 325 326 324 324 324 324 324 323 323 323 322 320 318 318 318 317 314 314 307 309 303 304 307 309 308 309 309 311 322 321 321 319 317 318 320 318 316 320 317 315 310
325 325 323 326 325 323 319 316 321 319 326 326 325 323 320 318 320 315 317 320 319 313 312 314 313 315 315 316 317 318 320 322 321 320 319 320 321 317 319 320 317 313 308
325 325 324 325 326 324 315 311 298 298 302 309 310 319 322 313 304 305 306 305 303 303 317 317 315 314 318 318 318 318 320 318 321 321 321 321 320 318 320 321 316 312 307
323 324 323 322 324 322 319 315 310 308 301 297 301 307 309 308 302 302 300 301 300 305 317 317 317 315 317 317 318 319 320 321 319 322 321 320 320 322 315 322 318 313 309
321 310 322 320 322 321 321 321 317 313 311 310 303 304 301 301 302 300 296 302 311 310 319 318 318 318 317 316 317 317 317 316 316 317 318 321 322 322 318 318 318 314 310
321 320 320 320 321 320 322 320 321 317 316 313 307 304 297 295 296 296 298 320 320 319 317 319 320 320 319 320 319 319 317 316 315 314 316 317 318 316 315 315 315 305 304
321 312 314 319 317 320 319 322 320 320 319 314 311 313 304 304 308 308 309 320 320 321 321 320 319 318 322 321 320 320 318 314 316 317 314 316 318 317 314 314 314 312 309
322 315 313 318 317 315 318 315 319 322 321 319 315 313 301 316 316 316 316 318 321 321 321 320 320 318 314 316 320 319 319 319 317 318 318 316 316 316 315 314 313 312 308
323 321 317 319 317 316 314 315 315 316 322 321 319 313 294 319 318 318 319 319 321 320 315 317 317 316 314 312 313 316 317 315 313 315 317 318 317 316 315 314 314 311 303
321 321 319 319 318 311 312 315 315 315 315 319 322 318 307 315 315 316 317 318 319 319 319 318 315 316 317 316 314 316 316 316 316 316 314 314 316 316 315 313 313 309 301
323 318 320 319 319 317 317 314 314 308 315 315 315 316 313 314 316 316 317 317 316 317 318 318 318 318 316 316 319 319 318 317 318 319 317 315 313 308 314 311 311 309 302
324 323 322 319 319 317 316 315 315 314 315 316 314 314 315 316 317 318 319 319 319 318 317 317 318 317 316 316 317 318 310 295 312 307 318 316 315 313 313 312 310 306 296
317 324 324 322 320 319 318 317 317 316 315 316 315 314 316 317 318 319 320 319 319 320 321 321 320 319 319 319 318 309 296 295 299 295 314 316 315 314 313 312 309 303 296

GFSGL_sfc_thetae_024.txt.gz
Theta_e
324 324 324 324 324 323 322 322 322 321 322 323 324 325 325 324 323 322 324 325 325 324 323 321 321 321 320 321 322 321 319 318 316 318 322 323 324 325 325 325 325 322 321
324 323 323 323 322 322 322 322 321 320 322 323 324 327 326 326 324 323 325 326 322 323 322 321 319 324 321 321 318 319 319 318 318 316 319 320 320 321 322 321 321 322 321
325 324 326 325 322 321 322 322 320 319 321 326 322 325 325 325 324 324 326 326 323 322 322 321 319 321 324 322 321 320 319 320 320 318 317 320 320 320 319 319 318 319 321
326 327 324 323 322 321 322 321 320 320 324 324 326 328 326 325 326 328 328 326 323 322 321 321 321 324 323 322 321 320 320 319 319 318 317 318 319 318 317 314 313 317 317
326 327 325 325 323 322 322 321 326 324 325 326 327 323 321 321 319 321 325 323 322 321 322 324 325 324 322 321 322 320 319 318 318 317 316 316 316 315 314 316 313 314 314
326 326 327 327 324 324 321 320 321 321 323 325 323 320 318 318 303 307 319 322 323 322 320 322 322 319 316 313 314 315 319 319 317 317 316 315 316 316 316 315 314 311 309
327 329 328 325 324 323 324 322 319 324 323 325 319 316 315 313 302 302 312 323 321 322 323 322 321 319 318 317 310 310 311 311 315 319 317 317 316 317 318 316 316 314 313
327 329 326 323 322 322 321 318 319 320 320 320 317 316 314 314 302 302 310 322 321 324 324 322 320 320 319 321 320 319 320 319 320 321 320 319 319 320 319 318 315 315 315
325 325 325 323 321 323 323 319 319 320 318 319 318 316 315 313 301 303 316 321 321 324 325 323 322 320 304 307 321 318 317 315 307 305 305 304 303 305 313 317 314 313 311
325 323 324 323 323 323 324 320 320 320 322 322 319 317 312 315 300 302 316 323 321 322 323 319 309 314 301 306 320 319 316 316 316 314 314 308 309 306 307 315 315 311 309
324 325 322 322 322 322 321 320 321 321 321 322 319 316 315 314 310 302 308 321 322 322 321 319 315 300 300 303 309 319 315 316 310 314 314 314 314 314 312 315 312 314 312
324 323 322 323 325 324 321 322 322 321 319 318 317 316 316 315 305 300 303 310 312 322 320 319 310 298 300 301 310 298 301 310 316 313 312 310 310 310 311 313 316 316 316
322 322 322 324 324 322 321 321 320 319 318 317 317 317 315 315 314 301 301 303 306 317 318 311 299 298 298 301 299 300 305 317 316 313 311 310 312 312 311 314 317 317 314
322 323 323 323 321 321 322 322 321 319 318 319 318 315 315 315 316 314 312 311 305 309 305 308 305 306 303 306 307 309 319 317 316 315 314 313 315 314 312 315 315 312 311
323 323 323 322 321 319 316 317 322 322 321 321 320 318 316 315 317 310 313 316 314 309 309 313 316 317 315 315 316 315 317 317 316 315 314 314 316 316 314 315 315 310 310
321 323 323 322 320 318 312 308 298 300 300 305 309 315 319 310 302 302 303 301 299 300 313 314 312 314 316 317 316 315 315 314 317 316 315 316 317 316 315 316 314 311 309
322 322 323 321 322 317 313 311 309 306 297 298 300 303 307 306 300 299 300 298 298 305 314 313 314 316 316 316 316 316 316 318 317 320 319 318 319 316 309 318 318 313 309
322 310 324 324 324 320 316 312 310 310 312 313 300 301 299 299 298 297 297 300 309 309 315 315 314 314 316 318 317 317 318 318 317 319 319 319 320 319 317 317 318 317 315
323 322 323 323 323 321 319 315 312 310 310 311 307 303 296 293 295 294 298 318 316 315 315 316 317 317 316 317 318 318 319 318 317 317 318 319 319 319 319 319 318 307 307
323 313 315 320 319 319 320 319 316 313 311 310 312 318 303 305 308 307 307 316 319 318 319 318 318 318 319 317 317 316 316 313 313 314 315 317 318 319 319 318 318 316 312
321 317 314 320 318 319 318 320 320 318 315 312 313 312 299 317 316 317 315 315 319 321 321 320 320 318 317 318 319 318 317 317 316 315 315 315 317 316 318 318 317 315 314
319 318 318 319 318 317 317 317 319 320 318 316 313 311 292 317 318 318 319 318 320 321 322 322 321 321 320 318 316 318 319 319 318 317 317 316 314 315 316 315 314 312 310
317 317 318 318 318 310 311 316 315 317 320 320 318 314 306 314 318 318 318 319 320 321 321 319 321 321 320 318 316 317 316 317 318 318 317 317 316 315 314 314 314 310 305
321 318 316 315 315 314 314 311 313 306 315 320 320 318 310 313 318 318 319 320 320 320 321 321 319 318 319 317 316 314 315 315 316 316 316 316 316 312 316 314 314 311 309
312 320 321 316 314 313 313 313 313 313 313 314 319 320 316 314 316 317 317 317 318 318 318 319 320 319 317 316 317 316 309 295 310 306 316 315 313 312 313 314 313 307 299
312 316 318 321 321 316 313 313 313 314 313 314 315 316 318 316 316 316 316 316 316 315 316 316 316 316 316 316 316 309 298 296 298 294 314 316 314 313 312 310 309 307 301

GFSGL_sfc_thetae_027.txt.gz
Theta_e
323 323 322 322 322 321 321 321 320 319 321 321 322 323 324 323 322 320 322 324 324 323 323 319 319 319 318 319 319 316 315 314 315 318 321 325 326 325 325 325 325 324 322
323 322 321 321 320 319 320 320 320 319 321 321 322 324 325 324 322 321 322 325 323 322 322 320 318 320 317 318 319 317 316 316 318 315 319 319 321 323 323 321 322 323 321
322 321 320 320 319 319 320 320 318 318 319 320 321 321 324 324 323 323 325 325 322 322 321 321 318 320 322 320 319 319 319 320 321 318 316 319 319 320 318 319 319 319 320
322 321 320 319 319 319 320 319 317 318 319 322 324 326 325 324 324 327 327 325 322 321 321 321 320 323 321 321 320 320 320 319 319 317 316 316 316 317 318 315 314 317 316
322 321 320 323 321 320 320 318 319 319 323 326 326 322 321 320 316 320 325 321 321 321 322 324 324 324 321 320 320 320 319 318 318 317 315 314 313 314 313 315 313 313 314
322 325 325 325 321 319 319 319 319 320 323 325 321 320 317 317 301 309 318 322 323 321 321 322 321 319 316 313 314 315 318 319 317 316 315 312 313 314 315 314 312 310 308
326 326 326 323 321 321 320 318 317 321 323 323 318 316 314 314 300 305 310 321 320 322 322 321 321 319 319 318 310 310 311 310 315 318 316 315 314 315 315 313 313 312 310
326 326 324 322 321 320 320 317 318 320 323 319 314 314 313 313 300 303 309 321 323 323 322 321 320 319 318 319 320 319 319 319 319 320 320 318 319 319 318 316 315 312 312
326 324 323 321 319 319 316 316 316 316 316 315 315 314 314 314 300 303 314 323 323 322 321 322 321 319 303 306 318 315 315 312 308 306 305 305 303 305 313 317 312 310 309
324 324 322 320 319 319 318 317 317 317 317 319 316 315 311 316 300 303 314 323 322 320 320 317 307 311 301 305 319 316 314 315 316 316 314 309 311 307 308 317 314 310 309
324 326 321 320 320 320 319 318 319 318 320 318 316 314 314 313 311 302 306 322 322 320 319 317 312 299 300 301 308 318 314 316 311 316 316 314 314 312 313 312 312 313 309
323 322 320 319 322 321 319 319 320 318 317 315 314 314 314 318 304 300 301 309 313 321 319 318 309 297 298 298 306 298 301 308 315 315 313 312 309 308 311 312 312 313 312
320 319 318 320 321 320 319 318 318 317 316 315 316 316 315 317 314 299 299 299 303 316 320 310 297 295 297 299 297 299 305 314 312 312 312 309 310 310 310 311 312 312 310
319 318 319 320 318 319 320 319 318 316 316 316 316 315 313 314 314 314 312 309 304 308 305 307 305 303 302 303 306 309 316 315 313 312 310 309 310 308 309 311 312 311 310
320 320 320 319 319 318 316 316 319 318 317 318 316 315 314 314 315 309 311 314 314 309 311 314 317 316 314 315 316 314 314 314 313 311 312 311 310 310 309 311 312 309 309
319 320 319 319 318 317 313 310 298 300 301 305 305 312 316 306 298 297 298 299 297 299 316 317 317 317 316 316 316 316 313 312 313 313 312 313 313 313 311 312 312 310 309
321 320 319 318 318 314 312 312 312 305 296 298 298 302 306 304 295 296 296 296 297 304 314 317 316 317 317 317 317 317 314 316 314 316 314 313 314 314 310 313 313 311 309
321 309 321 320 319 315 313 312 311 310 311 312 297 301 298 296 295 294 294 299 308 307 315 315 315 315 317 317 316 315 314 314 313 314 315 315 315 315 312 313 315 315 314
319 320 322 322 321 317 314 311 310 310 312 312 307 301 295 292 292 292 294 312 313 313 312 314 315 315 316 316 316 316 315 315 316 316 315 316 317 317 316 316 316 304 307
319 311 315 322 319 318 315 312 310 309 309 311 311 312 304 305 308 307 308 312 313 313 313 315 315 315 315 316 316 316 316 312 314 317 317 317 318 318 318 317 317 316 312
320 317 312 321 319 320 319 316 314 311 310 309 311 311 297 316 315 316 312 313 316 316 315 316 315 316 316 315 316 316 316 316 316 316 316 316 316 316 317 318 317 317 317
318 319 317 319 320 320 319 319 318 315 313 312 310 308 291 310 317 317 317 317 318 320 321 319 319 318 318 318 318 316 315 315 314 314 314 314 313 315 316 316 315 315 314
315 316 317 318 318 311 313 316 318 318 317 316 314 309 303 311 317 318 318 319 319 319 320 320 321 320 320 320 320 320 319 319 319 318 316 315 314 313 314 314 314 313 310
319 319 314 314 314 313 313 314 314 308 317 318 317 314 309 311 315 318 318 319 319 320 320 320 321 321 321 320 320 319 320 320 319 319 318 318 316 312 314 313 313 313 311
314 316 316 318 312 311 311 311 311 311 313 317 318 318 315 312 314 317 319 319 319 319 319 320 321 320 319 319 320 319 311 297 311 307 317 316 316 315 315 315 314 312 309
311 312 314 316 318 319 314 312 310 310 310 311 312 317 318 315 314 315 317 318 318 318 319 319 320 320 320 320 319 312 299 295 298 295 311 313 312 312 312 312 310 311 307

GFSGL_sfc_thetae_030.txt.gz
Theta_e
323 323 323 322 323 323 323 322 323 322 322 323 324 325 326 326 325 324 325 325 324 323 324 323 323 323 322 321 320 321 321 320 316 319 323 327 325 324 324 326 327 325 324
323 323 322 322 322 321 322 322 321 321 323 324 325 326 327 326 325 324 323 325 324 322 323 322 322 322 322 323 322 321 321 322 320 316 320 322 322 323 322 322 322 323 322
323 321 321 320 320 320 321 322 321 322 323 324 323 324 326 326 325 325 324 325 323 322 322 322 322 322 322 322 322 321 322 322 323 318 317 320 320 321 319 320 320 320 321
322 321 320 320 320 321 322 321 320 321 321 323 324 327 326 325 324 325 327 326 323 322 323 322 321 324 322 323 322 321 322 322 320 319 317 316 317 318 318 315 314 317 316
322 321 320 320 321 321 321 320 320 321 323 326 327 324 323 321 316 320 326 324 322 322 324 323 324 325 321 321 322 322 322 320 319 316 314 314 314 314 314 315 313 314 315
322 321 323 324 321 321 321 320 321 323 326 326 323 322 320 317 302 309 319 324 323 323 323 324 323 319 317 313 315 315 320 319 316 315 314 313 314 314 315 314 313 311 308
324 325 325 323 321 321 321 321 319 322 325 324 320 319 318 317 300 307 310 323 324 323 322 322 321 319 319 318 310 310 310 310 315 319 315 315 314 315 315 313 314 313 311
324 325 324 323 321 321 320 319 321 324 324 322 318 317 318 314 302 303 308 325 325 323 321 321 319 319 318 319 320 319 319 320 320 320 319 318 318 317 317 315 314 313 313
325 324 324 322 321 320 319 317 319 321 320 319 318 317 319 317 301 303 317 324 322 321 322 321 321 319 304 306 318 316 315 313 308 306 306 303 302 304 312 315 313 312 309
325 324 324 322 320 320 318 318 320 320 320 320 317 318 312 318 301 302 316 324 320 319 318 316 306 312 301 304 318 317 314 315 316 316 314 309 311 309 308 317 316 311 311
326 325 323 321 320 321 319 321 321 321 321 319 317 318 319 316 311 301 307 323 321 319 317 316 311 300 300 302 308 318 314 317 313 318 317 316 317 317 318 319 319 316 312
326 323 321 320 322 322 320 321 322 321 319 317 316 316 317 318 305 300 304 309 312 320 318 316 305 297 298 299 308 299 301 311 318 317 316 314 314 314 316 318 319 320 320
322 321 320 321 322 321 321 320 320 321 319 317 318 317 316 319 314 299 298 300 306 319 319 305 296 295 296 298 297 298 305 318 317 316 315 314 316 317 318 318 319 319 318
320 320 320 320 320 321 322 322 321 319 319 317 317 317 318 319 317 314 311 311 304 308 303 306 303 303 304 303 308 313 318 319 318 316 315 315 315 316 317 319 318 318 317
320 320 320 320 321 320 319 319 321 321 319 320 319 318 317 319 318 311 312 318 318 311 311 315 317 315 313 315 317 318 317 317 316 316 315 314 314 315 316 319 320 319 319
319 320 320 320 320 320 317 312 296 301 303 304 302 313 318 305 297 297 297 297 298 301 317 317 317 316 315 316 316 317 318 314 317 317 316 316 315 315 315 317 318 319 318
320 320 320 318 320 318 317 318 317 307 296 298 296 300 304 301 295 295 295 296 296 305 319 318 317 318 316 316 318 318 317 318 319 318 317 317 317 316 311 315 317 317 317
321 307 321 321 321 318 318 318 318 316 316 315 299 300 295 293 293 293 294 300 313 313 320 318 318 319 319 319 319 318 318 319 319 319 318 318 318 317 316 317 317 318 318
321 320 322 322 321 317 317 316 315 315 316 315 311 303 294 291 292 292 295 319 317 318 318 318 319 319 320 320 318 318 319 320 320 320 320 320 320 320 320 320 320 304 309
321 310 314 322 320 319 317 316 314 314 314 316 317 317 306 307 312 309 310 317 318 319 318 319 319 320 320 320 319 319 320 317 319 320 321 321 321 321 320 320 320 320 317
320 318 312 323 321 321 319 317 317 315 314 314 317 312 298 318 319 316 314 316 317 319 319 320 320 320 320 321 321 320 320 320 320 321 321 321 321 320 322 323 323 323 322
320 319 320 322 322 322 321 321 318 317 315 315 314 310 290 315 320 320 320 320 320 321 321 321 321 322 322 321 321 322 321 321 321 321 321 322 321 322 322 321 322 322 322
317 319 319 320 321 313 318 321 320 319 318 317 316 312 306 315 319 321 321 322 323 323 323 323 322 322 323 324 324 322 321 322 323 323 322 321 321 320 321 320 320 319 319
317 318 317 317 318 318 318 319 320 311 320 320 319 316 313 314 317 321 323 323 323 323 324 324 325 325 325 324 324 325 325 326 325 323 323 322 320 316 319 319 318 318 319
314 316 317 318 318 314 315 315 316 317 318 320 320 320 318 315 316 318 321 323 323 323 323 323 324 325 325 326 326 325 317 299 318 313 325 325 324 323 322 321 320 319 318
305 306 308 308 311 313 315 316 316 317 317 317 316 315 318 319 317 318 319 321 322 322 322 323 324 324 325 325 325 315 300 296 303 296 321 323 322 322 322 320 320 318 317

GFSGL_sfc_thetae_033.txt.gz
Theta_e
335 335 335 335 336 336 336 336 336 336 336 334 333 333 334 335 336 335 335 334 328 326 325 330 330 332 329 329 329 325 329 329 322 325 330 329 327 329 330 330 330 328 324
334 334 334 335 335 335 334 335 335 334 333 333 333 333 333 333 334 333 332 329 326 324 323 326 329 330 332 332 328 327 327 330 325 323 324 324 323 326 325 325 325 326 324
333 333 333 333 334 334 334 333 333 332 333 333 333 331 331 333 333 333 329 326 325 325 325 325 329 330 331 329 330 328 328 328 329 323 320 322 322 322 321 321 321 322 322
331 331 331 332 333 333 333 332 332 332 332 332 332 332 333 333 331 331 330 328 325 326 324 327 329 330 330 330 327 328 328 327 325 323 319 318 319 320 320 316 315 318 316
329 329 331 332 333 332 331 331 331 332 331 331 332 332 332 329 325 327 330 328 326 322 326 324 329 329 323 325 327 327 329 325 322 320 317 316 315 316 314 316 314 314 316
329 329 330 331 331 331 331 330 330 330 333 331 332 330 328 327 302 309 322 327 325 324 325 327 327 322 319 314 315 317 325 325 322 319 317 315 316 316 316 314 313 312 309
329 329 330 330 329 330 329 329 329 331 331 328 331 329 328 329 302 305 311 328 328 325 324 323 323 323 322 322 310 311 311 310 318 324 320 318 315 318 317 315 314 316 313
329 329 329 329 328 329 328 328 331 331 330 327 330 329 330 322 302 302 308 328 327 326 323 323 321 322 321 322 323 322 322 324 325 324 325 323 322 322 319 318 316 314 314
330 330 330 329 328 328 328 330 332 332 327 328 329 328 330 323 301 302 317 327 325 323 323 323 321 320 305 306 322 319 320 318 308 307 307 304 302 305 313 316 313 314 311
330 330 330 329 328 328 329 330 332 334 331 329 327 329 316 324 300 303 317 325 321 319 319 318 308 314 301 304 322 322 318 317 317 314 312 308 311 309 308 321 321 319 317
332 331 330 329 329 330 330 330 331 331 330 329 327 329 326 322 316 300 308 324 321 321 319 317 311 299 299 302 309 321 316 319 312 316 316 317 317 318 321 325 327 323 319
332 331 329 330 327 329 330 330 331 332 330 328 327 323 322 322 306 301 304 309 313 322 319 316 306 297 298 300 311 299 301 311 320 317 318 318 319 318 322 323 325 325 327
332 329 330 329 329 331 330 331 330 330 328 325 325 322 320 321 315 299 299 301 306 321 321 304 296 296 297 300 298 300 304 320 320 318 317 318 320 323 324 322 323 325 327
331 328 330 329 328 330 330 331 330 329 327 324 323 321 321 321 318 316 316 314 305 309 304 308 303 304 303 302 308 312 324 324 322 320 320 321 323 323 323 323 321 321 320
330 326 330 329 329 330 330 329 331 332 327 327 325 324 322 321 320 313 317 322 321 314 311 318 317 317 316 317 319 322 322 324 324 323 323 322 323 323 323 325 324 322 319
330 328 328 329 329 329 327 324 296 301 300 301 304 317 325 306 299 299 299 298 298 300 318 318 317 317 318 319 320 322 324 320 325 325 324 324 323 323 323 324 323 320 318
330 330 329 326 329 328 328 328 325 311 295 295 296 299 303 302 296 295 295 296 297 304 319 319 318 318 319 321 322 323 323 325 326 325 325 324 324 324 319 321 321 322 322
332 310 330 329 329 329 328 328 328 327 323 326 300 301 293 294 294 294 295 301 315 315 322 322 321 323 321 322 324 324 325 326 325 325 325 325 324 322 319 320 321 321 322
329 328 330 330 330 326 329 327 327 326 326 326 317 305 296 291 292 293 297 323 320 320 321 321 322 324 326 326 326 325 325 326 325 326 326 325 325 324 322 320 320 306 310
329 313 318 330 329 329 328 326 325 325 325 325 328 326 310 309 315 311 321 325 324 324 324 325 325 325 325 326 326 324 321 325 326 326 326 326 325 324 322 322 324 324 324
328 328 313 329 329 329 329 327 326 324 324 326 328 324 300 326 325 323 324 326 327 327 327 327 326 327 327 328 327 324 323 327 327 327 327 326 326 325 326 326 326 326 325
327 327 328 328 329 329 329 329 328 327 326 325 326 318 291 324 329 328 327 328 329 329 330 330 329 329 329 329 328 328 328 328 328 328 328 328 327 327 327 326 326 325 326
327 326 327 328 329 318 327 330 329 329 329 328 327 322 318 325 328 330 330 330 331 330 331 330 329 329 330 331 331 331 329 328 329 329 328 328 327 327 327 325 325 325 326
325 325 325 326 327 328 330 330 330 315 327 330 329 327 324 324 326 328 330 331 332 332 332 332 331 331 330 330 330 330 330 330 330 329 330 328 327 322 325 325 325 326 326
315 317 320 322 321 322 322 322 323 324 324 325 327 328 330 329 326 326 327 328 330 330 331 332 332 332 332 332 332 332 320 295 320 313 331 330 329 328 326 325 325 326 326
302 304 309 311 311 311 310 310 311 311 312 313 315 318 319 320 321 321 323 324 325 326 327 328 329 330 330 330 330 314 297 294 308 295 325 330 329 328 328 328 327 327 327

GFSGL_sfc_thetae_036.txt.gz
Theta_e
345 345 345 345 344 344 342 343 344 344 343 340 339 337 336 336 338 339 339 337 334 332 328 326 331 335 336 333 333 329 336 333 328 331 334 336 336 336 336 336 334 335 328
344 343 343 341 341 342 342 342 343 341 339 335 334 334 335 336 337 336 334 334 328 325 326 326 331 333 335 336 335 328 333 336 331 326 328 327 328 332 330 329 328 331 328
341 340 340 341 341 341 341 341 339 337 335 334 335 335 334 334 335 335 334 333 326 326 326 326 330 332 333 335 334 330 334 335 336 326 323 324 324 325 323 324 323 323 323
337 337 338 338 339 339 339 338 336 335 335 335 335 333 334 335 333 333 334 332 329 325 328 329 331 333 334 335 332 334 336 331 329 326 322 320 320 321 320 317 316 320 319
333 333 334 336 337 336 335 335 335 335 334 333 334 334 335 334 330 334 332 329 326 328 325 327 333 330 323 328 332 334 334 328 326 323 320 318 316 317 315 317 315 315 316
330 331 334 335 335 334 334 334 334 333 333 333 333 333 333 331 305 310 323 331 326 325 328 328 333 326 322 316 316 317 329 329 328 322 319 316 317 316 317 316 315 312 309
330 331 332 333 333 333 332 332 332 333 335 334 334 333 334 334 305 306 311 331 326 326 326 327 325 327 326 329 312 311 312 313 321 330 321 319 317 318 318 316 317 317 315
330 330 331 331 331 331 331 331 333 334 335 335 334 334 335 327 304 303 309 332 328 326 326 325 326 328 327 326 327 327 328 328 330 329 328 325 322 322 322 323 322 317 314
329 330 330 330 330 329 329 332 333 334 333 334 334 334 334 331 303 303 315 330 325 323 324 324 324 327 308 306 327 327 328 323 309 308 310 306 305 306 314 317 313 313 310
329 329 330 330 330 330 331 332 334 333 332 331 333 335 319 329 301 303 316 325 322 319 321 321 309 320 300 305 327 325 321 322 322 319 316 309 312 309 309 319 317 314 313
330 331 331 331 330 331 332 334 334 333 333 333 332 333 329 327 321 302 308 326 322 321 320 318 316 299 299 302 312 325 320 322 315 320 317 316 316 318 320 321 322 320 318
332 331 331 331 330 330 333 333 334 335 333 333 332 328 327 327 309 304 305 310 313 325 321 317 307 297 298 301 313 299 301 311 321 318 316 315 316 318 321 326 330 330 330
332 331 331 331 331 332 333 333 334 336 335 331 330 328 325 323 317 299 300 302 305 324 322 302 296 295 297 301 299 300 305 319 319 317 317 318 319 324 327 328 330 331 330
332 331 331 331 331 332 332 335 336 335 331 329 328 327 325 321 319 322 319 321 306 310 306 309 303 303 304 306 311 313 323 323 321 320 320 322 325 325 325 326 323 322 322
332 331 331 331 332 331 334 332 336 336 326 330 331 329 324 322 320 316 318 325 324 314 315 318 316 315 314 316 318 322 326 324 323 324 324 324 324 324 323 325 322 319 319
331 330 328 329 330 330 330 329 298 299 298 299 300 316 327 309 301 300 299 298 299 300 319 320 318 317 316 318 320 321 324 320 325 325 324 324 324 324 324 324 324 322 320
330 332 330 326 328 328 329 331 328 314 296 295 297 297 305 304 297 296 296 297 297 303 322 322 320 320 320 321 323 325 325 326 328 327 326 325 326 326 322 324 324 322 321
333 313 330 329 329 327 329 330 328 330 328 327 300 301 295 295 295 294 296 302 316 317 323 322 323 324 325 326 325 326 326 327 326 326 326 327 327 326 325 324 324 323 322
332 330 329 329 330 325 327 328 327 327 329 330 324 308 298 292 292 294 299 324 323 324 326 326 326 326 327 328 328 328 327 328 328 328 328 328 328 327 325 323 323 308 311
330 312 318 330 331 330 327 327 328 328 328 331 330 327 315 312 315 313 322 324 323 325 325 325 326 327 328 328 327 329 329 327 329 329 329 329 328 328 325 323 321 320 321
328 331 313 330 330 329 329 326 325 326 327 328 330 325 305 330 328 325 328 329 329 329 329 330 330 330 330 330 330 330 328 328 329 329 329 330 329 328 328 326 324 324 325
328 329 329 328 329 329 330 330 328 326 325 326 329 321 294 327 330 330 330 331 332 332 332 332 330 330 330 331 331 331 330 329 330 330 329 329 328 327 327 326 326 326 326
328 327 327 328 329 320 331 330 330 329 327 327 328 326 326 330 332 332 332 333 333 332 333 333 333 332 333 333 333 332 331 331 332 332 331 330 329 329 328 328 327 326 325
330 329 329 329 329 329 330 331 331 317 330 328 329 329 329 330 333 334 337 337 336 336 336 335 333 332 332 333 334 334 334 333 332 330 331 329 328 324 328 327 326 326 325
319 328 328 328 328 328 328 329 330 331 331 332 331 333 332 333 332 331 332 333 336 337 336 337 336 335 336 335 328 325 311 294 319 304 332 332 331 330 328 327 326 326 326
303 306 311 315 315 315 315 315 315 315 316 317 319 321 323 322 322 323 324 324 327 329 331 332 330 323 316 312 303 291 288 288 303 289 317 331 330 329 329 328 328 327 327

GFSGL_sfc_thetae_039.txt.gz
Theta_e
346 349 347 348 348 348 348 345 345 346 343 341 341 340 338 337 338 340 339 337 335 336 334 329 330 335 337 334 338 333 336 332 329 332 338 338 337 338 338 339 336 337 328
344 345 345 346 347 345 343 343 343 341 341 338 337 335 334 335 338 338 335 335 334 332 327 326 326 333 335 337 339 334 332 337 332 327 331 333 334 336 335 335 334 333 329
343 342 343 343 343 344 342 342 341 339 337 335 334 333 333 335 335 336 335 334 334 331 329 327 328 332 334 335 335 333 335 337 336 328 326 325 325 328 324 325 325 324 323
341 340 340 341 341 341 340 340 338 336 335 334 336 334 335 334 333 332 335 335 333 330 326 328 329 332 334 335 335 334 335 335 333 328 321 320 321 322 322 318 317 319 317
337 337 338 339 339 337 336 336 336 336 334 334 333 334 334 332 330 334 335 334 329 326 327 328 332 330 325 328 339 336 335 334 331 323 319 318 317 318 317 317 315 316 317
334 333 334 333 333 335 336 335 335 334 334 335 334 334 333 330 308 311 325 331 330 327 326 329 333 325 323 315 316 319 331 333 327 321 318 315 317 317 317 316 315 313 310
330 331 332 331 331 333 333 332 333 336 337 334 334 334 335 332 306 308 314 331 328 327 328 328 330 330 326 330 315 314 313 315 322 326 320 318 316 318 318 317 317 316 313
329 330 331 331 330 332 331 331 335 334 335 337 335 335 336 326 306 306 310 332 328 326 327 329 330 330 328 328 330 330 330 331 328 330 326 324 322 322 322 323 320 317 318
328 329 330 329 329 329 330 333 333 335 334 336 335 335 335 329 305 305 316 331 326 325 325 325 328 328 308 307 330 327 326 323 311 310 310 307 305 307 316 321 315 315 312
328 329 330 331 330 329 331 332 336 336 333 332 334 336 321 327 303 306 320 326 323 320 323 321 308 322 303 305 328 327 323 322 322 319 316 310 315 310 310 322 321 316 314
329 329 331 331 331 331 334 334 335 335 334 333 334 333 332 328 321 306 310 326 321 321 320 319 322 300 301 302 312 327 321 323 316 322 319 317 317 319 320 320 320 317 316
330 330 330 331 330 330 333 333 334 336 334 333 333 329 328 329 309 306 305 309 315 324 322 319 309 298 300 301 313 300 303 313 320 317 316 315 315 317 319 320 322 321 324
330 330 330 330 329 332 333 333 336 337 335 331 330 328 326 325 322 301 298 302 304 324 319 303 296 296 297 301 298 301 306 321 319 317 315 315 317 319 320 322 326 328 329
329 330 330 331 330 332 332 336 337 337 335 332 330 327 324 321 322 325 322 321 308 310 306 309 304 304 306 310 313 316 323 321 319 317 316 317 321 320 321 324 325 327 326
329 329 330 329 332 332 331 328 336 329 320 332 334 330 325 321 322 317 318 324 324 314 315 318 316 315 316 319 322 323 322 321 321 321 321 320 322 323 325 327 327 322 321
330 328 328 328 330 329 330 328 297 298 296 296 298 319 327 311 302 299 298 300 300 299 319 317 315 316 316 317 320 321 322 320 325 324 324 325 323 324 323 323 323 319 318
329 330 327 324 327 330 329 328 326 315 297 295 296 300 308 304 296 296 296 298 297 302 323 321 318 318 318 320 322 325 323 325 327 325 324 325 324 324 320 322 320 319 318
330 311 328 326 326 329 329 328 329 329 326 325 301 302 296 295 295 295 296 303 319 316 322 321 320 320 320 324 325 325 326 327 327 327 327 326 327 325 323 322 322 321 321
330 327 328 328 327 327 327 330 327 330 331 326 322 307 298 292 293 295 298 324 324 325 324 324 325 325 326 327 327 327 328 327 327 326 327 327 327 325 323 323 324 310 313
329 311 316 330 327 328 327 327 326 328 329 327 328 326 316 313 314 316 322 325 326 326 326 325 326 327 326 327 327 325 325 326 326 325 325 326 329 325 324 325 324 323 322
328 327 313 327 327 325 328 326 326 326 327 328 328 325 306 328 323 322 323 324 326 327 328 328 329 329 328 328 329 328 326 328 329 328 328 328 328 326 327 326 325 323 322
328 326 329 327 326 327 326 326 326 327 327 325 327 322 295 325 329 328 329 328 329 329 330 331 329 330 329 329 329 330 329 329 329 329 329 329 329 328 328 327 326 325 324
328 327 326 327 327 320 327 327 325 325 326 329 327 328 327 328 327 330 330 331 334 333 332 331 330 329 330 332 333 332 330 330 331 331 329 328 328 327 327 326 325 324 325
328 327 325 326 328 327 327 329 327 318 327 327 328 329 329 330 327 329 329 333 336 334 333 333 331 328 323 320 313 311 305 308 328 331 332 330 329 325 328 327 326 327 328
321 325 328 330 329 329 330 328 327 328 325 324 326 324 325 323 324 325 328 330 330 322 313 312 312 313 308 307 305 301 290 287 299 293 330 332 331 331 328 326 327 327 327
307 306 309 318 322 322 319 316 315 317 316 316 315 315 315 316 317 319 320 320 320 321 318 316 310 305 307 302 296 288 286 286 293 287 308 328 330 329 329 329 328 327 327

GFSGL_sfc_thetae_042.txt.gz
Theta_e
346 348 350 351 351 351 348 346 346 347 345 344 342 339 337 338 340 338 336 336 333 333 332 331 329 329 331 330 330 328 326 325 320 325 328 330 328 328 331 329 331 330 324
348 349 349 347 347 345 343 342 344 343 343 341 340 338 338 336 336 336 334 334 332 331 330 326 323 326 329 330 330 327 327 327 324 322 325 326 327 330 331 332 331 329 326
343 343 342 340 340 341 341 342 343 341 342 338 337 335 334 335 333 336 336 334 333 331 328 324 325 326 327 329 329 327 328 328 327 325 323 324 325 326 323 323 322 322 323
340 340 339 341 342 342 342 343 340 339 337 337 336 334 334 333 334 335 335 334 332 329 327 326 327 328 329 328 328 327 328 326 326 323 320 320 320 322 321 317 316 319 318
338 339 340 342 342 341 340 339 337 337 333 334 333 333 332 330 328 334 335 333 330 326 326 326 329 328 324 327 330 329 328 326 323 319 318 317 317 318 317 317 314 315 317
337 338 339 338 338 338 338 332 331 334 334 332 332 332 328 326 306 311 328 329 329 327 326 325 328 320 317 316 318 320 325 326 321 319 317 316 316 316 317 316 315 314 311
334 333 333 333 331 331 333 332 332 334 335 333 333 333 331 324 306 308 318 331 327 326 327 327 329 328 325 326 312 314 314 315 319 321 318 317 316 317 317 316 317 315 314
330 329 331 331 331 331 331 331 331 335 336 335 334 334 329 320 307 307 309 330 327 325 326 327 329 329 326 328 329 328 328 325 325 324 322 320 320 320 320 320 317 316 317
328 330 330 330 330 330 331 331 333 335 334 334 334 333 329 323 304 306 318 329 324 323 325 327 328 326 310 309 328 325 323 320 311 311 310 306 304 307 315 318 315 314 312
329 329 331 330 329 330 332 331 334 334 334 333 333 333 318 324 302 307 321 327 323 322 322 323 306 320 303 305 326 324 321 320 318 316 314 309 312 310 309 320 318 314 313
331 330 331 329 331 332 332 334 335 333 333 332 332 330 328 325 317 307 310 323 322 321 320 321 317 299 302 303 313 325 320 320 314 319 319 319 319 318 320 321 321 317 314
330 329 330 331 327 332 332 331 335 335 332 330 328 326 326 324 311 305 302 310 314 322 320 319 308 298 299 302 311 300 303 312 319 317 316 316 316 317 318 319 319 319 319
331 330 330 332 328 333 329 330 334 333 331 330 329 325 323 324 318 299 300 302 307 321 319 304 297 296 297 301 299 301 308 318 317 315 314 315 317 318 319 320 320 320 320
330 329 331 329 331 331 331 335 332 331 331 330 328 325 323 323 322 318 318 315 305 307 305 309 305 306 306 308 310 315 321 319 317 315 315 317 318 317 317 319 319 319 318
330 329 329 329 331 328 319 318 326 314 318 331 329 326 322 321 321 312 318 320 319 310 314 317 316 316 316 319 320 320 320 320 318 317 316 317 317 317 318 322 322 321 319
330 327 327 329 330 331 326 319 297 297 295 297 309 322 325 307 297 298 300 300 300 301 316 315 315 316 318 320 320 319 319 317 319 319 318 319 318 318 320 321 323 319 316
329 326 328 328 329 330 328 326 320 311 297 295 298 304 306 300 297 298 299 297 295 302 317 316 316 318 318 320 320 320 319 321 323 322 322 321 322 322 316 320 320 318 315
328 314 328 327 329 328 328 326 326 324 323 320 300 301 296 296 296 296 296 302 315 314 321 319 318 319 319 321 323 322 323 323 323 323 323 323 322 322 320 320 319 317 315
328 325 325 330 329 326 328 328 328 328 325 319 314 304 296 293 294 295 296 323 322 320 321 320 321 320 321 324 325 325 324 324 324 324 324 324 324 324 322 321 320 309 311
326 311 316 329 328 325 329 327 327 328 325 324 322 316 310 313 318 317 320 325 324 325 323 323 323 324 326 326 323 325 325 323 325 325 325 326 326 325 323 321 320 320 319
326 321 316 328 326 328 326 327 330 328 326 327 325 318 302 322 320 321 323 325 326 326 325 326 326 327 327 327 327 324 325 325 326 324 324 324 325 325 326 323 323 323 321
326 327 327 325 325 327 328 329 329 329 326 326 326 316 295 326 323 323 325 326 327 329 329 327 327 327 326 325 325 325 324 325 325 326 325 326 325 326 326 325 323 323 322
326 325 326 325 326 318 326 327 328 329 327 326 326 323 322 325 326 327 327 329 328 325 323 323 320 316 316 315 312 312 311 312 318 329 328 327 326 325 324 324 325 323 322
323 326 324 324 325 326 327 328 324 315 323 325 328 328 326 326 326 321 317 316 314 312 313 309 306 303 302 301 302 301 296 295 310 314 324 328 328 322 324 324 324 323 322
313 319 326 323 324 327 327 323 321 323 320 321 321 323 322 319 318 318 319 316 313 308 305 303 304 300 296 296 294 292 288 286 295 290 321 326 327 328 327 327 327 326 325
309 308 308 310 315 314 312 311 310 311 310 308 309 310 310 309 309 308 309 308 308 306 303 299 296 296 294 291 289 286 286 287 294 292 316 316 312 311 312 318 318 319 319

GFSGL_sfc_thetae_045.txt.gz
Theta_e
338 339 340 342 343 341 340 339 338 338 339 339 339 336 335 335 334 328 327 329 326 325 325 326 324 323 323 327 323 321 319 318 313 321 322 324 324 326 328 327 328 326 324
340 340 341 342 344 342 340 341 341 338 339 338 336 335 334 332 332 329 328 329 325 324 324 324 323 324 320 326 322 320 319 319 318 319 321 321 325 327 327 327 327 327 325
342 341 340 339 339 337 338 337 339 336 334 334 332 331 332 330 330 330 328 327 326 325 325 322 321 321 318 322 322 321 320 322 321 321 321 324 324 324 321 323 323 323 323
340 338 335 336 337 336 336 336 335 334 332 329 328 329 332 332 332 331 329 326 325 324 324 323 325 324 320 321 324 321 321 322 322 321 320 319 319 320 320 318 317 320 318
336 337 336 336 336 336 335 333 331 327 327 328 329 329 327 327 329 329 328 326 324 322 322 324 325 326 323 325 325 323 321 321 320 318 317 318 317 317 316 317 315 316 317
336 335 336 334 333 331 328 330 328 327 327 328 327 326 324 323 306 315 323 324 323 324 320 323 323 319 318 317 319 320 323 321 318 317 317 316 317 315 316 316 316 315 311
334 334 334 332 330 330 326 327 327 327 327 329 328 325 320 315 305 308 318 323 322 322 320 322 324 326 321 319 312 314 315 313 318 319 317 318 316 317 317 316 317 316 314
330 329 327 329 326 325 327 326 327 327 327 329 328 324 317 314 305 309 313 324 323 323 323 323 322 322 322 323 324 322 320 319 318 320 318 319 319 320 320 319 316 316 317
325 326 326 326 325 327 326 326 327 326 323 324 325 321 316 315 304 308 318 322 322 321 321 319 322 322 303 310 322 320 319 317 310 310 309 306 305 307 314 318 315 314 313
325 327 327 329 327 327 327 328 327 324 325 327 326 322 313 315 302 311 320 321 320 320 320 319 304 315 303 306 323 321 317 317 316 314 313 308 310 309 308 318 318 314 313
327 327 326 326 327 327 328 327 324 324 325 325 322 320 319 316 312 307 311 322 321 320 318 316 311 299 302 304 312 322 317 317 312 317 318 318 317 318 319 318 316 316 313
326 326 326 327 328 328 327 325 325 324 324 323 322 323 322 319 307 306 306 311 313 320 318 314 308 297 299 301 308 300 303 311 319 318 317 316 316 317 318 317 315 315 318
325 325 325 325 326 326 322 325 322 324 324 321 321 320 319 318 308 298 299 304 308 318 318 307 297 297 298 300 298 300 307 318 317 315 315 315 317 317 318 318 318 319 319
324 326 325 327 326 324 325 324 322 323 323 323 320 318 319 317 312 313 311 309 303 306 304 308 306 305 305 306 311 315 318 318 316 316 315 316 317 317 316 318 315 312 313
325 325 324 325 319 315 312 314 321 317 319 325 321 320 319 318 315 314 313 316 314 310 314 317 316 316 315 316 317 318 318 317 316 316 316 316 316 316 316 317 317 314 312
323 324 326 326 322 318 316 312 296 296 296 301 309 317 316 306 299 303 298 299 299 302 315 315 314 315 315 317 317 316 317 315 316 317 317 316 316 316 317 318 320 316 313
322 321 323 324 323 320 318 317 313 306 297 295 297 301 302 299 297 298 297 297 296 307 316 316 315 316 316 318 315 317 316 317 316 315 315 318 317 317 313 318 318 318 314
323 313 324 324 325 323 320 319 320 319 316 311 298 298 296 296 296 295 295 302 313 312 316 315 314 315 317 318 316 315 316 317 317 317 317 319 319 319 318 318 317 315 313
323 323 325 326 324 322 323 320 321 319 313 310 309 302 296 293 294 294 295 318 318 318 317 317 317 317 318 318 318 318 318 318 318 318 319 320 320 318 317 317 315 307 307
322 312 318 322 322 322 323 323 320 317 315 317 316 311 308 310 309 308 311 319 320 319 320 319 318 319 318 318 320 321 320 316 318 319 321 321 319 319 317 317 315 315 313
325 324 314 323 321 324 325 323 322 321 319 317 315 313 300 317 313 313 314 319 320 320 322 319 318 319 321 322 323 323 322 321 322 323 323 322 320 319 319 319 321 321 318
322 323 321 324 324 322 322 324 323 322 322 318 317 310 289 317 317 317 317 320 322 319 321 321 319 316 318 316 319 322 322 322 323 323 323 322 323 322 321 319 319 317 316
322 321 324 324 322 315 321 323 323 322 322 320 318 315 311 320 319 320 316 312 310 307 307 305 305 303 302 304 303 302 305 306 309 313 318 323 323 322 323 323 323 321 320
324 324 324 324 322 322 321 320 318 313 321 321 321 323 318 315 313 310 307 304 303 303 300 298 297 296 296 296 296 296 295 296 301 311 317 324 322 317 322 322 322 322 322
312 319 320 317 317 316 315 315 314 317 321 320 317 313 311 313 310 307 303 301 299 297 296 296 294 292 292 292 292 292 288 287 293 294 309 311 308 312 315 312 315 313 312
306 305 308 311 308 306 306 305 303 303 304 303 303 302 301 300 302 302 300 297 295 293 292 291 291 290 290 290 289 287 286 287 292 290 301 301 301 301 303 304 304 302 302

GFSGL_sfc_thetae_048.txt.gz
Theta_e
328 330 334 335 336 336 335 335 334 333 334 335 336 335 336 335 334 331 327 327 325 323 323 323 322 321 320 321 323 322 316 314 310 315 318 321 323 323 327 326 326 326 324
331 333 335 338 336 335 334 335 335 335 337 337 337 337 336 334 331 327 325 327 324 322 322 322 322 324 323 322 323 319 317 316 315 313 316 321 322 325 326 324 325 327 325
336 336 337 339 337 336 337 337 337 337 336 338 337 335 334 332 329 327 327 326 324 322 322 323 322 322 318 321 320 319 318 319 318 317 320 322 322 324 323 323 322 322 323
338 337 336 338 337 337 337 337 336 337 335 335 332 332 329 329 329 328 326 324 323 323 323 323 322 322 321 320 320 319 318 319 320 320 320 319 319 320 322 320 318 319 317
336 335 333 334 334 334 333 334 334 334 332 329 326 326 328 331 330 329 326 323 321 320 321 322 323 324 324 320 322 319 320 320 321 319 318 318 317 317 317 317 316 317 317
334 333 334 333 334 333 332 329 327 326 325 326 323 323 324 324 307 312 321 321 321 320 321 322 325 321 319 315 317 317 320 320 319 318 317 317 317 315 317 317 316 316 312
333 334 334 333 331 330 328 326 323 322 322 322 323 322 320 315 303 306 313 321 321 321 320 319 323 325 320 320 311 313 311 311 317 320 317 318 316 317 318 317 317 315 313
333 333 332 331 329 325 326 324 322 325 326 324 322 320 316 312 303 306 311 321 321 321 321 322 322 322 319 321 321 320 317 318 319 319 317 316 315 318 319 318 317 316 317
330 331 331 328 325 323 322 324 325 327 327 324 320 316 314 314 303 306 314 320 319 318 318 321 322 319 303 306 321 318 316 316 308 308 308 305 304 307 313 317 316 315 312
326 325 324 325 324 323 325 325 326 325 323 322 319 316 311 316 302 304 314 318 318 318 318 316 306 313 301 304 320 318 316 315 314 314 312 307 308 308 308 320 317 315 313
325 324 324 325 326 327 326 326 325 323 323 320 318 316 315 317 311 303 308 321 320 318 317 314 310 300 299 302 309 320 316 315 312 316 316 316 316 316 317 318 319 318 315
325 325 324 324 326 327 326 325 324 322 320 318 319 317 317 317 305 303 305 309 312 317 317 314 308 298 298 301 309 299 300 310 318 317 316 315 315 317 317 316 316 317 318
323 323 324 324 324 326 324 321 322 322 320 319 318 316 316 315 310 300 301 303 307 317 316 305 296 296 297 299 297 299 305 318 317 316 315 315 317 317 317 317 316 317 318
322 323 323 322 321 322 323 323 323 321 320 319 318 316 315 314 310 311 310 309 303 306 303 307 305 304 304 305 311 314 319 318 317 316 315 316 316 317 316 317 315 315 315
321 323 322 322 319 314 308 311 320 318 320 320 318 318 316 312 310 309 310 314 314 310 312 316 316 316 315 316 317 317 317 317 316 316 316 316 316 316 316 318 316 314 313
322 322 320 317 317 315 312 307 295 297 300 303 306 314 316 304 299 298 297 298 298 300 315 315 314 315 315 315 315 315 316 313 316 317 316 316 315 315 315 316 318 314 312
322 322 320 318 317 315 315 315 311 303 297 296 299 299 301 298 296 296 297 296 297 306 316 315 314 315 316 316 316 316 315 316 317 317 317 316 316 315 312 316 316 316 313
321 314 321 320 318 316 316 316 317 318 315 310 297 297 294 295 295 295 296 303 315 312 316 315 315 316 317 314 313 316 317 316 313 315 316 316 316 316 316 316 317 314 314
322 322 323 322 320 317 318 318 316 316 313 309 307 300 294 292 293 294 296 317 316 315 314 314 315 316 315 315 314 314 314 315 314 314 317 318 318 317 316 317 317 305 306
322 310 317 322 320 319 319 317 315 315 315 316 314 310 305 307 311 311 313 318 318 317 317 317 317 318 315 315 316 316 316 315 317 318 318 319 319 318 316 315 314 313 311
320 319 311 323 321 321 320 317 316 316 316 316 315 311 296 313 311 310 314 319 320 320 319 318 318 318 319 319 320 320 319 318 319 320 320 320 319 316 316 316 317 316 316
325 321 322 322 323 323 321 319 318 317 316 315 315 304 292 316 316 317 317 313 311 312 318 315 308 307 308 310 310 321 322 322 320 321 322 322 319 318 318 317 317 316 317
321 321 321 321 322 314 321 321 320 318 317 316 316 312 313 316 316 310 306 304 303 301 300 301 300 299 300 299 300 301 305 307 307 309 314 319 322 320 321 321 321 320 319
322 322 319 318 321 321 322 321 319 310 317 317 318 316 310 308 304 301 300 299 298 297 295 295 296 295 295 295 296 296 297 297 301 311 316 316 315 313 315 316 313 313 312
318 316 315 315 315 315 319 320 319 319 318 315 313 309 306 303 299 298 296 295 293 294 293 293 293 293 294 294 294 293 289 289 296 296 307 307 308 307 307 308 306 305 305
307 308 306 306 305 305 307 307 306 306 304 302 301 301 301 299 298 297 295 293 292 292 291 292 292 291 290 290 289 288 288 289 293 289 299 299 298 299 299 300 300 299 299

GFSGL_sfc_thetae_054.txt.gz
Theta_e
314 311 318 320 324 325 327 329 331 333 335 336 337 337 338 337 337 335 333 332 330 329 328 327 325 325 324 324 325 324 322 321 319 319 322 326 326 328 327 327 327 328 326
316 313 315 321 325 327 329 331 333 334 336 336 336 337 337 336 335 333 331 331 330 327 326 325 324 324 324 324 325 324 323 321 320 318 321 324 323 325 325 325 326 328 328
319 312 317 323 327 328 330 331 333 334 335 336 336 336 335 335 334 333 333 330 327 327 326 325 325 324 323 323 324 323 323 321 321 322 319 323 323 324 322 322 323 324 325
322 317 320 325 329 330 331 332 334 335 335 335 335 336 336 334 334 332 329 328 327 326 325 326 325 325 324 324 325 324 320 320 321 321 320 320 320 323 323 319 319 322 322
326 323 325 329 331 332 333 333 335 335 336 336 335 336 336 335 331 328 328 326 326 325 324 324 326 325 321 322 325 321 319 321 321 320 318 318 318 319 318 320 318 320 320
328 329 332 332 332 333 332 334 335 335 334 334 334 333 331 328 309 312 322 325 324 324 323 324 325 320 319 314 315 315 320 322 320 320 319 317 318 319 318 318 317 316 315
331 334 334 332 332 333 334 335 333 331 332 330 328 327 323 320 303 306 311 325 324 323 323 323 324 325 321 321 311 310 312 311 316 325 320 319 318 320 319 317 318 317 316
332 332 332 333 332 332 332 330 329 328 326 325 324 322 320 313 301 302 307 323 323 323 323 323 324 324 322 322 319 320 321 323 324 322 324 322 325 322 322 322 320 317 319
329 330 331 331 330 328 326 326 325 324 322 322 322 319 318 313 300 301 315 322 321 321 322 324 324 323 306 305 320 319 319 317 308 307 307 305 303 306 315 321 318 317 315
330 330 331 329 327 326 326 325 324 323 320 320 319 320 313 314 299 300 314 320 319 319 320 319 306 315 299 302 320 319 317 316 315 315 314 308 308 310 307 323 321 317 315
331 328 327 328 326 326 326 324 321 319 318 317 317 319 319 316 308 299 304 321 319 319 319 316 314 298 298 301 308 320 316 315 311 317 316 316 316 317 320 321 323 322 318
328 326 326 325 327 326 324 321 320 318 317 314 316 317 319 319 305 300 303 308 312 320 319 316 310 297 296 299 308 298 300 309 317 317 316 315 316 317 319 320 321 320 321
325 324 324 325 325 325 322 320 319 319 318 316 316 316 316 317 314 300 300 301 306 318 317 304 296 295 296 299 297 299 304 318 318 316 315 316 318 319 320 318 320 321 320
323 323 323 323 322 323 323 322 321 319 318 317 316 314 314 316 315 314 311 309 303 306 304 306 303 302 301 303 310 315 319 319 318 317 316 317 318 317 316 318 317 317 316
322 322 322 322 320 313 308 317 321 321 318 318 317 316 315 315 315 310 312 316 315 309 311 316 316 315 315 316 317 318 318 319 317 317 316 316 316 316 316 317 316 315 314
320 320 319 318 316 315 314 310 295 299 300 301 305 312 312 303 298 298 298 297 298 300 316 315 315 315 315 315 315 316 317 314 318 318 317 317 316 316 316 316 317 317 316
318 318 316 316 317 316 317 315 311 301 295 295 296 297 299 297 295 296 295 295 296 305 316 316 316 316 316 316 316 316 316 317 319 318 317 317 317 317 315 315 317 315 315
318 307 318 316 316 317 317 316 317 317 313 308 295 296 294 294 294 294 295 302 314 313 317 316 315 317 316 316 316 316 316 317 317 317 317 317 317 316 316 315 316 315 314
319 318 318 318 318 316 319 319 319 317 312 305 304 299 294 293 293 295 298 317 316 315 316 316 317 318 317 317 318 318 317 316 316 317 317 317 318 317 317 316 316 303 306
317 304 311 319 319 319 319 318 316 314 313 312 309 306 306 310 313 314 316 316 316 316 317 316 318 318 318 318 317 317 317 316 315 316 317 317 318 318 316 316 317 316 316
318 318 307 318 318 318 317 317 317 317 314 311 309 307 296 315 314 314 316 317 317 317 317 318 317 317 319 321 319 319 317 318 318 317 318 317 318 319 317 317 317 319 319
320 320 320 317 317 317 318 319 319 316 313 310 308 303 293 315 309 306 304 304 307 308 313 312 309 307 308 308 310 317 319 319 320 319 321 320 320 320 320 320 320 320 320
322 322 321 319 317 310 318 318 317 315 313 312 312 313 308 305 303 301 299 299 299 299 301 302 302 301 300 301 303 306 314 314 314 316 319 322 322 322 322 322 321 321 319
322 322 319 316 317 317 317 317 316 308 314 315 311 307 302 300 298 298 297 296 295 296 296 296 295 295 296 298 299 299 300 307 314 318 320 319 317 313 316 315 313 313 313
322 321 319 317 317 316 316 316 316 314 311 307 303 299 297 296 295 295 295 295 294 293 292 293 293 293 294 296 297 295 288 289 297 294 308 306 305 304 302 301 300 299 298
320 321 320 318 317 316 315 312 308 305 303 301 299 297 295 294 293 293 292 291 291 290 290 290 290 290 290 290 288 286 287 287 292 290 300 299 298 299 298 297 296 294 295

GFSGL_sfc_thetae_057.txt.gz
Theta_e
317 319 322 325 330 335 336 339 341 343 343 343 345 346 347 348 349 348 344 345 340 336 337 336 336 338 336 334 334 333 331 330 326 327 326 329 329 331 333 334 334 337 334
316 318 321 325 329 332 334 337 340 341 343 343 345 346 348 348 348 345 342 341 336 334 337 339 337 335 337 336 334 334 332 332 329 327 324 326 327 331 329 329 331 333 335
320 320 321 325 329 332 333 337 340 341 342 343 345 346 347 347 345 342 344 341 340 341 339 337 338 336 335 334 334 333 332 330 327 328 324 327 325 326 325 328 328 329 330
325 326 323 327 331 332 334 337 339 341 342 344 345 346 347 345 344 343 342 340 339 334 335 339 337 336 335 335 334 333 331 329 326 328 325 323 323 323 325 322 322 326 325
322 326 328 331 333 333 334 337 339 341 342 344 345 345 345 344 341 342 338 336 333 336 337 336 337 334 326 330 333 333 332 327 324 328 323 321 321 321 321 323 322 323 325
321 324 330 333 332 333 336 337 338 341 343 344 344 344 343 340 311 315 328 335 336 336 335 335 335 324 323 315 317 318 322 326 329 327 324 320 320 322 322 321 321 320 318
321 323 329 335 332 333 334 334 335 338 342 342 344 343 342 339 307 309 315 336 336 336 335 333 331 332 326 330 313 312 313 312 318 332 326 324 321 322 325 324 323 322 323
320 322 332 333 331 332 333 334 335 340 342 342 341 339 334 321 303 303 310 337 336 335 335 334 332 331 330 328 326 325 325 329 330 330 332 328 327 327 323 323 325 321 323
322 322 332 331 330 331 333 334 337 339 337 337 334 330 322 315 301 303 321 334 332 332 332 332 332 331 308 306 323 322 325 324 309 308 311 309 305 308 317 325 322 323 318
321 323 332 332 332 334 333 334 335 336 332 326 326 330 319 321 299 302 320 330 328 326 327 328 306 323 299 301 323 321 320 322 323 323 323 314 316 316 308 331 326 321 319
323 327 331 332 333 333 333 333 330 329 324 325 324 324 324 321 313 300 306 329 327 327 327 328 321 298 298 300 308 322 319 323 314 324 322 323 324 322 323 325 328 326 321
324 328 330 330 330 330 329 328 327 322 323 322 322 322 323 323 307 300 302 312 314 328 328 325 311 297 297 299 310 298 300 311 324 319 320 319 320 321 323 324 326 327 330
327 328 328 329 328 329 325 324 321 322 321 320 320 320 321 324 322 299 299 300 307 326 328 308 295 295 296 301 297 299 302 323 322 320 320 319 321 323 324 324 327 325 324
326 326 327 325 326 325 325 326 326 323 322 321 321 321 321 321 322 321 317 316 304 310 305 309 305 307 304 307 310 314 323 324 322 320 319 321 322 323 322 323 323 322 321
325 324 324 326 325 323 321 327 328 329 323 324 324 322 320 320 321 314 316 322 320 312 314 318 320 320 318 320 321 321 321 322 321 322 321 321 320 320 320 321 321 321 322
322 325 322 320 320 321 319 314 295 299 300 301 306 317 321 306 299 299 298 298 298 300 320 319 318 318 318 318 318 319 320 316 321 321 321 321 320 319 320 319 319 318 317
325 322 320 319 322 322 322 317 311 303 295 294 295 297 302 301 296 296 296 296 296 306 320 319 319 319 319 319 319 319 319 320 322 320 319 319 319 319 318 317 319 322 319
322 309 323 325 325 321 321 320 320 317 315 312 296 299 294 295 294 294 295 302 316 315 321 317 318 320 320 320 320 320 320 320 320 320 320 320 320 320 319 316 317 318 318
324 325 323 322 322 319 322 322 321 319 314 309 308 301 296 293 293 295 299 319 318 316 317 318 324 322 320 321 320 320 320 319 319 320 320 320 320 320 318 320 318 304 306
325 307 314 323 324 322 321 321 319 315 315 313 310 310 311 310 314 317 319 318 317 318 319 319 321 320 321 323 321 320 319 319 320 320 320 320 320 322 319 317 318 316 315
322 324 311 326 325 322 320 318 316 315 313 312 312 311 297 317 316 316 317 320 319 321 321 323 320 322 325 325 323 322 322 322 319 322 321 321 323 318 320 319 320 319 319
324 323 323 321 322 322 321 320 317 315 314 314 312 303 293 311 310 308 307 309 310 320 318 315 313 312 313 317 326 323 322 323 322 322 320 319 319 320 321 324 317 321 325
326 321 321 321 322 312 319 318 316 315 314 315 313 308 307 305 303 303 302 305 303 305 306 309 309 310 309 312 309 318 324 326 326 323 326 326 326 326 327 326 325 324 321
327 321 319 319 320 320 319 318 315 309 315 313 308 304 302 301 300 299 300 299 301 301 299 299 304 305 303 306 312 314 316 323 324 324 325 323 321 317 316 313 312 311 306
323 319 319 319 319 318 317 315 315 313 310 306 302 301 299 298 297 297 297 297 297 296 296 296 296 298 299 300 302 300 290 288 305 301 314 308 305 304 302 301 299 298 297
321 319 319 319 319 318 315 311 309 308 305 301 300 300 297 295 294 293 295 295 294 294 294 293 292 292 292 291 290 287 287 288 295 290 306 307 303 300 298 299 297 296 296

GFSGL_sfc_thetae_060.txt.gz
Theta_e
326 327 325 325 327 330 334 339 345 352 349 346 348 351 352 351 352 353 355 354 352 351 349 348 346 347 342 339 340 337 337 334 328 333 336 335 335 334 334 336 339 337 335
323 327 326 325 327 329 333 338 342 344 348 348 349 349 348 348 353 353 353 351 349 347 346 345 343 342 344 343 340 341 337 337 331 331 331 331 332 334 333 336 335 338 338
320 325 328 329 330 331 333 338 342 342 346 348 348 347 346 347 351 353 352 348 347 346 345 344 343 342 341 340 340 337 336 336 336 333 328 330 330 334 328 333 333 333 335
318 323 326 330 333 333 334 338 341 341 344 347 348 346 346 348 350 352 350 348 346 345 345 345 343 342 341 341 339 338 337 335 333 330 330 326 328 327 328 326 327 329 328
317 321 325 330 333 335 334 337 341 341 342 345 346 346 348 349 348 350 348 347 345 344 344 342 343 338 330 333 336 338 337 334 330 331 326 326 324 322 322 325 326 327 328
318 320 324 327 330 334 336 339 340 340 342 344 345 345 348 346 314 318 337 345 343 342 338 340 340 329 327 318 318 318 330 336 332 327 329 325 323 325 324 325 324 323 321
318 320 324 327 329 332 336 338 339 342 347 346 346 347 347 347 311 313 318 341 340 339 338 339 337 336 332 336 315 314 315 313 318 334 332 329 326 327 329 327 323 324 326
316 320 322 325 328 332 336 338 342 344 349 349 348 348 345 338 308 308 313 340 339 339 340 339 338 336 335 333 332 330 330 326 328 334 335 334 332 333 330 331 330 328 330
316 319 321 325 329 332 336 338 339 340 343 343 344 345 346 330 303 306 321 338 337 338 337 337 335 335 311 309 330 329 326 326 313 307 309 308 307 310 321 328 325 323 322
316 318 323 328 327 332 334 334 338 340 341 341 342 343 326 330 301 305 319 333 335 333 333 333 309 324 301 303 330 325 323 325 329 329 326 318 318 318 310 327 328 323 322
318 320 325 327 328 332 333 336 338 338 339 338 337 335 330 323 315 303 306 334 332 331 330 330 330 299 298 300 309 328 321 326 320 330 328 328 328 328 327 332 335 328 323
317 320 325 324 331 333 333 334 335 337 335 333 332 328 330 332 312 302 303 312 317 330 329 330 323 297 297 299 311 299 301 313 327 324 324 323 323 326 327 329 332 335 334
320 322 323 329 331 333 330 331 334 336 332 329 329 327 328 329 327 300 300 304 304 329 331 312 297 295 297 304 296 298 302 327 325 320 320 324 325 327 329 330 331 331 333
320 323 328 327 327 329 330 334 334 332 329 328 327 327 328 329 327 328 326 325 308 319 309 316 309 310 306 312 313 316 329 329 328 327 324 324 325 325 325 327 326 327 325
320 325 326 326 327 328 330 333 332 332 328 328 328 329 327 326 327 319 321 328 329 320 321 324 325 327 324 324 325 325 325 326 325 324 323 323 323 323 325 326 327 324 323
324 324 325 324 324 327 325 315 298 301 298 301 307 321 328 309 300 299 298 298 300 301 322 324 324 325 323 323 324 323 325 320 325 326 323 322 321 323 323 323 323 322 323
324 322 323 324 326 324 325 321 317 309 296 295 296 300 303 303 297 296 296 296 297 303 325 323 323 322 323 324 324 323 323 323 325 324 324 326 325 323 320 321 323 323 318
325 311 329 326 327 327 326 325 324 324 322 320 300 304 296 295 294 295 296 303 317 317 326 323 323 323 324 324 324 324 323 324 323 322 322 321 323 322 321 321 320 323 323
328 326 327 328 328 325 328 327 325 325 323 318 313 303 297 293 294 296 299 323 322 323 325 325 325 325 325 325 324 325 324 323 322 322 322 322 323 323 322 319 318 304 308
327 310 318 328 327 327 325 326 324 321 320 321 319 313 309 311 315 317 323 324 321 321 320 324 326 327 325 324 323 324 323 321 323 322 322 323 323 322 320 321 325 321 319
328 328 314 327 326 327 326 324 321 321 320 321 318 316 299 321 321 320 319 323 319 320 321 322 325 325 325 325 324 321 321 322 322 323 323 322 325 321 327 322 324 320 319
328 326 326 327 325 324 323 324 321 319 319 316 313 306 294 319 316 314 315 315 322 325 325 324 324 323 326 325 326 325 325 324 324 325 321 325 325 323 324 324 325 324 324
328 328 328 326 323 313 320 320 319 317 315 315 315 313 310 307 307 308 308 314 320 319 320 321 317 320 322 321 316 323 326 326 328 330 328 327 325 326 326 325 325 323 323
326 324 323 321 320 318 319 319 319 310 316 313 308 307 305 304 304 304 305 306 311 309 309 311 315 318 319 319 319 321 323 321 329 328 327 325 322 318 319 316 314 311 307
326 324 323 321 319 317 317 318 317 315 311 305 305 304 302 300 302 302 305 304 303 301 302 307 307 309 308 308 305 302 290 288 308 302 315 310 305 305 304 302 301 300 301
323 323 322 321 319 319 318 314 312 310 304 302 301 299 300 300 301 301 301 302 301 297 295 295 295 297 297 296 293 288 287 288 296 290 313 312 309 307 305 304 301 299 299

GFSGL_sfc_thetae_063.txt.gz
Theta_e
321 323 327 328 329 331 334 336 340 345 348 348 349 349 351 354 360 360 357 354 352 355 355 352 351 354 345 343 342 339 338 336 328 332 337 339 338 336 337 337 340 339 334
320 321 322 327 330 333 333 334 339 342 347 348 347 345 347 352 356 356 353 349 352 352 351 351 348 346 349 350 341 344 340 341 332 332 336 333 334 337 337 336 339 340 339
319 319 323 326 330 336 336 337 339 339 343 344 346 347 347 352 355 354 351 351 353 353 352 348 346 347 344 344 343 340 337 338 336 333 335 332 332 334 333 334 336 337 334
318 318 321 326 330 332 337 338 336 335 339 342 347 346 349 349 350 350 352 354 353 351 352 349 345 346 346 345 342 342 341 335 335 336 334 331 329 332 332 329 329 332 331
316 317 321 325 327 328 331 336 336 338 339 338 344 347 351 352 348 352 353 354 353 349 348 345 347 341 332 337 343 342 342 335 336 335 333 331 328 327 327 330 330 328 330
315 315 319 320 322 327 331 336 339 337 341 342 344 347 350 346 320 321 344 353 349 347 346 344 344 333 329 321 321 320 330 338 336 333 335 330 326 326 328 327 327 326 322
314 315 317 319 320 324 327 331 334 341 346 347 347 350 351 353 312 313 320 350 347 347 345 343 341 339 334 338 319 317 317 318 320 337 333 328 330 330 330 329 327 329 331
313 314 316 317 319 323 325 332 336 342 346 348 349 353 353 347 308 311 316 348 346 343 342 341 341 341 337 335 336 333 333 332 332 335 333 329 336 334 335 335 332 329 332
312 314 315 317 319 322 324 333 338 341 344 348 351 352 351 336 306 311 325 344 340 339 339 340 338 337 315 311 334 332 331 331 313 309 310 310 309 311 323 332 326 325 324
311 314 316 316 318 322 328 333 339 342 344 346 346 349 333 338 304 309 322 337 338 335 338 336 310 325 303 306 334 332 329 329 324 328 328 319 321 319 311 336 332 324 325
313 316 316 319 321 326 330 336 340 342 341 342 342 343 342 336 323 304 306 337 333 333 332 331 331 301 300 302 304 333 328 326 319 331 332 330 330 329 327 329 329 331 329
314 315 316 321 322 327 330 336 339 340 337 336 334 338 338 336 313 304 305 309 320 333 331 331 320 297 298 301 313 301 304 313 332 330 327 328 327 327 328 330 335 337 337
314 315 317 318 322 329 329 332 337 333 331 332 334 332 333 331 326 301 303 304 308 330 329 308 298 297 298 304 298 299 301 329 328 324 324 327 327 335 333 334 335 334 333
313 314 315 317 325 330 331 335 330 331 335 332 331 330 329 328 327 330 327 324 309 318 310 320 315 312 307 315 314 315 325 330 329 324 324 328 329 329 328 329 328 328 327
314 315 318 321 323 328 328 329 337 340 334 334 333 330 329 326 327 320 323 330 331 321 324 325 326 327 326 325 326 327 328 328 328 329 325 323 323 324 325 328 327 327 324
319 321 320 324 324 319 324 313 300 301 303 306 310 324 327 309 299 298 298 301 303 305 325 326 326 326 323 324 325 325 325 320 326 327 326 326 324 323 323 326 326 326 323
313 319 323 322 325 324 324 323 321 308 299 299 302 305 306 300 297 296 298 299 299 304 327 325 325 325 325 325 324 324 324 326 327 326 324 324 322 324 322 324 323 324 323
318 310 325 325 326 326 328 327 326 325 323 321 300 304 296 296 295 295 297 304 320 318 328 326 325 326 326 325 325 324 325 325 325 324 325 325 326 324 322 322 323 324 323
324 327 326 326 329 325 326 325 327 326 324 319 313 303 298 294 295 297 299 326 325 325 326 327 326 325 326 327 326 325 325 324 323 324 323 324 324 323 323 323 323 305 309
325 309 318 328 324 325 327 324 325 324 322 322 321 314 311 312 317 322 325 326 325 326 327 326 327 328 327 326 325 325 324 323 323 324 325 325 324 324 323 323 323 321 322
327 324 316 326 326 326 326 327 325 324 323 321 319 317 301 322 321 323 324 326 326 326 326 324 325 325 325 325 325 324 323 322 323 323 323 323 325 324 324 322 322 325 323
328 326 327 327 327 327 326 325 323 323 322 319 317 310 294 323 322 322 324 321 323 322 326 327 327 327 328 327 324 324 325 325 326 325 326 325 326 325 326 325 322 324 322
326 326 326 327 327 316 323 323 322 320 318 318 318 316 317 315 316 318 319 317 319 322 323 324 325 324 326 327 328 328 325 327 330 330 328 326 325 326 327 326 323 323 318
328 328 325 323 322 322 322 322 318 311 318 317 313 310 310 308 307 308 312 314 317 319 322 321 322 323 322 322 322 321 322 322 327 327 327 324 322 317 319 317 314 311 307
328 326 323 322 322 322 319 319 318 317 313 312 307 305 304 306 306 305 308 312 310 308 311 314 313 311 310 310 310 307 290 289 309 302 316 310 308 307 303 302 302 302 302
326 324 323 320 321 320 318 317 315 312 308 306 304 303 303 303 305 304 301 300 301 300 300 302 300 298 297 297 293 288 288 288 298 292 311 308 309 309 306 303 302 300 299

GFSGL_sfc_thetae_066.txt.gz
Theta_e
325 326 328 329 330 335 333 331 332 335 337 338 339 343 346 354 354 353 352 354 352 352 350 347 347 347 347 344 343 340 337 336 329 330 335 336 333 332 333 333 334 333 326
320 321 324 325 328 332 334 333 333 331 333 336 340 341 345 345 346 348 350 353 350 348 347 345 347 348 347 345 341 339 337 336 333 326 331 331 331 332 331 331 333 336 333
317 318 322 326 328 328 331 334 333 332 332 334 336 341 343 343 343 349 352 352 348 347 347 347 347 346 344 342 341 339 336 336 334 330 328 330 330 330 329 330 329 329 329
314 315 317 324 326 328 330 331 332 334 331 331 334 338 341 345 344 347 351 350 347 348 349 349 347 345 344 342 340 337 335 333 333 330 329 327 326 328 329 324 325 326 325
313 314 315 320 324 325 324 326 329 331 333 332 332 336 341 344 346 349 350 349 347 347 347 346 346 342 336 338 339 337 336 333 330 329 326 326 325 324 322 325 324 325 326
312 311 315 317 319 321 323 325 328 330 332 335 332 335 337 343 325 321 340 348 349 347 343 344 343 330 326 324 323 319 330 333 330 328 327 324 324 324 325 325 323 323 318
311 312 311 314 316 318 320 322 323 327 331 333 334 336 338 345 315 313 321 349 347 344 343 343 340 339 331 329 319 315 317 314 320 330 326 325 325 325 326 324 324 324 321
311 311 311 311 314 316 318 320 323 327 330 331 334 337 341 343 309 309 316 347 345 344 344 344 341 338 337 335 331 330 330 328 327 330 330 328 329 330 329 327 326 324 325
308 310 311 311 311 316 316 319 324 328 329 330 333 337 341 337 305 308 328 343 342 340 342 341 339 337 312 314 333 330 329 325 311 309 310 310 311 312 320 328 324 322 318
309 310 312 311 309 312 317 319 323 327 329 329 331 338 332 339 306 309 330 341 338 337 333 328 312 327 303 308 333 330 327 327 324 324 322 314 315 316 312 330 326 322 320
310 311 312 311 310 312 319 321 322 325 327 329 333 338 341 335 321 308 312 338 336 334 333 332 324 300 299 302 309 331 324 327 319 325 326 327 327 326 326 327 327 325 322
310 311 312 313 313 316 319 320 323 325 326 329 332 336 339 332 310 306 311 321 322 332 330 330 313 297 298 302 313 299 302 314 326 324 324 324 323 324 325 326 327 327 329
310 311 312 314 316 316 318 320 321 324 326 328 331 332 332 324 317 301 302 307 311 330 330 310 298 297 298 303 298 298 305 326 325 324 323 323 326 328 329 327 329 329 328
308 310 312 314 314 317 318 320 322 325 327 329 330 327 328 326 325 321 319 316 308 311 308 313 311 309 307 311 312 311 325 328 326 323 322 324 326 327 325 326 324 325 323
308 310 312 313 315 317 318 319 324 328 328 330 331 330 327 325 326 319 322 327 327 319 320 322 323 323 322 322 323 324 325 327 326 326 324 324 323 323 322 326 324 324 320
308 310 312 313 314 317 319 313 300 307 303 305 310 323 327 311 303 303 302 302 303 306 322 323 323 324 323 323 323 325 325 321 325 327 324 323 321 321 320 322 324 321 320
309 312 314 313 316 318 318 315 309 307 302 301 302 303 306 302 300 301 301 301 302 305 325 325 324 323 322 323 324 324 323 324 324 324 324 323 322 322 317 321 321 321 319
315 306 319 321 320 321 321 321 323 321 317 312 298 301 298 297 296 296 298 306 317 318 327 323 324 324 323 324 323 324 324 324 324 323 322 320 323 322 321 320 321 320 320
318 318 321 324 325 322 325 326 325 321 315 310 310 303 297 295 296 298 301 324 323 326 325 324 326 325 323 324 325 324 324 324 323 323 322 322 322 322 321 321 319 305 307
317 310 317 325 324 326 326 325 322 321 320 319 316 313 312 315 319 320 325 325 326 324 325 325 326 326 326 326 325 324 323 321 322 323 323 323 322 322 321 321 320 318 318
324 323 313 325 326 326 326 323 323 323 321 318 316 315 300 322 322 323 324 325 326 326 326 325 325 326 326 325 325 323 323 322 322 322 323 323 323 321 322 321 321 322 321
326 326 326 325 325 324 324 324 323 322 319 318 318 308 292 324 324 324 324 324 324 326 327 327 325 324 326 325 323 323 323 323 323 325 324 323 323 321 322 323 321 321 320
326 325 325 325 324 314 321 321 320 319 318 319 318 318 320 320 321 321 322 324 323 321 321 323 322 325 327 325 323 325 325 325 326 327 326 324 323 324 322 319 315 312 308
325 325 326 325 324 322 319 318 318 310 316 314 312 312 313 314 313 313 314 316 317 316 315 314 314 316 316 317 317 313 311 322 324 324 323 320 315 311 310 308 307 304 302
325 325 324 323 319 317 317 317 316 314 311 309 308 308 308 308 307 308 308 308 309 310 309 309 308 305 306 305 304 303 291 291 308 301 311 308 304 303 302 301 301 300 300
324 322 321 321 320 318 316 313 311 308 306 305 305 306 304 304 301 302 301 301 302 300 299 299 298 299 297 295 293 288 288 289 296 292 306 305 305 303 302 301 299 297 297

GFSGL_sfc_thetae_069.txt.gz
Theta_e
312 314 315 316 317 319 324 324 324 324 327 330 329 330 332 337 345 343 345 347 345 346 346 345 343 341 340 339 336 332 329 328 322 325 327 328 326 327 328 329 329 328 325
313 314 316 317 318 317 319 323 324 323 324 327 330 332 334 335 340 348 347 348 348 346 347 343 343 344 340 338 334 331 330 330 326 321 324 324 325 325 326 326 329 332 328
308 307 307 311 315 316 319 321 323 325 324 324 325 326 329 336 336 340 345 346 346 346 346 343 341 341 339 338 335 331 331 331 330 323 322 324 323 325 323 324 324 324 326
309 307 306 307 310 315 318 321 323 326 326 326 326 326 328 330 336 339 339 341 343 347 345 344 342 343 342 338 335 332 330 329 325 323 321 319 321 322 322 320 320 321 319
307 306 306 307 308 310 314 318 320 321 322 323 325 328 328 329 332 337 340 341 345 343 342 344 343 339 333 335 335 330 326 325 323 321 319 318 318 318 318 321 318 318 324
306 306 307 308 309 309 311 315 317 318 320 323 325 327 327 328 318 316 330 339 345 339 340 342 338 329 329 324 325 323 326 328 322 321 319 317 317 319 320 320 319 316 315
305 307 308 308 309 309 310 314 314 315 318 321 324 325 326 328 314 313 312 342 340 340 339 335 334 333 327 326 317 319 317 314 321 324 320 319 319 321 322 320 319 319 316
305 306 307 308 308 308 308 309 311 311 313 316 319 322 325 329 313 310 310 334 340 336 335 336 332 327 326 324 323 323 322 322 322 326 323 323 323 324 323 324 321 320 323
305 306 307 307 306 307 307 307 308 311 314 317 321 324 326 328 309 306 309 332 335 334 336 335 332 330 312 311 325 322 320 317 309 309 311 308 306 309 319 326 320 320 316
305 306 307 307 306 306 307 307 308 313 316 318 320 322 320 327 312 305 309 335 331 330 326 327 315 324 304 307 326 323 319 317 318 318 317 313 313 314 308 324 323 319 316
306 307 307 307 307 307 307 307 307 310 314 316 320 321 325 325 328 302 305 334 331 328 326 322 315 302 300 304 311 323 319 319 314 319 318 319 322 322 322 323 323 321 319
306 307 306 306 307 309 307 307 308 312 312 314 316 319 324 327 311 303 303 316 320 328 326 321 309 299 302 300 310 299 300 312 319 319 319 321 320 318 320 321 325 323 326
305 306 306 307 308 309 308 309 309 312 312 315 317 319 322 320 316 302 304 309 311 325 324 311 298 297 297 300 297 298 306 320 319 320 317 317 321 322 320 319 321 323 326
303 305 306 307 308 309 310 311 310 312 313 315 316 318 322 319 316 313 314 312 306 308 304 305 306 307 307 305 308 311 320 320 320 320 316 322 323 320 319 319 318 319 317
303 304 307 307 307 308 309 310 312 313 314 315 319 322 325 319 319 315 318 321 320 314 314 316 317 317 315 315 315 317 318 321 319 318 316 317 319 318 319 319 318 318 315
303 304 305 306 307 309 309 308 297 298 300 301 304 317 325 312 305 304 304 303 303 305 318 318 317 316 316 315 315 316 317 317 321 320 319 318 320 318 316 320 318 320 315
302 305 307 307 310 310 309 310 311 302 297 298 300 302 307 306 300 302 303 303 301 309 319 318 318 317 317 317 317 317 317 321 323 323 321 320 320 319 314 319 317 319 315
305 301 308 310 311 311 312 314 315 313 314 310 301 305 298 299 300 301 299 304 316 316 320 319 318 316 317 317 317 317 317 319 320 320 319 320 316 319 318 317 317 318 315
306 310 310 313 315 314 317 318 318 318 313 307 307 302 299 298 299 300 303 319 318 319 321 322 319 318 318 320 318 317 318 318 316 317 319 320 320 319 314 315 314 303 306
314 307 310 316 317 319 320 319 315 313 313 313 312 308 308 313 318 316 318 319 319 318 322 321 318 320 321 319 318 318 316 316 318 319 319 320 319 319 318 318 315 313 315
316 318 308 320 319 320 319 319 318 317 315 314 314 312 300 318 316 317 318 318 319 321 323 321 319 320 322 320 319 317 317 319 320 321 320 320 320 318 316 318 318 317 318
322 318 319 318 320 321 321 319 316 316 317 316 313 302 296 319 319 318 319 319 319 320 320 320 321 322 321 318 319 318 317 319 319 319 320 320 319 319 319 319 315 316 312
325 323 322 321 321 312 317 317 316 317 316 316 314 317 318 318 318 319 318 317 319 318 321 323 322 321 320 317 317 320 321 318 320 320 318 318 320 318 313 309 306 303 303
324 322 320 319 318 317 316 315 315 309 315 315 314 314 314 315 314 314 314 313 312 310 309 309 310 311 309 308 306 306 313 315 319 318 315 311 308 305 304 302 301 300 300
322 320 318 316 315 315 313 312 312 311 310 309 309 309 308 307 306 306 306 305 303 301 300 299 298 297 298 299 300 299 292 292 303 298 307 305 303 301 299 298 296 295 295
318 317 315 315 314 312 309 309 308 307 307 306 305 304 303 302 300 299 299 297 295 294 293 293 292 292 292 292 293 289 288 289 293 291 301 301 300 298 296 294 293 292 292

GFSGL_sfc_thetae_072.txt.gz
Theta_e
307 307 308 310 313 315 318 320 319 319 321 323 325 327 329 330 333 336 337 336 333 331 335 336 337 339 342 342 339 332 328 324 321 322 324 326 324 325 326 326 328 326 325
308 309 311 312 313 313 313 315 320 321 322 322 324 326 327 330 330 335 337 335 333 331 335 339 341 345 341 343 336 332 327 326 323 320 322 324 323 324 324 324 327 331 326
310 310 308 309 309 309 311 313 316 320 321 320 322 322 323 324 326 330 333 337 343 342 342 343 343 343 342 339 335 331 328 328 327 322 321 323 322 322 321 321 322 321 324
305 304 304 304 305 307 308 310 314 317 319 322 322 324 325 325 326 327 328 333 338 343 344 344 345 343 341 337 334 333 328 326 325 324 322 318 319 320 320 317 317 318 317
306 305 304 305 305 305 305 306 309 313 315 319 322 321 322 324 326 326 326 327 334 336 339 342 343 341 333 332 334 330 326 323 323 322 318 316 317 316 317 317 316 317 318
304 304 306 306 306 306 305 306 306 307 310 311 313 318 318 321 314 312 316 324 330 336 337 342 343 328 328 320 321 321 325 324 321 319 317 316 315 316 317 317 315 314 316
304 305 306 306 306 306 307 307 306 306 311 313 315 318 319 321 311 308 310 320 323 332 337 340 335 339 329 330 316 317 316 313 319 322 319 317 316 318 318 316 315 315 314
304 304 306 306 306 306 305 306 306 305 307 310 313 316 316 317 308 306 309 320 324 329 336 337 333 328 329 328 326 324 322 322 321 325 323 321 320 321 322 321 318 316 318
304 304 305 306 305 305 305 305 306 304 307 307 310 311 312 316 309 307 309 322 324 329 335 334 333 329 311 309 325 322 319 317 308 306 307 305 305 306 315 321 317 318 316
304 304 305 305 304 304 305 304 305 305 306 308 313 316 314 318 310 302 307 320 324 329 328 328 312 324 304 306 324 321 317 316 317 316 318 315 311 311 307 321 323 319 315
305 306 305 305 304 305 305 304 304 305 305 306 310 313 316 317 318 305 302 317 326 328 324 327 326 304 301 304 310 323 318 316 312 316 316 316 317 317 320 320 321 320 316
305 305 304 304 305 306 305 304 305 305 303 306 309 312 315 316 309 307 302 301 314 329 326 327 317 299 301 300 310 300 299 310 318 316 315 315 317 319 320 319 321 323 324
304 302 303 304 305 306 304 304 304 305 304 305 308 310 311 315 317 304 301 299 300 323 324 314 302 299 300 301 297 296 304 319 317 317 316 316 320 320 318 317 319 320 324
302 302 303 304 304 305 308 307 306 306 307 309 310 311 312 314 318 317 313 309 305 311 307 307 308 308 305 304 307 311 318 318 318 318 315 316 317 316 316 316 315 316 318
302 302 302 304 305 305 306 307 308 309 309 309 311 312 312 314 318 311 313 319 320 315 312 316 318 317 315 314 313 316 317 317 317 315 315 315 315 316 315 316 315 315 313
300 302 302 303 305 305 305 306 298 299 299 297 298 307 316 307 302 301 300 300 303 304 318 318 317 317 315 313 314 313 315 314 315 316 315 316 318 318 318 318 315 316 317
300 301 303 303 305 304 304 305 304 300 297 301 298 295 296 302 298 298 298 301 301 307 318 317 316 315 314 314 315 314 314 316 318 317 316 319 319 319 315 318 317 315 313
301 299 303 306 306 307 307 307 307 306 305 307 300 298 296 297 296 297 300 304 316 313 318 316 315 315 316 316 316 314 315 317 317 319 319 320 316 316 314 315 314 316 314
300 302 303 306 309 308 308 308 309 309 309 310 306 300 299 298 298 298 301 320 317 317 317 317 317 317 317 316 315 315 315 316 315 316 317 316 315 316 315 313 312 301 305
303 299 302 308 309 312 312 312 312 314 311 310 311 307 305 306 313 317 317 319 318 318 319 318 316 317 317 317 316 316 314 313 314 318 318 318 318 318 316 315 315 314 312
306 306 302 310 311 313 314 316 315 313 313 314 311 308 300 319 318 318 317 318 318 320 321 320 318 319 320 317 317 315 315 315 316 317 319 318 319 318 318 318 317 314 313
316 318 315 316 318 318 318 317 316 316 315 314 313 305 294 320 318 316 316 316 317 322 322 319 318 319 318 318 317 316 316 319 319 320 320 319 318 316 318 317 313 312 312
315 316 314 316 318 310 316 317 317 317 316 316 317 318 318 317 316 315 316 317 318 320 320 320 318 316 315 315 315 315 315 315 316 318 318 317 315 311 310 310 308 306 308
321 320 318 318 317 317 317 316 315 308 317 318 318 317 316 313 312 312 311 310 308 306 308 310 312 310 308 307 308 311 313 317 317 316 313 309 306 303 302 301 301 300 298
318 317 316 315 315 315 315 315 313 313 313 313 311 309 307 307 305 304 303 302 301 299 298 300 302 301 303 304 303 300 292 293 304 299 305 303 300 299 297 296 295 294 292
316 315 314 314 312 312 311 309 309 308 308 306 305 303 302 301 299 298 297 297 296 295 294 293 294 294 294 293 292 288 289 289 294 292 301 299 297 295 294 292 290 288 288

GFSGL_sfc_thetae_075.txt.gz
Theta_e
308 310 312 312 312 315 315 314 314 315 315 317 320 321 323 324 327 329 332 333 334 334 333 330 331 333 332 336 339 336 335 332 328 330 323 324 324 324 326 326 327 326 324
306 305 306 306 308 309 310 311 313 315 317 319 320 322 323 324 324 324 326 330 333 331 332 332 332 334 333 336 338 337 333 329 328 325 322 323 322 321 323 324 325 329 325
305 305 305 307 308 309 310 309 311 313 315 317 319 320 321 322 321 322 325 327 328 331 336 338 336 336 337 340 341 336 332 329 327 322 321 321 320 320 321 321 320 320 325
304 304 305 305 306 306 307 307 308 310 312 314 317 319 321 322 323 323 323 323 327 329 333 335 341 341 340 339 340 336 328 327 325 322 319 319 319 319 319 317 316 317 317
304 303 303 303 304 304 305 305 306 307 308 309 310 312 317 320 320 320 321 321 322 323 327 333 337 337 332 334 340 335 328 326 321 319 317 316 316 316 317 316 315 315 315
304 304 305 305 304 304 304 304 304 304 305 305 306 307 307 309 306 309 314 318 320 321 322 327 333 330 330 320 319 321 327 326 323 321 317 316 316 316 315 315 313 312 314
303 304 305 305 305 305 305 304 303 302 303 304 305 308 310 312 306 305 308 316 317 317 320 323 328 334 328 338 320 314 315 315 319 325 319 318 316 317 317 314 313 313 314
303 305 305 305 305 304 304 303 302 302 302 303 305 307 308 313 307 304 305 312 314 318 321 324 326 331 334 333 330 326 325 323 321 324 323 321 321 319 320 318 317 316 316
301 304 304 305 304 304 304 303 302 301 301 302 305 306 307 309 304 302 304 315 318 320 323 326 329 333 317 305 326 324 321 319 311 306 308 306 304 304 314 319 315 316 315
299 301 304 305 305 304 304 303 303 301 303 305 305 306 307 310 306 300 303 316 316 319 322 325 313 320 303 303 325 323 319 318 318 317 317 312 310 307 306 320 319 318 317
300 301 302 304 305 305 304 303 302 301 303 303 303 305 307 310 313 301 298 313 316 317 321 325 327 301 301 302 311 324 320 317 312 316 315 315 316 319 320 319 319 320 317
301 301 301 303 304 305 302 302 301 301 301 301 301 303 306 310 303 305 299 299 306 315 318 324 324 301 302 300 310 305 300 309 315 314 313 316 314 316 317 321 319 319 322
300 300 300 302 303 304 303 301 301 301 302 302 302 303 305 310 312 301 299 304 300 308 316 318 304 300 298 304 300 300 304 317 315 317 316 317 315 317 317 318 318 318 321
299 300 301 302 303 303 303 303 303 302 302 303 303 303 305 307 310 312 314 314 302 305 305 305 305 308 305 305 306 310 319 318 316 317 315 313 318 318 314 314 314 315 315
299 301 301 303 303 303 304 304 304 305 304 305 306 308 308 308 311 309 309 315 316 311 311 313 318 318 316 316 318 317 315 316 315 314 314 314 314 314 313 314 314 313 312
298 299 300 301 302 304 304 304 296 299 298 297 298 304 311 304 300 297 297 297 300 299 316 319 319 318 317 317 317 317 314 312 315 314 314 315 314 314 315 314 313 313 312
298 300 301 302 303 303 304 303 302 300 297 298 295 295 294 301 295 295 295 295 296 299 319 319 318 317 316 315 316 317 314 314 314 315 314 315 316 318 315 317 316 313 315
299 298 302 302 303 303 305 305 305 303 304 304 298 297 295 293 293 294 294 297 304 305 319 318 317 315 314 314 314 313 313 315 315 314 314 318 318 317 316 316 316 315 314
300 301 301 302 305 304 306 304 305 305 305 304 306 298 297 293 293 294 295 316 317 318 317 316 315 315 315 315 315 314 314 315 315 314 315 317 315 314 312 315 312 300 306
300 298 299 302 304 307 307 307 306 306 306 308 308 308 301 300 302 304 312 319 318 317 317 315 315 316 316 316 315 314 312 311 313 314 314 314 313 316 312 311 310 309 309
302 303 299 306 305 307 310 309 308 308 310 310 309 305 295 310 311 316 318 319 318 318 316 315 316 316 316 315 315 314 313 313 313 318 318 318 318 316 317 316 315 314 314
304 305 304 304 310 309 311 314 314 314 313 310 309 305 292 319 319 319 317 318 319 318 318 317 317 317 317 316 315 314 314 317 318 319 318 318 317 317 317 316 314 312 311
308 309 311 307 309 307 313 315 315 314 313 313 313 313 318 318 317 317 317 317 317 317 317 317 316 314 315 314 314 315 315 318 319 320 319 317 316 315 314 311 310 309 307
315 317 317 317 317 315 315 315 315 308 315 316 317 316 316 315 312 310 309 311 311 311 313 314 315 313 311 311 313 314 314 317 318 318 316 311 304 301 304 303 300 297 295
317 317 317 316 315 315 315 315 314 313 312 312 310 309 307 305 303 302 303 303 305 305 304 306 308 308 307 307 306 305 295 293 304 298 304 302 300 299 297 295 294 292 291
314 314 314 314 313 312 311 310 309 309 307 307 305 303 301 299 299 300 300 300 300 299 299 300 298 298 297 296 295 290 290 290 295 292 300 298 296 294 292 291 289 287 286

GFSGL_sfc_thetae_078.txt.gz
Theta_e
309 310 312 312 314 314 315 316 316 317 318 319 321 322 324 326 330 330 330 331 332 334 336 334 331 330 330 332 338 338 336 334 329 333 333 332 330 331 333 333 334 334 332
306 309 311 313 313 313 315 316 316 317 318 320 322 323 324 325 325 325 326 329 330 331 334 334 334 334 332 333 334 335 338 334 333 330 332 329 328 329 330 330 331 333 332
306 306 307 307 307 309 310 312 313 315 317 319 321 322 322 323 324 324 325 326 326 327 329 332 335 337 334 333 336 336 335 336 332 331 331 328 327 327 327 328 328 328 327
306 306 306 306 307 308 310 311 312 314 314 316 318 319 320 321 323 324 325 325 324 326 329 331 332 333 335 337 339 341 339 334 331 329 327 326 325 326 326 325 325 326 326
305 305 306 308 308 308 308 309 310 310 311 312 312 313 316 318 318 320 321 322 322 323 325 328 330 330 326 328 336 339 340 334 330 326 324 324 323 324 324 324 325 324 325
304 304 306 306 306 307 307 307 307 307 308 308 309 310 310 310 304 304 309 315 318 322 322 324 326 323 325 318 317 318 328 335 329 326 324 323 322 324 323 323 323 322 321
303 304 305 306 306 306 307 306 305 305 306 306 307 309 310 311 304 303 305 313 315 319 321 321 322 325 323 331 323 315 313 312 317 329 324 322 322 325 324 322 322 323 323
301 302 304 305 305 306 306 306 305 305 305 305 307 308 309 310 303 301 303 313 317 318 319 321 323 325 327 328 333 334 327 324 325 327 328 327 328 327 329 328 326 324 324
300 300 302 303 305 305 305 305 305 304 304 305 307 308 308 309 302 301 303 312 314 317 322 325 326 327 315 305 326 330 325 323 310 307 308 306 303 305 317 326 323 323 319
299 300 301 302 304 305 305 306 305 305 305 306 306 307 306 308 301 300 303 312 315 320 322 323 308 315 307 303 323 326 323 323 320 318 317 313 311 310 306 330 326 323 322
300 301 301 301 302 304 305 306 305 305 306 304 305 306 307 308 309 300 298 310 317 318 318 320 323 304 302 299 302 329 325 321 316 323 322 322 320 321 322 326 328 328 324
300 300 300 301 301 302 302 305 305 304 303 303 303 304 306 308 301 302 300 298 307 315 316 319 320 302 301 296 302 302 302 311 322 321 319 319 321 319 322 325 327 328 330
299 299 299 300 301 303 302 303 302 302 303 302 302 302 304 307 309 298 298 296 297 305 313 311 300 300 297 301 301 298 302 320 320 319 318 319 323 324 325 325 326 327 328
298 298 299 299 300 301 303 304 302 302 302 303 303 303 305 306 308 312 311 311 302 305 307 310 307 305 303 307 307 306 321 322 322 321 319 321 322 323 322 324 324 325 325
296 297 297 299 299 300 302 303 303 305 304 303 304 305 305 305 307 305 307 312 316 311 311 313 312 314 315 316 316 319 319 320 320 320 319 320 322 321 321 322 322 322 321
295 295 298 299 300 302 302 303 297 299 297 297 298 304 308 301 299 297 296 297 297 296 312 313 315 317 317 318 318 318 318 316 321 322 322 322 321 321 321 321 322 322 320
295 297 300 300 301 302 302 303 301 299 294 294 294 294 294 300 296 295 295 293 293 295 316 316 318 319 320 320 320 319 318 320 321 322 322 322 322 322 320 321 321 321 321
297 297 300 301 302 303 303 304 305 304 303 305 297 298 294 294 294 292 293 294 307 299 315 319 320 321 319 319 319 319 319 320 321 321 322 323 323 322 320 318 318 320 317
299 300 302 303 304 303 305 305 305 305 305 305 305 297 297 293 292 291 293 307 311 310 316 319 320 318 318 319 320 321 321 321 320 321 322 323 322 320 318 318 314 303 308
301 297 299 302 303 304 304 305 305 304 304 303 304 306 305 299 301 303 302 307 314 315 318 318 318 318 319 320 321 321 319 317 320 321 322 322 318 318 318 316 315 319 317
301 301 299 302 304 305 305 306 306 306 305 305 306 307 295 305 306 306 306 310 317 319 318 318 319 319 321 320 320 320 321 321 322 322 321 321 321 318 319 320 319 318 316
302 304 303 303 305 305 306 309 309 308 308 309 309 304 290 307 310 309 316 318 320 320 319 319 320 321 321 321 321 321 321 321 322 321 320 320 320 318 319 317 316 315 316
303 304 305 304 305 303 308 311 312 313 312 311 310 307 303 314 316 318 318 320 319 318 319 321 320 320 322 322 323 323 323 322 321 322 320 319 318 317 316 314 313 311 310
305 306 306 307 306 308 311 312 313 305 312 313 314 315 315 315 315 315 317 317 318 319 320 321 321 320 319 320 321 322 323 322 322 321 319 316 311 308 308 305 301 300 295
317 316 316 315 313 314 314 314 314 314 313 311 311 308 308 310 308 309 312 313 313 314 314 315 319 315 315 315 318 314 296 295 309 300 309 308 305 304 301 299 296 293 292
311 312 312 313 313 313 312 311 309 309 309 307 305 304 303 303 304 305 306 307 307 306 307 310 309 307 308 309 308 292 290 291 297 293 304 301 298 296 294 292 292 292 292

GFSGL_sfc_thetae_081.txt.gz
Theta_e
321 323 324 326 327 327 327 329 329 330 330 331 331 331 333 335 338 339 338 337 336 337 337 336 336 340 336 336 337 336 334 333 327 333 339 344 344 342 339 341 342 342 337
317 318 321 324 325 326 326 328 329 328 330 328 329 329 330 330 333 332 330 330 329 328 328 329 329 332 338 341 340 333 334 334 333 336 334 340 339 339 339 339 339 339 341
316 317 320 321 323 325 327 329 329 329 328 327 327 328 328 330 329 331 329 329 330 329 328 327 327 330 334 336 340 335 335 334 337 333 334 341 338 334 334 336 338 339 338
312 313 316 321 322 324 326 326 326 326 325 326 328 327 327 326 325 325 325 325 325 325 327 328 327 327 330 332 333 337 341 338 336 334 333 332 333 333 334 333 330 334 334
309 310 312 316 319 321 320 322 323 324 325 325 325 323 322 321 318 320 319 319 320 321 323 323 325 327 323 324 325 332 336 339 339 333 328 330 328 328 328 332 331 334 334
306 307 309 310 313 316 318 319 321 322 322 321 319 318 319 315 305 306 312 317 318 319 320 323 324 324 323 314 314 315 325 336 338 336 331 328 330 332 331 330 332 328 327
307 307 308 308 310 312 314 317 319 320 321 319 318 318 318 319 302 303 305 317 318 320 323 326 326 326 322 327 321 313 315 311 315 333 329 332 334 332 330 331 331 332 334
306 306 307 308 308 310 311 313 317 318 319 318 318 318 318 318 302 301 302 318 318 320 323 327 328 328 329 330 333 334 336 340 329 325 335 341 337 336 335 334 336 336 334
305 306 306 307 308 308 310 312 314 316 316 316 317 317 317 318 301 299 305 316 315 318 320 324 326 329 316 302 325 326 332 337 313 309 312 309 307 310 323 333 331 329 326
304 306 307 307 307 307 310 312 313 314 314 314 315 317 313 318 300 299 304 313 314 314 319 327 309 320 306 299 321 325 328 333 326 320 322 312 312 314 308 337 335 329 326
304 306 308 308 307 308 310 312 313 312 313 314 315 318 317 316 315 298 298 313 312 312 315 323 325 302 297 296 299 323 327 330 320 328 329 326 328 328 329 334 337 335 330
300 301 303 307 306 306 309 310 312 313 312 313 312 313 315 317 305 300 298 297 306 314 314 318 322 301 296 298 303 303 300 310 328 327 326 324 326 326 327 333 336 336 336
297 298 300 303 303 307 308 308 308 311 309 308 308 309 311 313 314 297 298 297 296 307 315 312 300 297 299 303 297 298 298 327 327 325 325 327 330 327 329 331 333 334 335
295 295 298 299 300 302 304 306 305 305 307 307 308 308 310 311 312 314 313 311 299 304 307 312 310 304 299 306 309 304 327 326 326 325 325 326 327 327 328 328 327 330 329
294 294 296 298 300 300 301 303 305 309 309 309 309 309 309 309 310 307 308 313 315 311 312 319 317 318 317 316 318 317 324 325 325 324 323 323 324 326 325 329 330 330 328
293 294 296 298 298 300 301 302 297 299 297 297 298 305 310 302 299 298 297 296 294 296 313 316 317 317 315 316 318 321 323 320 326 327 328 327 326 323 324 327 328 329 327
294 295 296 299 299 298 300 300 300 298 296 296 295 296 297 300 294 293 293 292 292 295 312 316 318 318 318 320 321 321 320 324 327 328 326 328 327 327 324 326 326 327 325
296 295 297 298 301 301 301 302 304 304 303 305 296 297 293 293 294 293 292 296 304 300 314 318 319 318 321 322 323 324 324 325 328 329 328 327 327 326 325 325 326 325 324
301 299 302 302 302 302 304 305 305 305 305 306 308 297 298 293 292 291 292 309 313 316 317 316 320 322 322 324 325 324 325 326 326 328 327 328 329 328 325 323 320 307 312
302 297 300 304 304 305 305 305 306 306 306 308 307 307 309 300 301 302 302 307 309 316 318 317 320 322 323 323 324 327 327 325 327 327 327 329 329 326 321 319 319 320 322
303 302 298 303 303 304 305 305 306 307 305 305 306 306 296 307 309 310 309 309 313 318 319 320 321 320 323 324 326 328 326 327 328 328 329 328 325 319 323 322 322 326 325
305 304 303 302 303 304 306 307 308 309 310 309 308 307 290 308 311 313 314 315 318 319 322 322 321 321 323 326 328 328 327 328 328 327 327 327 327 326 326 326 324 324 322
306 306 306 306 306 302 307 309 311 312 311 311 312 311 305 309 310 315 315 317 320 321 321 322 322 324 328 329 330 329 328 329 329 329 327 324 324 323 324 323 321 318 314
305 306 308 309 309 311 312 313 312 305 312 312 312 310 307 308 312 315 317 321 320 321 321 321 323 327 328 329 330 331 331 332 331 329 326 322 318 315 316 312 308 306 302
305 307 309 312 313 310 311 311 314 314 313 312 311 312 314 315 317 317 317 322 322 325 323 325 327 328 329 329 329 329 306 295 320 307 320 317 313 309 305 302 299 299 296
307 308 311 312 312 312 312 313 312 311 306 306 307 306 308 310 313 315 314 317 320 322 323 325 325 322 325 326 323 297 291 293 304 297 312 311 306 302 299 296 296 297 298

GFSGL_sfc_thetae_084.txt.gz
Theta_e
328 331 331 330 331 332 332 333 333 336 336 334 336 338 340 342 345 347 348 346 343 344 345 343 341 343 344 339 338 337 333 333 330 332 339 341 340 345 347 349 344 345 337
323 326 326 328 329 330 330 331 332 333 333 332 332 332 333 336 340 340 339 339 339 338 338 335 333 333 338 341 337 339 337 337 335 330 333 334 340 346 346 343 342 343 345
319 322 323 326 328 330 330 331 331 330 330 331 330 330 330 330 331 331 329 330 330 330 329 328 327 329 331 331 334 334 336 336 336 334 328 333 336 343 340 342 343 342 343
316 317 319 324 327 328 330 331 330 328 327 327 328 327 327 328 328 328 328 329 329 327 327 327 325 326 328 330 331 331 333 333 336 336 336 336 339 341 337 333 334 339 339
314 315 316 318 322 325 327 329 329 328 326 326 326 325 326 327 325 326 325 325 325 323 323 322 324 324 321 323 325 329 329 327 328 330 334 337 334 332 330 335 336 338 338
311 311 315 316 316 318 323 327 329 328 327 325 323 323 326 322 306 310 320 323 322 320 320 322 325 322 320 315 315 314 320 328 331 329 332 333 337 336 335 335 335 336 332
311 309 312 313 314 315 317 320 324 328 330 328 326 324 325 326 303 304 306 321 321 322 322 324 325 323 322 328 316 311 312 310 314 334 334 338 339 341 342 337 336 336 335
310 311 310 308 309 311 315 315 321 324 329 331 329 328 327 324 301 301 304 321 321 322 322 323 326 328 329 327 326 329 331 334 334 330 335 338 343 346 342 341 339 341 343
307 309 311 309 309 310 310 313 318 322 324 326 327 327 326 325 301 300 307 319 320 321 321 321 322 325 314 305 329 327 328 330 319 309 309 305 306 308 319 336 333 336 334
304 305 310 310 311 311 316 316 317 320 321 321 323 326 318 325 300 298 306 316 318 317 321 322 308 317 308 297 328 325 323 326 331 337 328 318 320 321 308 338 342 337 332
301 305 304 306 309 312 316 319 319 317 319 322 322 325 323 322 318 298 299 317 315 316 316 316 319 301 299 297 299 324 322 322 325 330 330 332 331 329 331 335 343 343 333
297 298 301 304 307 309 315 315 316 319 318 320 320 320 319 323 308 298 297 299 308 316 315 316 317 297 297 296 303 303 296 302 324 328 329 327 327 329 333 336 341 342 341
295 296 296 300 302 305 308 312 312 316 314 314 313 314 316 318 320 301 297 297 297 311 315 311 298 298 299 303 299 296 296 319 328 327 328 328 329 334 333 335 338 337 337
294 294 295 297 299 300 303 306 307 310 311 312 313 313 314 316 317 318 313 311 299 305 307 312 310 305 298 307 311 315 323 328 329 329 328 331 332 329 330 332 334 337 331
295 295 295 296 298 299 300 301 305 310 310 312 313 314 314 313 315 311 312 316 317 312 312 316 316 318 319 321 322 323 326 329 329 330 329 327 327 328 329 332 334 333 330
294 293 295 295 296 299 300 300 298 299 298 297 297 305 314 304 299 298 299 299 295 295 313 314 314 317 318 319 320 320 323 321 328 327 327 328 327 327 327 330 333 330 327
294 294 295 296 298 297 299 298 300 300 296 295 296 296 298 299 296 296 297 294 292 297 312 313 315 317 319 320 321 320 322 326 329 329 331 330 327 328 325 328 328 329 326
298 295 297 297 299 300 299 301 301 300 303 306 295 299 295 292 293 293 292 295 304 301 312 313 315 317 319 320 320 324 323 326 329 331 331 329 329 328 326 327 327 327 327
298 300 301 301 301 301 302 302 302 302 303 305 308 297 296 292 292 292 293 312 312 312 314 315 316 319 321 321 326 323 325 325 326 331 331 328 329 328 327 327 327 310 315
305 297 299 302 302 302 301 301 301 302 304 305 306 307 308 301 304 304 306 312 314 315 316 316 319 320 320 325 325 325 326 324 331 331 330 331 331 331 329 328 326 324 325
305 305 298 305 304 305 305 305 305 306 306 306 306 308 297 308 309 310 311 312 313 315 317 318 319 319 322 327 325 329 329 329 330 329 329 330 331 328 328 326 324 325 326
305 305 305 305 305 305 306 307 307 307 308 309 309 306 291 311 311 312 313 314 315 317 318 320 321 323 326 324 327 329 330 328 330 330 332 330 330 328 327 326 326 328 324
308 308 307 307 307 302 308 310 310 309 307 309 310 310 309 309 312 314 315 316 317 318 319 321 325 325 324 325 332 333 330 330 332 333 331 329 326 326 328 327 326 323 322
309 310 309 309 310 311 311 312 313 305 313 314 314 312 311 311 311 316 317 318 319 321 322 325 325 323 325 328 331 330 332 334 332 333 332 329 328 323 327 326 323 316 310
305 309 312 312 312 314 314 313 312 313 313 313 312 314 317 315 314 318 319 321 323 324 323 322 323 326 327 330 330 331 308 296 325 314 330 330 327 326 322 314 311 309 307
298 302 306 308 311 313 313 313 313 310 308 307 308 313 314 314 318 320 321 323 321 320 323 324 327 325 329 329 330 301 294 296 315 301 325 318 315 314 310 308 307 306 303

GFSGL_sfc_thetae_087.txt.gz
Theta_e
325 328 332 335 340 342 338 334 340 346 347 346 346 347 348 350 353 351 351 348 347 346 348 345 343 344 340 342 344 344 338 336 331 332 336 343 346 344 341 347 348 348 344
322 325 328 331 334 337 336 330 337 338 340 336 338 337 338 339 345 343 343 343 342 342 344 344 342 343 344 345 345 341 336 340 335 333 336 337 340 343 344 345 343 345 345
319 320 322 327 330 333 332 336 334 335 334 332 331 331 332 333 335 338 338 339 339 340 340 339 337 338 338 337 340 336 336 337 337 333 332 336 337 339 339 341 346 346 348
316 318 320 321 327 330 332 331 330 330 330 329 330 329 328 329 332 333 334 336 335 334 333 331 329 328 331 336 335 339 335 332 332 332 332 333 336 343 342 338 337 340 339
314 314 317 321 321 324 328 330 330 330 328 327 328 329 329 330 327 330 331 332 333 329 328 324 327 324 320 321 324 333 336 328 322 323 325 329 330 337 335 337 334 339 340
312 312 315 315 319 319 321 326 329 328 327 328 325 326 329 324 310 313 328 331 327 325 323 322 323 321 320 314 313 313 319 328 328 319 321 324 335 334 338 338 336 336 326
309 312 312 314 314 318 318 319 325 332 336 333 329 328 328 330 305 307 315 329 329 327 325 325 324 321 322 325 314 311 312 310 313 329 332 333 334 338 341 339 341 339 330
304 307 310 312 313 315 315 314 323 329 332 332 333 331 328 326 303 304 309 331 329 327 326 325 327 326 326 327 329 327 327 333 333 327 332 338 341 342 344 343 342 340 336
301 303 306 309 311 313 314 312 320 320 328 331 329 333 332 328 300 300 309 325 324 324 323 324 324 324 311 306 327 324 325 329 321 311 310 307 307 305 313 332 338 325 325
298 300 304 305 307 306 315 316 314 319 318 322 325 330 325 332 298 299 310 316 324 320 326 325 309 316 306 300 326 326 324 324 325 329 330 326 316 324 310 333 335 327 326
300 302 302 303 306 306 306 317 317 314 316 318 321 325 326 327 313 298 299 320 317 318 318 319 321 301 298 297 301 328 323 320 319 324 327 332 332 335 334 332 332 332 331
298 298 299 302 301 302 305 306 316 317 311 312 315 319 324 329 312 298 298 299 311 320 319 319 318 297 297 297 304 307 298 300 321 323 328 328 330 332 333 334 339 339 342
296 295 296 298 300 300 300 304 308 317 315 310 313 314 320 324 326 301 297 298 298 315 318 310 299 296 297 300 296 295 294 321 321 325 326 328 332 332 333 338 339 339 339
295 294 295 295 296 299 300 302 307 311 315 315 317 317 319 321 324 319 311 307 299 305 308 314 310 305 298 303 307 313 322 323 322 327 328 333 336 334 331 334 335 334 335
296 295 296 295 295 296 298 300 302 311 313 315 317 316 318 317 318 316 314 315 314 309 312 316 316 316 316 317 319 318 321 322 325 328 330 330 330 329 331 333 333 333 330
296 295 294 295 295 296 297 299 297 296 295 295 298 307 314 309 302 301 302 302 302 300 311 315 316 316 315 315 318 319 322 319 327 329 330 328 326 328 329 331 332 332 329
297 295 295 295 296 296 297 298 297 299 296 296 295 298 297 295 296 298 297 295 295 300 315 315 315 314 314 315 318 319 320 323 327 329 327 328 329 328 324 329 330 329 327
299 295 296 296 297 297 299 300 299 299 301 302 298 298 297 296 294 295 293 299 307 305 313 313 312 312 313 316 318 320 321 323 326 327 328 331 331 329 327 328 330 329 327
301 299 298 298 299 300 299 300 304 302 302 302 305 298 296 293 291 291 293 315 312 312 312 311 312 313 314 318 320 322 322 325 323 327 331 331 331 332 329 329 329 314 317
305 297 300 302 303 302 301 301 301 301 302 303 302 305 308 304 308 309 311 312 313 312 313 313 314 315 316 317 321 322 324 324 326 330 331 331 330 331 328 326 328 326 324
305 305 298 303 302 302 302 303 305 304 302 302 302 305 300 307 308 309 310 311 312 312 314 315 316 317 317 319 321 325 327 327 331 331 329 329 330 331 329 326 326 325 325
306 307 305 304 305 305 304 304 302 301 301 301 303 306 291 308 309 309 310 311 312 314 316 318 318 319 320 320 320 328 327 328 331 331 332 331 332 331 327 327 326 327 321
308 308 307 307 308 303 306 307 306 306 305 305 307 308 307 309 310 310 311 313 315 317 317 318 319 318 322 322 328 328 330 331 332 333 333 330 329 328 326 326 327 325 322
308 310 310 310 309 308 310 311 310 304 310 310 311 312 311 311 313 314 314 316 316 318 317 319 317 320 324 326 328 330 334 334 334 333 331 328 328 324 328 327 324 324 320
297 301 305 308 313 312 313 312 312 313 312 315 314 314 311 312 313 315 315 316 315 317 318 320 322 325 326 328 327 330 318 298 324 316 333 329 326 325 323 322 321 317 312
292 293 296 299 302 305 308 310 309 309 309 310 314 317 316 313 314 316 317 318 318 319 321 325 326 327 328 329 329 309 292 294 311 299 326 326 327 325 323 320 317 315 313

GFSGL_sfc_thetae_090.txt.gz
Theta_e
320 323 325 326 328 330 334 338 340 324 318 319 322 326 324 333 339 340 342 344 342 342 341 339 339 340 338 337 337 336 336 335 328 330 332 334 336 337 339 338 341 343 340
318 318 323 324 325 327 329 333 324 321 318 319 327 323 321 328 331 335 339 342 341 340 340 340 340 341 339 338 338 336 336 336 333 327 329 330 332 335 336 335 339 342 341
315 315 317 323 323 323 327 330 322 324 317 319 320 319 320 319 330 335 337 339 338 338 340 339 337 338 336 336 335 333 334 336 334 329 327 330 330 334 333 336 336 339 343
314 314 315 318 322 322 323 321 323 324 327 329 325 328 318 318 332 336 337 337 339 338 338 336 336 334 334 334 333 331 331 329 327 324 324 325 328 332 334 331 331 333 335
311 311 311 314 317 319 320 323 319 324 327 329 327 327 328 328 330 332 333 338 336 334 332 329 327 323 318 318 322 325 327 326 323 321 317 317 317 325 324 329 330 331 332
306 306 309 311 311 313 318 319 323 319 325 328 326 326 326 325 310 315 328 332 332 327 325 323 323 318 316 313 312 313 316 320 319 318 315 313 314 320 327 327 326 325 325
302 303 305 307 309 309 313 317 318 320 322 323 328 327 328 328 307 309 318 330 328 327 325 325 322 322 323 327 312 310 310 307 310 317 318 319 322 326 329 329 328 328 327
300 302 302 303 306 307 308 312 317 320 321 319 323 328 331 326 304 306 313 327 327 327 327 327 326 325 325 323 326 327 325 325 324 318 316 319 322 330 330 331 331 329 329
299 300 301 303 302 303 306 308 315 317 320 325 322 322 329 318 302 304 315 324 325 325 326 325 326 324 309 306 324 324 324 325 321 312 309 308 305 303 309 327 327 323 321
297 299 301 302 301 302 305 307 309 315 316 320 323 324 319 325 301 301 314 320 321 321 324 326 309 318 308 302 321 323 321 324 324 322 320 318 316 321 306 323 329 323 321
296 297 298 299 301 301 301 303 306 310 315 317 317 320 325 323 314 299 303 317 320 318 319 321 322 303 299 296 299 324 321 318 317 319 318 320 327 332 332 328 331 330 322
296 296 296 296 298 301 302 302 302 305 310 313 316 315 319 324 309 301 300 306 312 317 317 319 311 297 296 295 300 307 304 300 317 318 318 321 326 328 331 331 331 330 332
296 296 295 296 297 297 298 300 299 301 304 310 310 313 313 316 316 301 299 298 298 313 318 305 298 296 296 298 296 295 294 312 316 317 319 323 328 329 331 330 333 333 333
298 297 296 296 295 296 297 300 299 299 302 306 311 310 312 313 320 309 306 302 301 304 308 306 306 306 304 306 303 301 311 318 319 318 322 327 329 329 329 330 328 329 326
298 297 297 296 296 295 296 297 299 301 302 301 311 313 312 311 315 314 307 309 309 307 311 316 315 315 314 314 316 317 316 315 317 324 326 326 328 327 327 330 329 326 322
299 297 295 295 295 295 295 296 295 297 295 293 297 298 313 308 304 299 301 300 301 298 309 311 312 313 313 314 315 315 319 315 321 325 327 327 326 326 326 328 327 326 322
301 297 296 295 296 295 295 295 295 296 295 294 296 297 298 297 298 298 301 299 297 298 309 309 311 313 315 315 314 315 316 321 323 323 325 327 326 325 322 327 327 324 322
302 295 297 297 297 296 296 298 298 298 297 299 297 297 298 297 298 296 297 299 303 304 311 312 312 315 315 314 313 314 317 321 323 324 324 327 327 325 326 325 325 322 322
302 301 298 298 298 298 299 299 300 299 301 300 303 299 296 292 292 294 295 312 312 311 313 313 314 313 313 313 313 315 317 321 321 324 325 326 327 325 323 323 322 308 314
304 297 298 303 300 300 299 298 300 300 301 302 304 305 302 303 305 301 305 312 311 312 312 312 312 313 312 312 314 315 318 320 322 323 325 327 326 325 324 323 323 322 323
305 306 298 303 302 302 300 301 302 301 301 301 303 303 295 306 306 307 309 311 314 314 313 313 312 312 313 313 314 315 322 325 325 325 325 327 326 325 325 325 324 324 320
304 307 306 305 304 303 303 302 304 302 302 302 303 302 290 304 307 307 308 310 313 315 315 315 313 315 315 316 316 316 326 326 326 327 327 327 325 325 325 324 324 322 319
304 307 309 308 308 302 304 304 302 301 302 303 303 304 305 305 306 309 310 312 313 314 314 313 314 315 317 322 322 323 327 327 328 329 327 327 326 324 323 323 322 319 318
296 298 301 302 305 308 308 306 306 301 303 303 304 304 307 306 306 309 310 312 312 313 313 314 315 315 317 322 326 328 329 330 331 329 329 326 324 318 323 324 322 320 317
289 292 294 296 297 303 308 310 309 308 307 306 305 306 307 309 309 310 313 311 312 314 314 316 317 318 321 322 323 326 315 296 317 313 327 326 324 324 324 322 320 315 312
287 287 289 292 292 295 298 301 304 306 310 311 312 312 311 310 311 311 312 314 314 315 316 317 318 320 323 325 325 309 295 292 305 296 325 326 324 322 320 317 313 311 310

GFSGL_sfc_thetae_093.txt.gz
Theta_e
310 309 311 313 316 318 317 320 325 324 318 319 322 324 325 323 326 321 322 324 322 322 334 334 332 332 332 330 330 328 328 328 324 325 327 328 327 330 333 334 335 334 337
308 309 309 310 313 314 315 317 321 319 318 320 323 325 325 324 324 320 321 322 320 320 332 333 334 335 331 331 330 329 329 329 327 324 323 324 326 326 328 329 331 337 336
306 305 306 307 308 311 314 315 318 319 317 317 323 323 324 324 323 322 323 321 321 324 330 333 334 334 332 331 329 328 328 329 327 324 324 324 324 324 325 327 329 330 336
303 303 302 304 306 307 308 311 316 319 317 315 317 322 322 323 321 319 320 319 321 325 333 336 332 332 329 328 329 328 326 325 322 320 316 317 319 320 324 322 323 325 326
302 301 301 303 304 305 306 308 310 316 319 322 322 319 317 317 320 319 319 321 325 327 332 333 331 329 325 324 323 321 318 318 316 312 309 307 307 309 312 320 321 323 324
300 300 301 301 301 302 303 304 306 307 314 321 319 321 316 318 314 309 316 317 323 329 326 321 318 317 314 312 313 312 313 312 312 311 309 306 305 307 314 318 319 318 315
300 300 300 300 300 301 303 302 303 304 307 316 319 319 319 317 309 306 309 322 328 321 318 315 316 317 315 314 310 309 309 308 310 308 305 308 310 314 319 317 317 319 318
298 299 299 297 298 300 301 300 302 302 304 311 315 317 317 317 309 307 309 325 320 319 317 315 318 317 317 319 319 316 314 314 312 310 309 311 313 317 319 322 321 321 322
295 296 297 297 298 299 299 300 299 300 303 308 315 316 315 315 308 305 316 320 318 317 319 318 317 316 306 307 316 315 316 316 317 312 311 308 305 303 308 320 321 321 316
295 295 297 297 296 296 297 298 299 301 303 306 311 313 313 314 309 303 315 318 316 317 316 316 311 314 301 303 313 314 313 314 317 315 313 308 303 311 304 318 325 323 316
296 297 297 297 297 297 297 299 300 300 303 304 308 314 318 317 314 301 303 318 316 315 315 314 311 304 300 298 306 314 312 314 312 312 310 310 313 317 323 321 324 326 317
296 296 297 297 298 298 296 297 298 299 300 302 301 308 317 318 308 305 303 300 311 314 313 313 313 301 297 295 298 301 303 301 310 309 308 309 312 316 327 329 325 325 325
296 296 297 298 298 298 295 295 296 299 299 300 302 305 309 317 314 302 303 300 299 310 312 308 295 294 295 296 298 297 297 308 307 306 307 309 314 323 326 324 325 327 327
296 297 299 299 298 297 297 296 295 297 299 300 302 304 308 314 314 315 314 302 300 302 302 302 301 301 301 303 300 298 303 305 306 307 309 313 320 325 321 323 322 322 320
298 299 299 297 296 296 296 296 296 298 299 299 302 301 300 306 313 311 310 311 303 302 305 305 304 305 305 306 307 308 307 306 308 310 313 316 317 322 321 323 322 321 320
296 299 296 295 295 296 295 295 294 295 295 295 296 299 301 296 298 300 301 299 300 297 304 304 304 305 305 305 307 307 308 308 308 311 316 317 318 323 320 321 323 321 320
296 300 296 296 296 295 295 294 293 295 294 294 295 295 295 295 295 299 298 298 298 299 302 303 304 306 306 307 308 307 306 308 312 315 318 318 322 324 319 320 322 321 320
298 298 296 297 297 296 296 296 296 296 294 296 295 298 297 296 296 295 296 299 300 302 305 303 304 306 308 308 307 305 306 308 314 315 318 319 321 322 321 321 320 319 320
299 301 300 298 298 298 298 298 298 298 298 296 299 296 295 292 292 294 296 310 309 308 306 306 306 307 308 307 305 305 306 307 313 318 318 319 322 321 319 320 319 306 313
297 299 299 302 300 298 299 298 297 298 298 299 299 301 300 296 301 298 302 309 307 309 308 308 308 307 306 305 304 305 305 307 312 318 318 319 320 321 320 319 320 320 320
298 303 300 302 301 300 299 299 300 299 299 300 301 302 293 301 302 301 304 305 309 310 309 308 307 306 306 305 305 305 306 309 316 317 318 319 321 320 320 320 322 320 315
296 299 302 305 304 302 302 302 302 301 300 300 302 300 290 300 304 306 307 307 307 309 309 308 306 306 307 307 307 307 307 316 319 319 320 320 321 321 319 321 319 317 315
292 294 296 299 300 299 304 303 301 301 301 300 301 298 297 298 299 301 305 308 308 307 307 307 306 306 307 308 310 311 311 318 321 322 321 321 320 319 320 320 319 318 315
288 290 291 293 294 296 302 305 304 297 298 299 300 300 300 300 300 301 302 305 306 306 306 306 306 306 307 308 312 321 322 324 324 324 324 321 320 317 321 320 318 317 314
286 287 288 288 290 292 294 297 305 305 302 303 302 300 301 302 302 303 304 305 304 305 306 306 306 307 308 308 310 318 311 297 314 305 323 322 321 322 322 321 318 316 311
285 285 285 286 287 288 289 291 293 296 304 305 303 304 305 303 303 303 304 305 305 305 305 306 307 309 310 312 314 306 294 292 304 297 321 323 321 322 322 320 315 313 310

GFSGL_sfc_thetae_096.txt.gz
Theta_e
304 304 304 305 306 308 312 314 315 317 318 318 319 321 323 325 324 321 322 324 320 321 324 322 323 323 322 326 329 326 324 322 319 319 323 326 326 326 328 333 333 331 330
302 302 302 303 303 304 305 307 310 313 317 317 318 319 321 324 323 320 320 322 317 317 321 321 320 321 326 328 329 326 326 326 323 319 321 323 325 326 326 324 327 333 331
302 301 301 302 302 302 303 304 306 308 312 316 317 317 319 320 323 322 319 321 318 320 321 322 323 323 325 327 330 327 326 328 326 324 321 322 323 321 321 322 324 326 332
302 301 300 300 301 301 302 303 305 306 307 310 316 317 318 321 322 323 322 320 319 322 321 320 320 322 324 327 329 327 326 326 323 322 319 316 316 316 318 317 317 321 323
299 299 299 300 300 301 301 301 302 303 305 307 310 316 317 319 320 321 319 318 316 317 320 322 322 325 326 327 329 325 325 321 319 315 310 307 305 305 306 314 315 318 320
297 298 298 299 299 299 300 300 301 302 304 305 308 311 317 320 310 308 311 317 319 321 321 325 329 325 321 317 317 317 320 317 313 310 307 305 304 303 309 314 317 315 314
296 296 297 298 299 299 298 297 298 300 301 302 305 311 314 317 307 305 308 314 315 316 320 324 323 326 318 318 311 310 309 308 311 309 303 302 305 309 314 315 314 316 316
295 296 297 296 297 298 297 297 297 298 298 302 305 309 314 318 307 302 305 311 313 315 321 319 317 314 313 312 311 310 310 309 309 309 307 308 312 315 316 317 317 317 319
294 295 296 297 296 296 296 296 297 298 298 297 300 303 310 315 304 303 307 314 314 317 320 319 317 317 306 306 317 316 314 315 312 307 305 305 303 305 310 316 313 317 316
294 295 296 296 296 296 297 296 297 297 297 299 301 302 307 312 303 303 305 312 312 317 318 317 310 314 300 303 313 313 311 311 314 312 310 306 302 305 303 316 318 318 319
295 295 296 296 297 297 298 298 297 296 297 300 301 302 307 311 312 301 299 310 314 317 316 315 313 300 299 300 305 311 308 312 310 311 309 308 309 310 313 315 321 325 320
294 295 295 297 298 299 299 298 297 296 296 297 298 300 306 314 306 299 299 300 310 317 315 314 310 298 297 297 304 296 296 304 309 307 306 305 306 309 313 325 326 326 327
293 293 295 298 300 300 298 297 296 295 295 296 298 299 304 314 313 300 299 301 303 315 316 310 299 295 294 295 295 295 298 308 306 304 303 304 307 312 318 322 321 322 323
292 294 296 298 297 297 297 298 296 295 295 297 299 302 303 311 313 309 307 307 304 306 302 300 300 299 300 300 299 298 304 304 303 303 303 306 311 315 317 319 318 318 318
292 293 295 298 296 296 297 297 297 297 296 297 301 302 300 303 299 298 308 308 308 304 303 304 303 302 302 303 303 303 303 303 304 305 306 310 313 314 316 318 319 319 318
290 293 295 297 296 296 295 295 294 294 294 294 295 300 301 297 294 294 297 299 297 298 303 303 301 303 303 303 304 304 306 306 306 306 307 310 314 313 316 318 319 317 317
291 294 297 297 296 295 295 294 293 295 293 294 293 295 295 295 293 294 293 294 293 300 302 301 302 302 303 304 304 305 305 304 307 308 310 314 314 316 314 317 318 319 317
293 294 298 299 297 296 296 296 296 295 294 294 295 295 295 294 292 292 294 296 299 301 302 302 302 303 304 305 305 304 303 303 307 310 311 314 315 317 318 318 318 318 318
291 294 297 302 299 298 298 297 297 297 297 296 297 296 296 293 293 292 291 306 307 303 302 302 303 304 305 306 305 304 303 303 306 310 313 315 315 317 316 317 316 306 311
291 294 296 302 302 300 299 298 298 297 298 297 295 298 300 298 295 297 299 307 304 306 305 304 304 304 305 305 303 303 303 303 305 308 312 315 316 317 316 316 317 319 319
291 294 293 299 300 302 300 299 299 299 299 299 297 299 293 298 299 301 303 306 308 308 306 305 305 306 305 304 304 303 303 304 306 308 313 316 316 316 318 317 319 318 316
290 291 293 294 296 296 299 302 302 300 300 300 301 298 289 302 303 303 305 305 307 308 307 307 306 305 305 305 305 304 304 305 308 312 315 316 317 317 317 319 317 315 312
288 288 289 290 292 292 296 303 301 300 299 301 302 300 298 300 300 301 304 305 305 306 306 306 305 305 305 306 306 306 307 309 311 314 317 316 317 317 318 317 316 314 313
286 287 287 287 289 290 291 294 303 296 297 298 300 299 300 300 298 299 301 303 306 306 305 305 305 305 305 305 306 311 317 318 318 319 320 318 317 313 318 317 317 316 312
285 285 285 285 286 287 288 290 292 295 301 301 297 299 300 299 298 299 300 302 301 304 304 304 304 305 305 305 305 306 304 295 311 305 321 319 318 319 318 318 316 315 310
285 284 284 284 284 284 285 287 288 290 292 296 303 298 298 299 299 300 300 300 301 302 303 304 304 305 306 306 307 300 292 291 300 291 317 319 319 321 320 319 317 314 311

GFSGL_sfc_thetae_099.txt.gz
Theta_e
300 300 300 301 302 302 302 304 305 307 309 310 313 315 317 318 319 320 322 324 325 327 331 330 329 327 325 323 322 321 320 321 317 324 322 325 325 326 327 329 331 330 329
300 300 299 300 301 300 301 301 303 304 306 307 309 312 314 318 318 319 320 321 322 322 323 325 326 328 325 323 321 320 321 322 320 320 323 323 325 325 325 325 327 329 329
300 300 299 299 299 299 300 301 301 302 303 305 306 307 311 314 316 318 320 321 321 322 320 319 320 322 322 321 321 320 322 325 326 324 321 321 323 321 319 321 322 323 328
299 298 297 297 298 299 300 300 301 301 301 301 302 304 307 309 315 318 320 320 321 321 320 322 321 319 319 320 323 324 322 323 325 325 321 318 317 315 315 315 314 318 320
297 296 296 298 298 297 298 299 301 302 301 301 301 304 306 309 309 315 317 319 320 320 321 320 320 322 323 321 323 324 325 324 325 318 314 311 308 307 305 309 310 314 316
296 295 296 296 297 296 297 298 300 298 297 299 301 302 301 305 306 309 311 314 317 318 317 319 321 321 320 316 318 319 324 323 318 315 310 309 306 304 306 311 314 312 310
294 295 295 296 296 296 297 297 297 296 297 298 298 299 300 304 303 304 305 312 314 312 313 314 319 322 320 324 314 314 313 313 317 315 311 308 305 304 310 312 313 313 313
295 295 296 296 296 297 296 296 297 297 297 298 299 300 302 303 303 301 305 311 311 312 314 316 318 320 320 320 317 315 315 314 313 311 309 307 308 309 315 314 314 314 318
293 294 295 296 295 295 296 296 297 297 297 297 298 299 298 299 299 299 303 311 312 313 317 320 320 318 309 305 312 311 310 313 307 304 304 303 302 305 311 316 311 311 307
293 294 295 294 295 295 296 296 297 298 297 298 297 298 300 299 299 298 302 313 311 313 316 318 308 314 302 303 313 313 312 312 314 312 311 307 303 303 306 311 310 311 310
294 294 294 295 295 296 297 298 298 298 298 297 297 297 299 302 302 300 298 312 310 314 315 316 317 303 298 301 306 315 311 313 310 311 310 308 307 307 307 310 317 320 320
293 293 293 294 296 297 298 299 298 297 297 296 296 296 300 302 301 301 299 304 307 314 316 317 316 299 299 299 305 295 297 307 310 308 307 305 305 306 310 314 320 323 327
292 292 292 295 296 298 298 297 296 297 296 295 295 295 298 301 304 300 298 299 302 313 316 312 303 298 295 299 294 295 301 308 306 304 302 302 304 308 311 323 323 325 322
290 291 293 293 295 299 298 297 296 296 295 295 295 296 299 303 308 306 306 303 302 309 308 307 300 299 299 298 299 301 306 305 303 302 302 303 306 312 316 318 317 320 318
290 291 292 294 296 298 297 296 296 297 296 295 296 298 300 303 302 297 305 309 311 309 304 303 303 305 303 302 301 301 301 301 303 303 304 306 308 310 316 317 317 315 317
289 291 292 294 297 298 296 295 295 293 293 292 292 294 299 296 293 294 297 296 297 297 306 305 304 305 303 302 303 303 304 304 304 304 305 306 308 311 315 319 316 314 314
290 291 292 293 298 298 296 295 294 296 294 293 292 292 292 292 292 293 293 295 296 298 304 304 303 303 302 302 302 302 303 303 305 305 307 307 311 312 313 317 316 316 313
290 291 292 295 297 299 297 297 296 295 295 295 293 291 294 293 292 293 293 300 303 301 303 304 303 303 302 302 303 303 302 302 304 307 309 310 312 313 314 315 314 316 316
289 291 293 295 297 301 299 298 297 297 297 297 296 293 294 293 292 292 293 306 305 303 301 301 302 302 303 304 304 302 302 302 303 305 308 311 312 312 312 314 315 303 308
290 290 291 293 296 297 299 298 298 298 297 298 296 293 299 297 297 299 300 305 304 304 303 302 302 302 303 304 303 302 301 301 302 303 306 310 312 313 313 314 314 316 318
288 290 289 291 292 294 295 297 299 299 299 299 297 295 291 298 299 300 301 305 306 304 304 303 304 304 304 303 302 302 301 302 303 304 306 310 312 313 315 316 319 318 313
288 288 288 288 290 291 292 298 301 300 300 299 298 294 288 299 301 301 301 306 307 307 308 305 305 305 304 304 303 302 303 304 305 306 309 312 314 315 316 319 317 313 309
286 286 286 287 288 288 290 293 298 300 300 301 300 299 300 300 299 304 305 305 306 306 306 306 305 304 304 304 304 305 305 307 309 309 310 314 314 315 317 318 315 313 311
285 285 284 285 285 286 287 289 291 292 298 299 299 300 300 300 300 301 302 304 305 305 306 306 305 305 304 305 306 309 311 313 315 315 316 315 315 312 318 316 314 313 310
284 284 283 283 284 284 285 286 287 289 292 294 298 298 299 299 299 300 302 302 304 303 303 303 304 305 305 304 304 304 300 291 303 299 317 316 316 316 316 316 315 311 306
283 282 282 282 282 282 283 284 285 286 287 289 292 294 296 297 297 299 300 301 301 302 304 304 303 304 304 304 305 298 293 290 295 288 308 316 316 316 317 316 312 309 306

GFSGL_sfc_thetae_102.txt.gz
Theta_e
301 301 301 301 301 302 302 302 303 304 306 307 307 308 309 311 314 317 319 321 322 323 325 327 328 331 328 327 327 326 324 321 316 318 322 326 327 328 333 336 337 337 337
300 300 300 300 301 300 300 301 303 303 304 304 305 306 307 308 310 313 316 318 319 320 322 323 322 326 327 328 327 325 325 321 318 316 321 323 324 330 333 332 333 335 338
299 299 298 298 298 298 299 301 301 302 302 303 303 303 303 304 305 308 313 315 317 320 321 321 321 322 322 325 326 324 322 322 321 319 318 324 326 331 329 329 330 333 334
298 297 297 297 297 298 299 299 299 301 301 302 303 302 302 303 304 306 308 312 315 319 322 322 322 321 322 322 322 323 322 321 321 320 320 323 327 326 328 326 325 328 330
297 296 296 297 297 298 298 298 299 300 302 303 301 300 301 302 305 307 309 310 315 318 320 322 323 321 321 321 323 323 322 320 321 321 319 322 319 316 319 321 322 324 326
295 295 296 297 298 298 298 298 298 298 299 300 299 299 300 301 300 301 303 304 310 317 317 320 321 319 319 315 315 316 321 322 320 319 317 318 314 316 317 319 320 322 321
294 295 296 297 297 297 297 297 297 297 298 298 298 299 299 300 299 299 301 305 308 314 316 316 317 321 318 322 315 312 313 313 318 323 317 316 311 313 318 321 321 322 321
294 295 296 296 296 296 296 296 296 297 297 298 298 299 299 300 299 298 299 303 307 314 315 315 315 318 320 318 319 319 321 319 318 321 321 316 315 315 321 325 323 322 324
293 294 295 295 294 295 295 296 297 297 297 298 299 299 298 299 297 297 298 302 304 310 315 316 318 319 308 302 316 316 315 310 306 307 306 301 301 305 315 323 321 320 316
293 294 295 294 294 295 295 296 297 297 298 299 299 299 300 299 297 296 298 302 304 308 314 316 306 309 300 302 313 314 311 310 311 311 310 307 309 308 307 322 320 316 317
293 294 293 294 294 294 295 297 297 299 299 297 297 299 299 299 299 296 297 302 304 309 312 316 315 302 301 300 298 314 313 316 310 315 313 313 313 313 313 316 320 322 321
292 293 293 294 294 295 296 297 299 298 296 296 297 297 298 299 298 298 296 296 302 310 312 316 312 302 298 296 301 296 299 308 316 314 313 312 312 313 315 315 317 323 328
291 291 293 294 294 295 296 296 298 297 296 296 296 295 296 299 301 298 296 295 297 308 316 311 303 299 296 297 294 297 304 315 313 311 310 310 313 316 318 324 321 323 324
290 291 292 292 293 295 297 299 297 296 295 295 295 295 296 298 302 303 304 301 301 309 307 308 304 298 295 301 302 309 312 312 310 308 309 310 314 318 323 325 321 320 319
289 290 291 293 294 295 297 299 297 298 296 295 295 295 295 296 299 295 299 308 312 309 306 307 307 306 307 307 307 307 307 307 308 309 311 314 317 318 321 323 322 320 319
288 289 291 292 293 294 297 298 296 294 293 292 292 293 296 295 292 294 293 297 296 298 308 308 307 307 305 306 307 307 308 307 310 311 311 313 315 317 321 321 320 320 318
288 289 290 291 293 295 296 298 296 298 295 293 292 290 291 291 293 294 292 294 295 301 311 308 307 307 306 307 308 309 309 309 311 312 313 313 317 317 320 322 322 321 317
289 290 291 292 293 294 296 299 298 297 296 298 295 291 292 292 292 293 293 298 306 306 309 308 307 307 307 307 308 309 307 310 312 315 317 318 320 320 321 322 320 321 318
289 289 290 291 292 294 295 297 299 298 298 298 300 296 296 294 293 293 295 307 306 305 307 308 308 307 308 309 310 308 309 309 310 313 316 319 320 321 320 322 321 307 309
288 288 289 290 291 291 292 294 297 299 298 299 299 298 299 299 300 301 303 308 308 307 306 307 307 308 309 309 308 308 308 308 309 311 313 318 320 322 321 321 322 318 318
287 288 287 288 289 289 291 293 297 301 300 300 298 297 290 300 301 302 303 305 309 309 308 308 308 309 309 309 309 309 309 309 311 312 314 317 320 321 322 323 322 321 319
286 286 286 286 287 287 288 291 294 296 300 298 299 296 288 302 303 304 304 306 310 309 310 311 310 310 310 309 309 310 311 313 314 314 318 320 322 322 323 322 319 315 309
285 285 285 285 285 286 286 288 290 291 297 300 300 302 301 301 303 304 305 307 310 310 311 310 310 310 310 311 311 312 315 318 319 318 318 321 321 321 322 320 316 311 309
284 283 283 283 284 284 285 285 287 287 290 293 296 299 301 302 302 303 304 308 308 310 310 310 310 311 311 310 311 313 318 320 324 324 323 322 320 314 321 318 317 314 308
283 282 282 282 282 282 283 283 284 286 287 289 290 292 296 299 301 302 303 304 305 306 307 309 310 311 311 311 312 313 304 289 306 297 322 322 320 319 319 317 315 311 305
282 282 281 281 281 281 281 282 282 283 284 286 287 288 291 294 298 300 302 304 304 304 305 307 308 308 309 310 310 300 292 290 299 287 309 317 320 321 320 316 313 308 305

GFSGL_sfc_thetae_105.txt.gz
Theta_e
308 309 309 309 309 309 309 309 310 310 310 310 310 310 310 311 313 313 315 316 317 321 326 326 328 331 328 328 334 335 328 328 326 328 331 335 333 332 333 338 340 340 336
307 308 308 308 308 307 307 308 309 308 309 309 309 309 309 309 309 309 309 310 312 316 319 323 324 325 328 331 331 332 331 326 324 321 331 331 329 333 334 338 336 338 339
306 306 306 306 306 306 306 307 307 307 307 307 307 307 307 308 307 306 307 308 309 312 316 318 321 325 325 325 326 330 331 327 325 322 322 329 330 329 331 332 336 339 340
304 305 304 304 305 305 305 305 306 306 305 306 307 307 308 307 306 306 306 308 309 311 314 318 319 322 324 325 325 327 329 325 324 322 321 323 327 330 330 331 333 342 337
303 302 303 303 304 304 304 304 305 305 305 306 306 306 307 306 305 306 306 305 306 306 309 312 319 322 320 322 324 326 326 323 321 320 319 320 322 326 327 329 333 336 337
301 300 300 301 301 301 302 303 304 305 305 306 305 305 305 305 302 301 303 304 304 306 308 310 314 318 319 314 314 315 322 322 321 319 319 318 321 329 328 328 334 332 324
300 300 300 300 299 300 301 302 303 303 303 302 303 305 303 303 300 299 300 304 303 302 305 310 314 320 319 323 316 311 312 311 314 322 320 320 321 330 331 325 329 326 327
297 299 298 298 298 299 300 301 300 301 303 303 303 302 301 303 299 298 299 303 303 303 306 308 315 317 321 319 319 319 320 319 319 319 321 322 325 323 323 324 324 326 332
296 297 296 297 297 299 297 298 300 302 303 303 302 302 301 301 299 297 298 301 302 303 306 308 312 319 310 303 313 315 318 322 308 309 309 308 305 306 318 325 326 323 320
294 294 295 296 296 296 297 300 302 303 301 302 302 303 300 300 298 296 297 301 300 302 305 307 307 310 302 300 316 316 315 315 318 310 310 305 307 310 311 325 327 322 321
293 294 295 296 296 297 300 302 301 300 299 301 301 301 300 300 301 296 296 299 299 302 302 311 317 303 298 297 299 314 314 312 310 314 313 315 318 320 324 329 332 326 321
293 293 294 295 297 299 299 298 298 298 297 299 299 299 301 301 298 297 295 295 300 301 305 312 315 298 297 296 303 298 299 309 317 315 315 317 318 318 319 323 327 327 328
292 292 293 295 297 299 298 296 296 298 298 297 297 298 297 298 299 298 296 295 296 300 306 306 299 296 297 300 297 296 301 320 320 319 317 317 318 320 322 323 326 329 331
290 291 293 294 296 299 298 297 297 298 298 297 297 297 297 297 298 301 301 304 300 302 303 309 305 302 298 304 309 312 318 322 321 316 315 316 319 321 322 326 323 323 322
290 290 292 293 295 297 297 297 297 300 301 299 299 299 296 295 297 295 294 302 311 306 310 313 310 314 314 313 315 316 315 316 313 314 317 320 322 323 324 325 324 324 323
289 289 290 292 293 293 294 296 297 296 295 293 292 294 298 295 293 293 293 292 296 297 312 312 313 315 313 312 313 313 315 312 317 319 321 321 321 324 324 324 325 324 321
288 289 291 291 292 292 293 294 295 300 297 294 293 292 291 291 291 292 292 292 293 299 312 314 316 314 313 314 315 314 314 316 318 318 320 322 323 327 322 322 322 321 317
289 289 290 290 291 291 293 293 295 298 299 304 298 294 293 292 293 293 291 296 304 308 314 316 316 314 313 314 315 313 315 318 322 321 322 325 325 327 326 324 322 322 318
288 289 289 289 290 291 292 293 295 297 302 301 305 301 299 295 294 295 298 310 310 314 316 318 317 314 313 316 315 314 315 316 319 323 324 325 326 325 326 328 324 310 311
287 288 287 288 289 289 290 291 294 296 301 303 303 304 305 302 303 304 308 311 315 316 316 317 317 316 316 317 316 317 317 316 317 320 325 326 328 327 324 326 323 320 320
286 286 286 287 287 288 288 291 292 293 300 302 304 300 287 306 305 305 308 314 314 315 316 314 315 315 318 317 317 317 318 317 317 318 322 325 328 327 329 328 327 322 323
285 285 285 285 286 286 287 289 290 291 294 300 300 301 289 308 308 309 308 310 316 316 315 315 313 316 318 317 318 320 322 320 321 325 326 327 328 330 330 327 322 319 314
287 285 284 284 285 285 286 287 287 288 290 292 296 300 303 305 304 306 308 313 315 316 314 314 317 320 319 319 320 321 322 324 325 325 326 327 327 328 323 320 321 318 316
286 285 284 283 283 283 284 285 285 286 287 290 291 293 296 302 304 304 306 306 312 316 314 318 319 319 319 319 319 319 321 323 324 322 325 327 327 321 323 322 319 314 311
285 285 284 283 282 281 282 283 284 285 285 286 288 289 290 293 299 301 305 308 309 309 311 314 317 315 317 317 316 317 301 287 309 297 320 322 326 325 322 320 315 308 305
284 284 283 283 283 282 281 281 282 282 283 284 285 287 287 288 291 294 297 301 304 310 312 314 315 314 316 318 317 301 292 288 302 288 317 321 322 327 323 318 312 308 304

GFSGL_sfc_thetae_108.txt.gz
Theta_e
314 315 316 316 316 317 317 317 318 319 318 318 318 318 317 317 318 318 318 318 318 319 321 323 326 331 326 326 328 325 323 324 321 323 326 335 344 342 339 340 339 340 337
313 314 314 315 316 316 316 317 317 316 317 316 316 315 315 315 315 315 313 314 313 313 315 317 318 323 329 330 327 329 326 327 322 325 326 328 336 342 340 339 337 337 338
312 312 313 314 315 315 315 316 315 315 315 314 314 313 313 313 313 313 313 311 311 311 312 312 314 319 324 326 327 326 325 326 325 323 321 326 331 334 336 338 336 338 339
311 311 312 312 313 313 314 314 313 313 312 312 312 312 312 312 312 311 311 311 311 310 311 311 311 314 317 321 325 327 328 325 324 322 322 323 328 333 332 328 329 334 337
310 310 311 312 312 311 311 312 312 312 311 312 311 311 312 310 309 309 308 309 308 308 309 308 310 311 312 313 317 324 327 325 321 320 320 320 323 326 327 328 329 333 337
308 308 310 310 310 309 309 309 310 310 311 310 310 309 310 306 303 303 304 305 305 305 305 306 308 309 311 309 309 312 318 324 322 320 323 322 323 325 326 331 329 329 327
306 306 307 308 306 306 307 308 309 309 309 309 307 304 305 308 301 300 301 305 305 304 305 305 307 307 309 314 313 311 311 309 312 324 321 324 326 326 329 330 332 328 328
303 304 305 305 304 304 303 307 308 308 308 306 304 308 308 307 301 298 299 303 304 303 303 304 308 308 311 313 320 321 322 324 325 323 324 323 329 332 332 332 335 334 341
300 301 301 301 300 302 304 306 307 307 304 305 307 307 304 304 300 297 298 301 302 300 302 306 307 309 305 301 317 319 319 318 317 308 310 310 310 308 319 335 330 330 329
298 298 297 296 298 300 303 304 307 303 304 304 304 303 302 304 300 297 299 303 299 300 303 306 302 306 302 299 312 317 315 322 323 318 314 311 310 320 308 327 326 325 323
296 295 295 296 298 299 302 305 303 304 301 300 301 302 303 305 304 296 296 299 299 300 301 303 309 301 298 298 297 314 320 322 315 318 321 316 317 317 319 325 327 326 321
294 294 294 295 298 300 301 301 302 302 300 300 301 301 303 304 299 298 295 295 297 300 301 305 310 298 296 296 297 300 298 304 317 316 315 315 317 318 323 325 326 327 327
293 293 293 296 298 299 299 300 301 301 300 300 301 301 301 304 302 298 296 295 297 299 305 305 298 297 300 304 296 297 299 316 315 314 315 316 317 320 323 324 326 330 333
292 291 292 294 296 298 299 301 300 299 299 299 302 303 301 304 300 301 303 301 300 301 302 305 302 302 299 305 307 308 317 316 315 314 315 318 321 321 322 324 325 328 326
290 291 292 293 294 296 296 298 298 300 299 298 303 303 304 300 300 298 296 297 296 305 308 315 315 316 320 320 320 318 320 320 318 318 318 318 319 320 322 325 326 326 321
289 290 291 292 293 294 294 296 296 294 294 294 293 296 303 297 294 293 292 292 291 295 310 315 315 316 315 315 316 316 318 315 317 318 319 318 317 321 322 324 325 325 321
289 289 291 290 291 292 293 293 293 297 296 296 294 294 292 293 292 291 292 291 293 299 317 318 317 314 315 318 318 317 318 320 321 321 320 320 322 324 320 320 322 323 322
289 289 289 290 290 291 292 292 293 295 296 303 301 296 296 293 293 292 292 296 313 310 319 320 315 317 318 317 316 318 321 320 321 322 323 322 326 325 322 322 323 325 322
288 288 288 289 290 290 291 292 294 295 297 301 306 300 299 297 295 294 293 311 315 317 319 320 317 318 319 317 315 316 320 323 323 323 323 324 327 328 327 324 323 310 312
287 286 287 288 288 288 290 290 291 293 296 305 304 305 309 301 306 309 317 313 314 317 322 321 318 319 319 318 318 318 317 317 322 324 325 325 325 324 327 328 325 321 322
289 286 285 287 287 287 288 289 290 291 293 295 299 302 288 300 307 307 312 314 315 319 323 321 319 320 320 319 320 319 318 318 320 322 324 326 325 324 326 329 328 324 324
292 288 284 285 285 286 287 288 288 289 290 291 296 298 292 306 307 309 313 316 319 320 321 321 320 320 320 320 322 322 320 321 324 325 325 325 326 328 329 328 327 320 317
291 290 287 285 284 284 286 286 287 288 289 292 293 294 295 299 308 309 312 319 321 321 321 322 321 320 321 323 324 325 324 324 325 327 326 326 325 327 325 323 322 320 318
291 290 289 286 284 283 283 284 285 285 287 287 289 291 292 293 296 299 309 312 318 320 321 322 322 322 322 321 321 321 322 320 324 323 324 326 326 323 324 322 324 323 320
291 289 288 287 286 285 283 283 283 284 285 285 287 288 290 290 295 295 296 298 310 317 316 315 321 321 322 322 321 317 297 288 310 294 320 321 324 326 325 319 317 313 312
290 289 287 286 286 285 286 285 284 283 283 284 285 286 287 288 290 292 295 296 301 309 310 313 319 317 321 321 315 293 288 287 302 288 317 320 320 325 323 313 309 307 308

GFSGL_sfc_thetae_111.txt.gz
Theta_e
320 321 320 320 320 321 321 321 321 323 322 321 321 321 321 320 323 322 321 321 320 322 322 321 321 324 323 324 326 327 327 327 320 324 327 332 337 339 340 343 341 342 336
318 317 318 319 319 320 320 321 321 320 321 320 320 319 319 317 320 319 317 317 317 317 317 317 316 315 320 322 323 326 325 327 323 320 327 325 333 336 334 338 338 337 338
316 316 317 317 318 319 319 320 320 319 319 319 317 317 316 316 315 316 315 316 317 317 316 316 314 314 314 315 319 320 324 326 327 323 322 327 327 330 332 336 338 339 338
314 314 315 316 317 317 318 318 318 318 317 316 316 315 315 314 314 314 314 314 313 313 314 314 312 311 310 313 313 315 320 322 324 323 323 323 322 329 330 329 330 335 335
312 312 313 315 316 316 316 315 315 315 315 315 314 314 314 313 311 312 311 310 310 309 310 310 310 311 310 310 309 311 312 313 319 321 321 321 319 319 323 328 329 330 335
312 311 312 313 314 314 314 312 312 312 312 313 313 312 312 310 305 303 306 308 308 307 306 308 309 309 309 307 307 307 309 311 311 316 320 319 320 323 323 324 327 326 326
310 311 311 311 311 312 311 310 310 310 313 312 311 311 312 312 303 301 302 306 307 307 307 307 306 306 307 307 306 306 306 306 307 313 317 320 322 325 326 327 329 329 329
308 308 308 307 307 307 307 308 309 311 312 309 309 310 310 308 302 299 300 305 305 307 307 308 305 305 306 305 307 309 311 315 319 316 318 322 326 327 328 329 331 332 334
306 305 304 304 303 303 302 304 307 309 307 307 309 309 307 308 302 298 300 305 304 304 306 307 305 305 302 299 304 304 305 308 314 310 310 309 304 304 314 329 327 326 324
302 301 301 301 300 299 298 302 305 306 306 307 307 307 306 309 301 298 300 303 301 300 302 302 302 302 299 298 302 302 304 310 317 322 324 316 307 316 306 325 325 322 325
299 299 299 299 298 297 299 301 304 305 305 305 305 306 307 307 307 299 296 299 299 299 299 300 304 298 296 295 295 302 306 311 315 318 322 323 324 325 327 326 329 331 328
295 296 296 296 297 297 300 301 303 303 303 304 303 303 306 308 303 300 296 296 298 298 299 302 304 298 295 296 297 297 296 299 308 314 317 317 317 319 324 327 330 333 336
292 294 294 295 296 296 299 300 301 302 303 301 300 301 305 308 309 299 297 296 296 299 302 304 297 296 296 299 298 294 297 312 313 314 314 315 317 319 324 324 328 329 329
291 292 293 293 294 295 298 299 298 299 299 299 299 301 305 307 305 305 303 303 300 299 304 304 302 299 299 301 306 310 313 312 310 311 313 315 318 318 320 323 322 322 320
290 291 292 293 293 294 296 296 296 298 298 297 298 301 304 303 303 298 298 297 297 297 295 308 313 313 314 314 315 316 315 315 312 312 311 314 315 315 317 321 321 321 319
289 290 291 292 292 293 294 295 295 294 294 293 292 295 305 299 296 294 293 292 291 291 306 315 317 318 315 316 317 317 318 314 316 315 313 315 313 316 318 320 322 322 316
289 289 289 290 290 291 292 292 292 296 296 295 295 295 294 294 293 293 292 291 291 293 316 318 319 316 315 317 318 319 316 316 319 317 316 315 318 321 320 321 321 321 317
288 288 288 289 290 290 290 291 293 293 294 300 302 299 297 294 293 293 294 295 315 310 319 318 317 318 316 316 319 319 321 322 323 322 322 321 323 323 322 322 322 321 317
289 287 287 289 289 289 291 291 292 293 296 298 305 304 302 297 297 295 294 313 317 317 318 316 319 318 318 317 317 320 322 321 320 324 322 323 323 325 323 322 321 310 311
291 287 286 287 288 289 289 289 289 291 292 294 296 298 296 300 307 312 317 317 316 317 318 319 319 321 319 318 317 317 318 319 319 323 324 324 326 326 324 325 323 321 320
294 289 287 286 286 287 288 287 288 289 290 292 295 296 289 298 304 311 319 318 316 317 319 318 317 319 320 321 319 317 319 321 324 321 324 323 324 324 330 327 325 324 321
295 293 289 286 286 286 286 287 287 288 289 290 291 292 289 295 299 300 307 316 317 319 318 321 320 320 321 320 322 323 321 320 325 323 322 324 326 328 329 327 324 323 317
294 294 291 289 287 286 286 286 287 286 287 288 289 289 290 290 295 297 300 306 314 320 322 322 319 320 322 324 323 321 316 319 321 323 326 326 325 326 326 325 324 320 319
294 293 292 290 288 287 285 286 285 284 285 285 287 287 288 289 291 292 296 302 308 317 320 323 323 323 324 321 319 316 314 314 321 321 321 324 324 322 325 323 321 321 319
292 292 291 290 288 288 288 286 285 285 285 285 285 285 287 288 289 291 297 299 305 309 311 316 321 322 316 312 312 309 293 289 304 295 322 321 325 325 323 319 315 318 318
292 291 290 289 288 285 287 287 287 285 285 285 285 285 285 286 286 288 290 294 297 302 305 308 312 316 312 309 301 291 289 288 295 289 306 322 323 325 322 316 311 316 313

GFSGL_sfc_thetae_114.txt.gz
Theta_e
324 325 325 324 324 325 325 325 325 326 325 322 321 321 321 321 322 321 320 319 317 317 317 317 316 317 315 315 315 315 315 317 314 318 323 325 326 328 330 333 334 332 335
321 322 323 324 324 324 324 324 324 323 323 321 320 319 319 318 319 318 316 317 315 314 315 314 314 315 313 313 312 311 311 314 314 313 318 320 322 325 328 327 327 326 329
318 318 323 323 323 323 322 322 321 320 319 319 318 317 317 316 316 316 315 315 314 314 312 311 311 311 310 310 311 309 309 311 311 312 314 319 322 323 323 323 328 329 333
315 316 316 318 319 318 319 319 319 318 316 316 316 316 315 315 314 314 313 312 312 311 310 310 309 308 308 308 308 307 308 307 308 308 309 313 319 322 322 319 319 326 327
312 313 314 316 316 316 316 317 317 316 314 314 313 313 314 313 312 311 311 310 309 308 308 308 308 309 310 309 306 305 305 304 303 302 303 307 310 316 317 319 318 322 325
311 310 313 313 314 314 315 315 314 313 312 313 312 312 312 311 306 305 306 308 306 305 304 305 306 308 307 307 307 307 306 303 302 302 302 303 306 311 318 318 318 318 316
309 309 310 311 310 310 310 309 309 309 310 311 310 311 310 311 304 301 303 306 303 304 304 304 304 306 306 305 305 305 305 305 305 304 302 303 304 309 314 318 318 318 318
307 307 307 306 305 306 305 305 305 306 306 308 309 309 308 309 302 300 301 304 304 304 305 305 305 304 305 304 304 303 303 304 305 307 307 306 308 311 313 318 318 319 322
304 303 303 302 301 301 301 301 301 302 304 305 306 305 306 308 302 300 300 305 304 304 305 304 303 302 300 298 302 301 301 302 305 304 303 302 301 303 308 318 317 316 315
299 298 299 299 299 298 299 299 300 300 302 304 304 305 305 306 302 300 300 304 303 301 301 301 301 300 297 297 299 300 299 301 303 304 306 308 305 307 305 316 318 316 316
297 296 295 297 297 298 298 298 298 301 302 302 303 304 305 304 305 300 299 302 300 300 300 300 301 298 296 295 294 301 301 302 303 305 307 311 314 318 318 315 316 319 318
294 294 294 296 296 296 297 297 299 300 300 301 302 302 303 305 304 301 296 296 299 300 300 301 301 298 295 295 296 296 295 297 300 302 306 310 313 316 319 321 321 323 325
292 292 293 295 294 295 295 295 297 300 298 298 299 299 300 304 306 301 298 296 298 301 302 300 297 296 295 297 296 296 295 309 305 304 305 308 312 316 320 321 323 324 325
290 290 292 292 293 294 295 295 295 295 295 297 297 298 300 302 304 306 306 304 301 301 301 302 300 298 298 300 301 309 311 311 309 310 312 314 317 316 318 320 319 321 320
290 290 291 291 292 292 293 293 294 296 296 295 296 298 298 299 302 299 297 300 302 300 295 300 310 312 313 313 313 313 313 312 310 311 311 312 311 312 315 319 320 320 318
288 288 289 289 290 290 291 292 293 293 293 292 292 294 298 297 295 294 294 293 292 291 298 308 310 310 312 313 314 313 314 311 313 310 311 311 311 313 318 320 320 316 312
287 287 287 288 289 288 289 290 290 294 295 295 294 294 293 292 292 294 293 292 291 292 308 312 313 314 313 313 316 314 313 314 316 314 313 312 314 315 314 317 316 315 314
289 288 287 288 288 289 290 290 291 291 292 295 298 295 294 293 292 293 293 295 313 306 314 316 316 316 314 315 315 316 318 318 318 317 318 317 318 317 316 316 316 315 315
289 287 287 287 288 289 289 289 290 290 291 293 297 294 293 292 296 297 295 312 312 314 315 316 318 318 317 316 317 318 318 318 318 320 320 319 320 320 319 319 315 306 309
291 288 288 286 287 287 287 287 287 288 290 291 292 291 291 295 299 301 308 315 315 313 314 315 317 319 319 320 317 318 318 316 319 320 320 320 322 322 320 318 318 317 314
294 291 288 287 287 286 286 287 286 287 287 288 290 290 287 292 295 296 301 306 308 310 314 316 318 316 316 319 319 319 320 321 320 321 322 322 323 322 323 322 320 313 310
294 294 291 288 288 286 287 286 286 285 286 286 287 288 287 290 291 293 296 299 303 306 316 318 318 317 321 315 315 314 315 315 316 322 322 324 324 323 323 321 316 313 311
293 292 292 290 289 287 287 286 286 285 285 285 286 286 286 287 287 289 293 296 298 308 311 314 311 309 312 311 309 305 302 304 310 315 323 323 323 323 323 320 318 314 312
292 291 290 289 288 289 287 286 285 285 285 285 285 285 285 286 286 287 289 292 295 301 306 307 311 308 305 303 301 300 295 292 302 303 315 323 322 320 321 321 321 316 312
290 290 289 288 286 287 287 287 287 286 285 285 285 285 285 286 285 286 287 290 293 295 300 304 305 306 304 300 297 295 290 288 293 290 304 323 322 320 316 313 315 315 313
290 289 289 287 286 284 285 286 286 287 286 285 285 285 285 285 286 286 286 288 290 292 294 298 301 303 300 297 293 289 287 287 290 288 294 321 322 320 316 313 313 313 310

GFSGL_sfc_thetae_117.txt.gz
Theta_e
312 312 312 311 312 313 312 313 314 314 315 315 315 315 314 314 314 314 313 314 313 312 312 312 312 313 310 309 309 308 308 308 305 306 311 314 316 319 321 323 325 326 326
310 310 309 311 311 311 312 312 313 312 313 314 314 314 314 314 312 311 311 312 311 310 311 309 308 310 306 307 308 307 307 307 306 303 305 308 310 314 318 320 322 325 321
309 308 308 309 309 309 310 311 311 311 311 311 311 311 312 311 311 311 310 310 309 308 307 306 306 305 303 304 304 305 306 307 307 305 303 306 308 311 313 319 320 322 326
307 306 306 306 307 308 309 310 310 311 309 308 309 310 311 311 311 309 308 305 305 306 306 305 304 304 304 304 303 304 305 304 304 304 303 303 303 305 309 310 316 317 319
306 305 305 306 307 307 307 308 309 308 308 308 308 308 308 309 310 305 306 304 305 306 306 305 305 307 309 308 305 305 304 302 302 301 300 299 299 300 301 307 309 316 317
305 304 306 306 305 304 304 304 303 303 304 305 306 309 309 310 304 304 305 306 305 303 302 303 304 306 305 306 306 306 305 302 301 300 299 299 299 299 303 304 307 311 312
303 304 303 302 302 301 301 300 300 299 300 301 303 307 308 307 303 302 303 305 303 302 303 304 302 303 305 305 305 305 304 304 305 303 300 300 300 301 301 302 306 310 314
300 299 299 298 298 298 297 297 297 299 300 298 300 304 305 305 302 300 301 303 303 303 302 302 302 303 304 303 303 302 302 303 303 304 303 303 303 303 303 303 305 308 314
296 295 296 296 296 297 297 297 298 298 296 297 300 302 303 304 301 299 300 301 302 302 302 303 304 302 300 298 300 299 299 300 304 303 302 300 299 299 303 306 304 308 307
294 294 295 293 293 295 296 296 297 294 296 300 301 302 303 303 301 298 299 302 302 303 303 302 301 300 298 296 298 299 297 299 301 302 303 302 300 301 301 303 304 303 309
294 294 293 293 294 295 295 296 296 296 298 299 300 302 303 303 302 298 298 302 302 300 300 301 302 299 296 295 296 299 299 301 301 302 302 303 305 306 309 308 308 308 309
292 291 292 292 294 295 294 294 294 296 298 298 298 299 299 300 300 299 298 297 299 299 300 301 301 298 296 295 295 295 295 296 299 299 300 301 303 307 310 314 310 315 318
290 290 291 292 293 293 293 293 294 295 295 295 295 297 298 300 300 299 298 297 298 301 302 301 298 296 295 296 296 295 295 301 303 298 298 300 305 309 313 315 315 315 316
289 289 290 290 291 292 292 293 293 293 293 294 294 294 296 298 299 302 303 303 300 302 303 302 300 297 297 299 299 306 310 311 309 308 308 306 310 311 312 314 315 315 314
289 289 288 289 289 290 291 291 292 293 293 292 293 295 295 295 297 296 295 297 299 299 295 300 304 309 309 311 313 313 312 312 309 309 310 310 312 313 313 318 317 316 314
287 287 287 288 289 289 289 290 293 292 293 292 292 292 295 294 293 292 292 292 292 292 296 301 307 311 311 309 310 312 312 309 310 310 309 310 310 309 308 315 315 315 309
286 286 286 287 288 288 289 289 288 292 294 294 292 292 291 291 291 293 293 292 291 292 302 312 312 314 311 312 313 312 313 314 313 310 309 309 315 315 313 316 314 312 310
289 289 286 286 287 287 287 288 289 289 290 292 294 291 291 290 292 293 296 297 310 307 312 312 313 315 311 313 315 315 316 317 315 312 312 314 317 316 315 314 314 312 313
289 288 287 287 287 287 287 288 287 288 288 289 291 290 290 291 293 295 298 306 307 308 310 313 315 315 316 316 316 317 317 316 315 316 316 315 317 316 315 316 314 307 307
290 289 288 288 287 287 286 286 286 286 286 287 287 287 287 291 291 293 298 299 302 305 310 312 315 314 315 313 311 312 313 315 318 318 318 319 319 317 316 316 315 310 305
291 290 289 288 287 287 286 286 286 286 285 285 286 287 285 288 289 290 292 294 297 303 308 306 304 306 304 304 302 302 304 306 310 318 319 320 320 318 319 316 311 307 305
290 289 288 287 288 287 286 286 285 285 285 285 285 286 285 287 287 288 290 292 295 297 304 307 302 300 300 299 297 296 295 297 300 305 320 321 321 319 317 315 311 309 308
289 287 286 284 285 287 287 286 285 285 285 285 285 285 286 286 286 286 288 290 293 294 297 303 300 297 296 295 295 294 292 292 295 300 311 319 320 318 316 314 312 310 307
287 286 285 283 283 283 283 285 286 285 285 285 285 285 285 285 286 286 287 289 290 292 295 297 298 294 293 292 291 291 289 288 293 293 301 317 316 315 318 317 314 309 305
286 286 285 284 283 282 281 282 282 285 284 285 284 285 284 285 285 286 286 287 288 290 291 293 293 293 292 290 289 288 286 285 288 288 297 314 315 312 315 313 313 310 306
284 285 284 283 283 283 282 281 281 282 282 283 284 284 284 284 285 285 286 286 286 288 289 290 290 292 290 289 287 285 284 285 286 286 293 314 315 312 310 310 307 306 307

GFSGL_sfc_thetae_120.txt.gz
Theta_e
310 309 309 309 310 311 311 311 311 311 312 312 313 312 312 312 312 310 310 311 311 311 310 310 310 310 308 307 307 306 305 305 302 304 305 307 305 306 311 310 313 318 321
307 308 308 308 308 308 308 309 310 310 310 310 311 311 311 311 310 309 309 310 309 308 308 307 307 309 305 304 303 302 303 303 302 300 304 305 303 305 306 308 313 315 317
305 304 304 305 305 305 306 307 308 308 309 309 308 308 308 309 309 308 308 307 306 307 306 305 304 304 303 303 302 302 302 303 302 301 301 303 304 304 305 305 306 308 313
304 303 303 303 304 304 305 305 306 306 306 305 306 307 308 308 309 308 306 305 304 305 305 304 304 303 303 303 303 303 302 301 301 301 300 300 301 303 303 300 301 304 309
303 302 302 302 302 302 301 301 301 302 302 303 304 305 306 307 309 308 307 306 303 302 303 304 304 305 308 308 305 303 302 300 300 300 298 298 298 298 297 299 299 302 305
301 300 300 299 299 298 298 298 298 298 298 299 301 302 303 307 305 304 305 305 306 304 301 303 303 306 306 307 307 306 305 301 300 299 299 298 299 300 300 299 299 299 299
297 298 297 297 297 296 297 296 295 295 295 296 297 298 300 302 302 301 303 305 304 303 301 301 302 304 305 304 303 304 305 305 305 303 300 300 300 301 302 300 299 299 300
294 294 295 294 294 294 294 294 294 294 295 295 295 296 298 301 301 299 301 303 303 301 301 302 302 302 302 303 303 303 302 302 303 303 302 302 303 303 303 302 299 299 302
293 293 293 293 292 292 293 293 296 296 296 293 295 296 299 300 299 299 299 300 299 301 302 303 303 302 301 298 300 299 300 300 303 302 301 300 298 298 302 303 300 298 299
291 291 292 292 291 292 293 293 295 296 296 297 298 300 301 301 299 298 298 300 300 300 302 302 301 300 298 296 298 299 298 299 301 301 302 301 300 301 300 302 301 299 300
291 292 291 290 290 293 294 294 294 294 295 297 298 298 299 300 299 297 297 298 299 300 301 301 302 299 296 295 296 299 299 300 301 301 301 301 302 303 303 302 302 301 300
290 291 291 292 292 293 293 294 294 294 294 295 295 296 298 297 298 297 296 296 298 300 300 301 302 298 296 296 296 296 294 295 297 297 298 300 301 302 304 306 306 304 306
289 288 289 291 291 292 291 291 292 293 293 293 294 295 296 298 299 298 296 296 298 299 300 300 298 297 296 298 298 296 295 298 298 299 299 300 301 303 305 308 311 309 310
288 288 289 289 290 291 291 291 291 291 292 292 293 293 295 296 297 299 298 298 298 301 303 302 300 298 297 300 300 307 307 305 308 309 308 308 303 304 305 309 311 310 310
288 288 288 288 289 289 290 291 291 293 293 292 293 293 293 291 293 292 291 293 296 297 294 298 306 313 314 313 312 312 314 312 310 309 309 308 305 307 308 312 312 313 311
287 287 287 287 288 288 289 289 292 292 292 292 291 291 291 291 291 292 293 292 292 294 296 309 312 314 313 312 312 314 315 313 312 309 309 309 310 310 311 312 315 313 309
287 287 287 287 287 287 287 287 287 290 292 293 291 290 289 290 291 293 294 295 297 297 310 311 313 314 313 313 313 313 314 316 316 313 310 310 311 311 312 314 312 311 308
289 289 287 287 287 287 287 287 287 287 287 288 290 289 289 290 291 292 293 299 305 306 306 308 308 306 305 304 304 307 311 315 314 315 316 313 312 313 313 312 311 309 308
288 288 288 288 288 287 287 287 287 287 286 287 288 288 289 290 291 292 293 297 301 304 302 301 301 301 299 299 300 302 305 308 313 317 316 316 316 315 313 313 311 303 304
288 289 289 287 287 286 286 286 286 286 286 285 286 285 286 289 288 289 292 294 295 297 302 299 298 296 296 296 296 298 300 303 306 316 317 317 317 317 314 312 310 304 301
289 287 287 288 287 287 286 285 285 285 285 285 285 286 285 287 286 287 289 291 293 294 298 296 295 293 293 293 292 293 295 298 301 304 318 318 316 312 310 308 306 304 304
287 285 284 283 284 285 286 286 285 285 285 284 284 285 285 286 286 286 287 289 291 293 295 296 292 292 290 290 290 290 290 290 294 297 308 318 317 314 312 310 308 305 303
285 285 283 282 281 282 283 284 284 284 284 284 284 284 285 285 285 286 286 288 289 290 292 292 292 290 289 289 289 288 286 286 289 294 301 318 317 315 314 312 309 306 302
285 284 283 281 281 280 280 280 283 283 283 283 284 283 283 284 284 285 286 287 288 288 290 289 289 290 288 287 287 287 286 286 289 290 297 314 316 315 314 311 308 304 301
284 284 283 281 280 280 279 280 280 281 282 282 282 282 282 282 283 283 284 285 286 286 287 288 287 287 287 286 285 285 284 284 286 287 297 313 313 315 314 311 308 305 303
283 283 282 280 281 280 279 281 281 281 280 281 280 281 281 280 281 282 282 283 283 284 285 286 285 285 286 285 284 284 284 284 285 285 295 302 305 308 308 307 306 304 302